[[{"header":{"parameterUnit":"m.s-1","parameterCategory":1,"la1":31.0,"la2":29.5877,"lo1":-88.7671,"lo2":-86.6584,"dy":0.0162,"dx":0.0185,"nx":115,"ny":88,"refTime":"2023-07-11T18:00:00:Z","depth":0,"parameterNumber":2,"parameterNumberName":"U-component_of_WINDS"},"data":[0.0,0.0,0.0,0.0,0.0,0.0,0.0,0.0,0.0,0.0,0.0,0.0,0.0,0.0,0.0,0.0,0.0,0.0,0.0,0.0,0.0,0.0,0.0,0.0,0.0,0.0,0.0,0.0,0.0,0.0,0.0,0.0,0.0,0.0,0.0,0.0,0.0,0.0,0.0,0.0,0.0,0.0,0.0,0.0,0.0,0.0,0.0,0.0,0.0,0.0,0.0,0.0,0.0,0.0,0.0,0.0,0.0,0.0,0.0,0.0,0.0,0.0,0.0,0.0,0.0,0.0,0.0,0.0,0.0,0.0,0.0,0.0,0.0,0.0,0.0,0.0,0.0,0.0,0.0,0.0,0.0,0.0,0.0,0.0,0.0,0.0,0.0,0.0,0.0,0.0,0.0,0.0,0.0,0.0,0.0,0.0,0.0,0.0,0.0,0.0,0.0,0.0,0.0,0.0,0.0,0.0,0.0,0.0,0.0,0.0,0.0,0.0,0.0,0.0,0.0,0.0,0.0,0.0,0.0,0.0,0.0,0.0,0.0,0.0,0.0,0.0,0.0,0.0,0.0,0.0,0.0,0.0,0.0,0.0,0.0,0.0,0.0,0.0,0.0,0.0,0.0,0.0,0.0,0.0,0.0,0.0,0.0,0.0,0.0,0.0,0.0,0.0,0.0,0.0,0.0,0.0,0.0,0.0,0.0,0.0,0.0,0.0,0.0,0.0,0.0,0.0,0.0,0.0,0.0,0.0,0.0,0.0,0.0,0.0,0.0,0.0,0.0,0.0,0.0,0.0,0.0,0.0,0.0,0.0,0.0,0.0,0.0,0.0,0.0,0.0,0.0,0.0,0.0,0.0,0.0,0.0,0.0,0.0,0.0,0.0,0.0,0.0,0.0,0.0,0.0,0.0,0.0,0.0,0.0,0.0,0.0,0.0,0.0,0.0,0.0,0.0,0.0,0.0,0.0,0.0,0.0,0.0,0.0,0.0,0.0,0.0,0.0,0.0,0.0,0.0,0.0,0.0,0.0,0.0,0.0,0.0,0.0,0.0,0.0,0.0,0.0,0.0,0.0,0.0,0.0,0.0,0.0,0.0,0.0,0.0,0.0,0.0,0.0,0.0,0.0,0.0,0.0,0.0,0.0,0.0,0.0,0.0,0.0,0.0,0.0,0.0,0.0,0.0,0.0,0.0,0.0,0.0,0.0,0.0,0.0,0.0,0.0,0.0,0.0,0.0,0.0,0.0,0.0,0.0,0.0,0.0,0.0,0.0,0.0,0.0,0.0,0.0,0.0,0.0,0.0,0.0,0.0,0.0,0.0,0.0,0.0,0.0,0.0,0.0,0.0,0.0,0.0,0.0,0.0,0.0,0.0,0.0,0.0,0.0,0.0,0.0,0.0,0.0,0.0,0.0,0.0,0.0,0.0,0.0,0.0,0.0,0.0,0.0,0.0,0.0,0.0,0.0,0.0,0.0,0.0,0.0,0.0,0.0,0.0,0.0,0.0,0.0,0.0,0.0,0.0,0.0,0.0,0.0,0.0,0.0,0.0,0.0,0.0,0.0,0.0,0.0,0.0,0.0,0.0,0.0,0.0,0.0,0.0,0.0,0.0,0.0,0.0,0.0,0.0,0.0,0.0,0.0,0.0,0.0,0.0,0.0,0.0,0.0,0.0,0.0,0.0,0.0,0.0,0.0,0.0,0.0,0.0,0.0,0.0,0.0,0.0,0.0,0.0,0.0,0.0,0.0,0.0,0.0,0.0,0.0,0.0,0.0,0.0,0.0,0.0,0.0,0.0,0.0,0.0,0.0,0.0,0.0,0.0,0.0,0.0,0.0,0.0,0.0,0.0,0.0,0.0,0.0,0.0,0.0,0.0,0.0,0.0,0.0,0.0,0.0,0.0,0.0,0.0,0.0,0.0,0.0,0.0,0.0,0.0,0.0,0.0,0.0,0.0,0.0,0.0,0.0,0.0,0.0,0.0,0.0,0.0,0.0,0.0,0.0,0.0,0.0,0.0,0.0,0.0,0.0,0.0,0.0,0.0,0.0,0.0,0.0,0.0,0.0,0.0,0.0,0.0,0.0,0.0,0.0,0.0,0.0,0.0,0.0,0.0,0.0,0.0,0.0,0.0,0.0,0.0,0.0,0.0,0.0,0.0,0.0,0.0,0.0,0.0,0.0,0.0,0.0,0.0,0.0,0.0,0.0,0.0,0.0,0.0,0.0,0.0,0.0,0.0,0.0,0.0,0.0,0.0,0.0,0.0,0.0,0.0,0.0,0.0,0.0,0.0,0.0,0.0,0.0,0.0,0.0,0.0,0.0,0.0,0.0,0.0,0.0,0.0,0.0,0.0,0.0,0.0,0.0,0.0,0.0,0.0,0.0,0.0,0.0,0.0,0.0,0.0,0.0,0.0,0.0,0.0,0.0,0.0,0.0,0.0,0.0,0.0,0.0,0.0,0.0,0.0,0.0,0.0,0.0,0.0,0.0,0.0,0.0,0.0,0.0,0.0,0.0,0.0,0.0,0.0,0.0,0.0,0.0,0.0,0.0,0.0,0.0,0.0,0.0,0.0,0.0,0.0,0.0,0.0,0.0,0.0,0.0,0.0,0.0,0.0,0.0,0.0,0.0,0.0,0.0,0.0,0.0,0.0,0.0,0.0,0.0,0.0,0.0,0.0,0.0,0.0,0.0,0.0,0.0,0.0,0.0,0.0,0.0,0.0,0.0,0.0,0.0,0.0,0.0,0.0,0.0,0.0,0.0,0.0,0.0,0.0,0.0,0.0,0.0,0.0,0.0,0.0,0.0,0.0,0.0,0.0,0.0,0.0,0.0,0.0,0.0,0.0,0.0,0.0,0.0,0.0,0.0,0.0,0.0,0.0,0.0,0.0,0.0,0.0,0.0,0.0,0.0,0.0,0.0,0.0,0.0,0.0,0.0,0.0,0.0,0.0,0.0,0.0,0.0,0.0,0.0,0.0,0.0,0.0,0.0,0.0,0.0,0.0,0.0,0.0,0.0,0.0,0.0,0.0,0.0,0.0,0.0,0.0,0.0,0.0,0.0,0.0,0.0,0.0,0.0,0.0,0.0,0.0,0.0,0.0,0.0,0.0,0.0,0.0,0.0,0.0,0.0,0.0,0.0,0.0,0.0,0.0,0.0,0.0,0.0,0.0,0.0,0.0,0.0,0.0,0.0,0.0,0.0,0.0,0.0,0.0,0.0,0.0,0.0,0.0,0.0,0.0,0.0,0.0,0.0,0.0,0.0,0.0,0.0,0.0,0.0,0.0,0.0,0.0,0.0,0.0,0.0,0.0,0.0,0.0,0.0,0.0,0.0,0.0,0.0,0.0,0.0,0.0,0.0,0.0,0.0,0.0,0.0,0.0,0.0,0.0,0.0,0.0,0.0,0.0,0.0,0.0,0.0,0.0,0.0,0.0,0.0,0.0,0.0,0.0,0.0,0.0,0.0,0.0,0.0,0.0,0.0,0.0,0.0,0.0,0.0,0.0,0.0,0.0,0.0,0.0,0.0,0.0,0.0,0.0,0.0,0.0,0.0,0.0,0.0,0.0,0.0,0.0,0.0,0.0,0.0,0.0,0.0,0.0,0.0,0.0,0.0,0.0,0.0,0.0,0.0,0.0,0.0,0.0,0.0,0.0,0.0,0.0,0.0,0.0,0.0,0.0,0.0,0.0,0.0,0.0,0.0,0.0,0.0,0.0,0.0,0.0,0.0,0.0,0.0,0.0,0.0,0.0,0.0,0.0,0.0,0.0,0.0,0.0,0.0,0.0,0.0,0.0,0.0,0.0,0.0,0.0,0.0,0.0,0.0,0.0,0.0,0.0,0.0,0.0,0.0,0.0,0.0,0.0,0.0,0.0,0.0,0.0,0.0,0.0,0.0,0.0,0.0,0.0,0.0,0.0,0.0,0.0,0.0,0.0,0.0,0.0,0.0,0.0,0.0,0.0,0.0,0.0,0.0,0.0,0.0,0.0,0.0,0.0,0.0,0.0,0.0,0.0,0.0,0.0,0.0,0.0,0.0,0.0,0.0,0.0,0.0,0.0,0.0,0.0,0.0,0.0,0.0,0.0,0.0,0.0,0.0,0.0,0.0,0.0,0.0,0.0,0.0,0.0,0.0,0.0,0.0,0.0,0.0,0.0,0.0,0.0,0.0,0.0,0.0,0.0,0.0,0.0,0.0,0.0,0.0,0.0,0.0,0.0,0.0,0.0,0.0,0.0,0.0,0.0,0.0,0.0,0.0,-2.0715,0.0,0.0,0.0,0.0,0.0,0.0,0.0,0.0,0.0,0.0,0.0,0.0,0.0,0.0,0.0,0.0,0.0,0.0,0.0,0.0,0.0,0.0,0.0,0.0,0.0,0.0,0.0,0.0,0.0,0.0,0.0,0.0,0.0,0.0,0.0,0.0,0.0,0.0,0.0,0.0,0.0,0.0,0.0,0.0,0.0,0.0,0.0,0.0,0.0,0.0,0.0,0.0,0.0,0.0,0.0,0.0,0.0,0.0,0.0,0.0,0.0,0.0,0.0,0.0,0.0,0.0,0.0,0.0,0.0,0.0,0.0,0.0,0.0,0.0,0.0,0.0,0.0,0.0,0.0,0.0,0.0,0.0,0.0,0.0,0.0,0.0,0.0,0.0,0.0,0.0,0.0,0.0,0.0,0.0,0.0,0.0,0.0,0.0,0.0,0.0,0.0,0.0,0.0,0.0,0.0,0.0,0.0,0.0,0.0,0.0,-2.2498,-2.197,-2.2786,-2.256,-2.1167,0.0,0.0,0.0,0.0,0.0,0.0,0.0,0.0,0.0,0.0,0.0,0.0,0.0,0.0,0.0,0.0,0.0,0.0,0.0,0.0,0.0,0.0,0.0,0.0,0.0,0.0,0.0,0.0,0.0,0.0,0.0,0.0,0.0,0.0,0.0,0.0,0.0,0.0,0.0,0.0,0.0,0.0,0.0,0.0,0.0,0.0,0.0,0.0,0.0,0.0,0.0,0.0,0.0,0.0,0.0,0.0,0.0,0.0,0.0,0.0,0.0,0.0,0.0,0.0,0.0,0.0,0.0,0.0,0.0,0.0,0.0,0.0,0.0,0.0,0.0,0.0,0.0,0.0,0.0,0.0,0.0,0.0,0.0,0.0,0.0,0.0,0.0,0.0,0.0,0.0,0.0,0.0,0.0,0.0,0.0,0.0,0.0,0.0,0.0,0.0,0.0,0.0,0.0,0.0,0.0,0.0,0.0,0.0,0.0,0.0,0.0,0.0,-2.4172,-2.3765,-2.2043,0.0,0.0,0.0,0.0,0.0,0.0,0.0,0.0,0.0,0.0,0.0,0.0,0.0,0.0,0.0,0.0,0.0,0.0,0.0,0.0,0.0,0.0,0.0,0.0,0.0,0.0,0.0,0.0,0.0,0.0,0.0,0.0,0.0,0.0,0.0,0.0,0.0,0.0,0.0,0.0,0.0,0.0,0.0,0.0,0.0,0.0,0.0,0.0,0.0,0.0,0.0,0.0,0.0,0.0,0.0,0.0,0.0,0.0,0.0,0.0,0.0,0.0,0.0,0.0,0.0,0.0,0.0,0.0,0.0,0.0,0.0,0.0,0.0,0.0,0.0,0.0,0.0,0.0,0.0,0.0,0.0,0.0,0.0,0.0,0.0,0.0,0.0,0.0,0.0,0.0,0.0,0.0,0.0,0.0,0.0,0.0,0.0,0.0,0.0,0.0,0.0,0.0,0.0,0.0,0.0,0.0,0.0,0.0,0.0,0.0,-2.4037,-2.692,-2.6475,0.0,-2.359,0.0,0.0,0.0,0.0,0.0,0.0,0.0,0.0,0.0,0.0,0.0,0.0,0.0,0.0,0.0,0.0,0.0,0.0,0.0,0.0,0.0,0.0,0.0,0.0,0.0,0.0,0.0,0.0,0.0,0.0,0.0,0.0,0.0,0.0,0.0,0.0,0.0,0.0,0.0,0.0,0.0,0.0,0.0,0.0,0.0,0.0,0.0,0.0,0.0,0.0,0.0,0.0,0.0,0.0,0.0,0.0,0.0,0.0,0.0,0.0,0.0,0.0,0.0,0.0,0.0,0.0,0.0,0.0,0.0,0.0,0.0,0.0,0.0,0.0,0.0,0.0,0.0,0.0,0.0,0.0,0.0,0.0,0.0,0.0,0.0,0.0,0.0,0.0,0.0,0.0,0.0,0.0,0.0,0.0,0.0,0.0,0.0,0.0,0.0,0.0,0.0,0.0,0.0,0.0,0.0,0.0,0.0,0.0,0.0,0.0,-2.4737,-2.683,-2.6259,-2.5218,0.0,0.0,0.0,0.0,0.0,0.0,0.0,0.0,0.0,0.0,0.0,0.0,0.0,0.0,0.0,0.0,0.0,0.0,0.0,0.0,0.0,0.0,0.0,0.0,0.0,0.0,0.0,0.0,0.0,0.0,0.0,0.0,0.0,0.0,0.0,0.0,0.0,0.0,0.0,0.0,0.0,0.0,0.0,0.0,0.0,0.0,0.0,0.0,0.0,0.0,0.0,0.0,0.0,0.0,0.0,0.0,0.0,0.0,0.0,0.0,0.0,0.0,0.0,0.0,0.0,0.0,0.0,0.0,0.0,0.0,0.0,0.0,0.0,0.0,0.0,0.0,0.0,0.0,0.0,0.0,0.0,0.0,0.0,0.0,0.0,0.0,0.0,0.0,0.0,0.0,0.0,0.0,0.0,0.0,0.0,0.0,0.0,0.0,0.0,0.0,0.0,0.0,0.0,0.0,0.0,0.0,0.0,0.0,0.0,0.0,-2.4894,-2.6157,-2.7698,-2.6835,-2.5661,-2.4464,0.0,0.0,0.0,0.0,0.0,0.0,0.0,0.0,0.0,0.0,0.0,0.0,0.0,0.0,0.0,0.0,0.0,0.0,0.0,0.0,0.0,0.0,0.0,0.0,0.0,0.0,0.0,0.0,0.0,0.0,0.0,0.0,0.0,0.0,0.0,0.0,0.0,0.0,0.0,0.0,0.0,0.0,0.0,0.0,0.0,0.0,0.0,0.0,0.0,0.0,0.0,0.0,0.0,0.0,0.0,0.0,0.0,0.0,0.0,0.0,0.0,0.0,0.0,0.0,0.0,0.0,0.0,0.0,0.0,0.0,0.0,0.0,0.0,0.0,0.0,0.0,0.0,0.0,0.0,0.0,0.0,0.0,0.0,0.0,0.0,0.0,0.0,0.0,0.0,0.0,0.0,0.0,0.0,0.0,0.0,0.0,0.0,0.0,0.0,0.0,0.0,0.0,0.0,0.0,0.0,0.0,0.0,0.0,-2.89,-2.8059,-2.8686,-3.1068,-2.9231,-2.7636,0.0,0.0,0.0,0.0,0.0,0.0,0.0,0.0,0.0,0.0,0.0,0.0,0.0,0.0,0.0,0.0,0.0,0.0,0.0,0.0,0.0,0.0,0.0,0.0,0.0,0.0,0.0,0.0,0.0,0.0,0.0,0.0,0.0,0.0,0.0,0.0,0.0,0.0,0.0,0.0,0.0,0.0,0.0,0.0,0.0,0.0,0.0,0.0,0.0,0.0,0.0,0.0,0.0,0.0,0.0,0.0,0.0,0.0,0.0,0.0,0.0,0.0,0.0,0.0,0.0,0.0,0.0,0.0,0.0,0.0,0.0,0.0,0.0,0.0,0.0,0.0,0.0,0.0,0.0,0.0,0.0,0.0,0.0,0.0,0.0,0.0,0.0,0.0,0.0,0.0,0.0,0.0,0.0,0.0,0.0,0.0,0.0,0.0,0.0,0.0,0.0,0.0,0.0,0.0,0.0,0.0,0.0,0.0,0.0,-2.6364,-2.8042,-2.9718,-3.1332,-2.9144,-2.7627,0.0,0.0,0.0,0.0,0.0,0.0,0.0,0.0,0.0,0.0,0.0,0.0,0.0,0.0,0.0,0.0,0.0,0.0,0.0,0.0,0.0,0.0,0.0,0.0,0.0,0.0,0.0,0.0,0.0,0.0,0.0,0.0,0.0,0.0,0.0,0.0,0.0,0.0,0.0,0.0,0.0,0.0,0.0,0.0,0.0,0.0,0.0,0.0,0.0,0.0,0.0,0.0,0.0,0.0,0.0,0.0,0.0,0.0,0.0,0.0,0.0,0.0,0.0,0.0,0.0,0.0,0.0,0.0,0.0,0.0,0.0,0.0,0.0,0.0,0.0,0.0,0.0,0.0,0.0,0.0,0.0,0.0,0.0,0.0,0.0,0.0,0.0,0.0,0.0,0.0,0.0,0.0,0.0,0.0,0.0,0.0,0.0,0.0,0.0,0.0,0.0,0.0,0.0,0.0,0.0,0.0,0.0,0.0,0.0,-2.6557,0.0,-3.1076,-3.1362,-2.9385,-2.7854,0.0,0.0,0.0,0.0,0.0,0.0,0.0,0.0,0.0,0.0,0.0,0.0,0.0,0.0,0.0,0.0,0.0,0.0,0.0,0.0,0.0,0.0,0.0,0.0,0.0,0.0,0.0,0.0,0.0,0.0,0.0,0.0,0.0,0.0,0.0,0.0,0.0,0.0,0.0,0.0,0.0,0.0,0.0,0.0,0.0,0.0,0.0,0.0,0.0,0.0,0.0,0.0,0.0,0.0,0.0,0.0,0.0,0.0,0.0,0.0,0.0,0.0,0.0,0.0,0.0,0.0,0.0,0.0,0.0,0.0,0.0,0.0,0.0,0.0,0.0,0.0,0.0,0.0,0.0,0.0,0.0,0.0,0.0,0.0,0.0,0.0,0.0,0.0,0.0,0.0,0.0,0.0,0.0,0.0,0.0,0.0,0.0,0.0,0.0,0.0,0.0,0.0,0.0,0.0,0.0,0.0,0.0,0.0,-2.6557,-3.0253,-3.2287,-3.2781,-3.1584,-3.0248,-2.8308,0.0,0.0,0.0,0.0,0.0,0.0,0.0,0.0,0.0,0.0,0.0,0.0,0.0,0.0,0.0,0.0,0.0,0.0,0.0,0.0,0.0,0.0,0.0,0.0,0.0,0.0,0.0,0.0,0.0,0.0,0.0,0.0,0.0,0.0,0.0,0.0,0.0,0.0,0.0,0.0,0.0,0.0,0.0,0.0,0.0,0.0,0.0,0.0,0.0,0.0,0.0,0.0,0.0,0.0,0.0,0.0,0.0,0.0,0.0,0.0,0.0,0.0,0.0,0.0,0.0,0.0,0.0,0.0,0.0,0.0,0.0,0.0,0.0,0.0,0.0,0.0,0.0,0.0,0.0,0.0,0.0,0.0,0.0,0.0,0.0,0.0,0.0,0.0,0.0,0.0,0.0,0.0,0.0,0.0,0.0,0.0,0.0,0.0,0.0,0.0,0.0,0.0,0.0,0.0,0.0,0.0,0.0,0.0,0.0,-2.9223,-3.1636,-3.3172,-3.3441,-3.0597,-2.9011,0.0,0.0,0.0,0.0,0.0,0.0,0.0,0.0,0.0,0.0,0.0,0.0,0.0,0.0,0.0,0.0,0.0,0.0,0.0,0.0,0.0,0.0,0.0,0.0,0.0,0.0,0.0,0.0,0.0,0.0,0.0,0.0,0.0,0.0,0.0,0.0,0.0,0.0,0.0,0.0,0.0,0.0,0.0,0.0,0.0,0.0,0.0,0.0,0.0,0.0,0.0,0.0,0.0,0.0,0.0,0.0,0.0,0.0,0.0,0.0,0.0,0.0,0.0,0.0,0.0,0.0,0.0,0.0,0.0,0.0,0.0,0.0,0.0,0.0,0.0,0.0,0.0,0.0,0.0,0.0,0.0,0.0,0.0,0.0,0.0,0.0,0.0,0.0,0.0,0.0,0.0,0.0,0.0,0.0,0.0,0.0,0.0,0.0,0.0,0.0,0.0,0.0,0.0,0.0,0.0,0.0,0.0,0.0,0.0,-3.0975,-3.304,-3.4455,-3.498,-3.1643,-2.9794,-2.9727,0.0,0.0,0.0,0.0,0.0,0.0,0.0,0.0,0.0,0.0,0.0,0.0,0.0,0.0,0.0,0.0,0.0,0.0,0.0,0.0,0.0,0.0,0.0,0.0,0.0,0.0,0.0,0.0,0.0,0.0,0.0,0.0,0.0,0.0,0.0,0.0,0.0,0.0,0.0,0.0,0.0,0.0,0.0,0.0,0.0,0.0,0.0,0.0,0.0,0.0,0.0,0.0,0.0,0.0,0.0,0.0,0.0,0.0,0.0,0.0,0.0,0.0,0.0,0.0,0.0,0.0,0.0,0.0,0.0,0.0,0.0,0.0,0.0,0.0,0.0,0.0,0.0,0.0,0.0,0.0,0.0,0.0,0.0,0.0,0.0,0.0,0.0,0.0,0.0,0.0,0.0,0.0,0.0,0.0,0.0,0.0,0.0,0.0,0.0,0.0,0.0,0.0,0.0,0.0,0.0,0.0,0.0,0.0,-3.4754,-3.6108,-3.6525,-3.5915,-3.3208,-3.0822,0.0,0.0,0.0,0.0,0.0,0.0,0.0,0.0,0.0,0.0,0.0,0.0,0.0,0.0,0.0,0.0,0.0,0.0,0.0,0.0,0.0,0.0,0.0,0.0,0.0,0.0,0.0,0.0,0.0,0.0,0.0,0.0,0.0,0.0,0.0,0.0,0.0,0.0,0.0,0.0,0.0,0.0,0.0,0.0,0.0,0.0,0.0,0.0,0.0,0.0,0.0,0.0,0.0,0.0,0.0,0.0,0.0,0.0,0.0,0.0,0.0,0.0,0.0,0.0,0.0,0.0,0.0,0.0,0.0,0.0,0.0,0.0,0.0,0.0,0.0,0.0,0.0,0.0,0.0,0.0,0.0,0.0,0.0,0.0,0.0,0.0,0.0,0.0,0.0,0.0,0.0,0.0,0.0,0.0,0.0,0.0,0.0,0.0,0.0,0.0,0.0,0.0,0.0,0.0,0.0,0.0,0.0,0.0,0.0,-3.5546,-3.7403,-3.8018,-3.7166,-3.4206,-3.1785,0.0,0.0,0.0,0.0,0.0,0.0,0.0,0.0,0.0,0.0,0.0,0.0,0.0,0.0,0.0,0.0,0.0,0.0,0.0,0.0,0.0,0.0,0.0,0.0,0.0,0.0,0.0,0.0,0.0,0.0,0.0,0.0,0.0,0.0,0.0,0.0,0.0,0.0,0.0,0.0,0.0,0.0,0.0,0.0,0.0,0.0,0.0,0.0,0.0,0.0,0.0,0.0,0.0,0.0,0.0,0.0,0.0,0.0,0.0,0.0,0.0,0.0,0.0,0.0,0.0,0.0,0.0,0.0,0.0,0.0,0.0,0.0,0.0,0.0,0.0,0.0,0.0,0.0,0.0,0.0,0.0,0.0,0.0,0.0,0.0,0.0,0.0,0.0,0.0,0.0,0.0,0.0,0.0,0.0,0.0,0.0,0.0,0.0,0.0,0.0,0.0,0.0,0.0,0.0,0.0,0.0,0.0,0.0,-3.4051,-3.6217,-3.8065,-3.8638,-3.7753,-3.5421,-3.3268,0.0,0.0,0.0,0.0,0.0,0.0,0.0,0.0,0.0,0.0,0.0,0.0,0.0,0.0,0.0,0.0,0.0,0.0,0.0,0.0,0.0,0.0,0.0,0.0,0.0,0.0,0.0,0.0,0.0,0.0,0.0,0.0,0.0,0.0,0.0,0.0,0.0,0.0,0.0,0.0,0.0,0.0,0.0,0.0,0.0,0.0,0.0,0.0,0.0,0.0,0.0,0.0,0.0,0.0,0.0,0.0,0.0,0.0,0.0,0.0,0.0,0.0,0.0,0.0,0.0,0.0,0.0,0.0,0.0,0.0,0.0,0.0,0.0,0.0,0.0,0.0,0.0,0.0,0.0,0.0,0.0,0.0,0.0,0.0,0.0,0.0,0.0,0.0,0.0,0.0,0.0,0.0,0.0,0.0,0.0,0.0,0.0,0.0,0.0,0.0,0.0,0.0,0.0,0.0,0.0,0.0,0.0,0.0,-3.4751,-3.6772,-3.8159,-3.8522,-3.7768,-3.6432,-3.478,0.0,0.0,0.0,0.0,0.0,0.0,0.0,0.0,0.0,0.0,0.0,0.0,0.0,0.0,0.0,0.0,0.0,0.0,0.0,0.0,0.0,0.0,0.0,0.0,0.0,0.0,0.0,0.0,0.0,0.0,0.0,0.0,0.0,0.0,0.0,0.0,0.0,0.0,0.0,0.0,0.0,0.0,0.0,0.0,0.0,0.0,0.0,0.0,0.0,0.0,0.0,0.0,0.0,0.0,0.0,0.0,0.0,0.0,0.0,0.0,0.0,0.0,0.0,0.0,0.0,0.0,0.0,0.0,0.0,0.0,0.0,0.0,0.0,0.0,0.0,0.0,0.0,0.0,0.0,0.0,0.0,0.0,0.0,0.0,0.0,0.0,0.0,0.0,0.0,0.0,0.0,0.0,0.0,0.0,0.0,0.0,0.0,0.0,0.0,0.0,0.0,0.0,0.0,0.0,0.0,0.0,0.0,0.0,-3.5672,-3.6772,-3.7669,-3.8019,-3.7785,-3.5999,-3.4021,0.0,0.0,0.0,0.0,0.0,0.0,0.0,0.0,0.0,0.0,0.0,0.0,0.0,0.0,0.0,0.0,0.0,0.0,0.0,0.0,0.0,0.0,0.0,0.0,0.0,0.0,0.0,0.0,0.0,0.0,0.0,0.0,0.0,0.0,0.0,0.0,0.0,0.0,0.0,0.0,0.0,0.0,0.0,0.0,0.0,0.0,0.0,0.0,-2.8133,0.0,0.0,0.0,0.0,0.0,0.0,0.0,0.0,0.0,0.0,0.0,0.0,0.0,0.0,0.0,0.0,0.0,0.0,0.0,0.0,0.0,0.0,0.0,0.0,0.0,0.0,0.0,0.0,0.0,0.0,0.0,0.0,0.0,0.0,0.0,0.0,0.0,0.0,0.0,0.0,0.0,0.0,0.0,0.0,0.0,0.0,0.0,0.0,0.0,0.0,0.0,0.0,0.0,0.0,0.0,0.0,0.0,0.0,0.0,-3.5453,-3.6214,-3.6992,-3.7349,-3.7277,-3.5946,-3.4266,0.0,0.0,0.0,0.0,0.0,0.0,0.0,0.0,0.0,0.0,0.0,0.0,0.0,0.0,0.0,0.0,0.0,0.0,0.0,0.0,0.0,0.0,0.0,0.0,0.0,0.0,0.0,0.0,0.0,0.0,0.0,0.0,0.0,0.0,0.0,0.0,0.0,0.0,0.0,0.0,0.0,0.0,0.0,0.0,0.0,0.0,0.0,0.0,0.0,0.0,0.0,0.0,0.0,0.0,0.0,0.0,0.0,0.0,0.0,0.0,0.0,0.0,0.0,0.0,0.0,0.0,0.0,0.0,0.0,0.0,0.0,0.0,0.0,0.0,0.0,0.0,0.0,0.0,0.0,0.0,0.0,0.0,0.0,0.0,0.0,0.0,0.0,0.0,0.0,0.0,0.0,0.0,0.0,0.0,0.0,0.0,0.0,0.0,0.0,0.0,0.0,0.0,0.0,0.0,0.0,0.0,0.0,-3.3873,-3.4861,-3.556,-3.6156,-3.6451,-3.6512,-3.5857,-3.4549,-3.2547,0.0,0.0,0.0,0.0,0.0,0.0,0.0,0.0,0.0,0.0,0.0,0.0,0.0,0.0,0.0,0.0,0.0,0.0,0.0,0.0,0.0,0.0,0.0,0.0,0.0,0.0,0.0,0.0,0.0,0.0,0.0,0.0,0.0,0.0,0.0,0.0,0.0,0.0,-2.6364,-2.9089,0.0,0.0,0.0,0.0,0.0,0.0,0.0,0.0,-3.1662,0.0,0.0,0.0,0.0,0.0,0.0,0.0,0.0,0.0,0.0,0.0,0.0,0.0,0.0,0.0,0.0,0.0,0.0,0.0,0.0,0.0,0.0,0.0,0.0,0.0,0.0,0.0,0.0,0.0,0.0,0.0,0.0,0.0,0.0,0.0,0.0,0.0,0.0,0.0,0.0,0.0,0.0,0.0,0.0,0.0,0.0,0.0,0.0,0.0,0.0,0.0,0.0,0.0,0.0,0.0,0.0,-3.34,-3.4141,-3.4861,-3.5543,-3.5168,-3.5201,-3.57,-3.5068,-3.3779,-3.1754,0.0,0.0,0.0,0.0,0.0,0.0,0.0,0.0,0.0,0.0,0.0,0.0,0.0,0.0,0.0,0.0,0.0,0.0,0.0,0.0,0.0,0.0,0.0,0.0,0.0,0.0,0.0,0.0,0.0,0.0,0.0,0.0,0.0,0.0,0.0,0.0,0.0,0.0,0.0,-3.1974,-3.3275,0.0,0.0,0.0,0.0,0.0,0.0,0.0,0.0,-3.2211,0.0,0.0,0.0,0.0,0.0,0.0,0.0,0.0,0.0,0.0,0.0,0.0,0.0,0.0,0.0,0.0,0.0,0.0,0.0,0.0,0.0,0.0,0.0,0.0,0.0,0.0,0.0,0.0,0.0,0.0,0.0,0.0,0.0,0.0,0.0,0.0,0.0,0.0,0.0,0.0,0.0,0.0,0.0,0.0,0.0,0.0,0.0,0.0,0.0,0.0,0.0,0.0,0.0,0.0,0.0,-3.2928,-3.4331,-3.5037,-3.5098,-3.5116,-3.5261,-3.5568,-3.457,-3.3211,0.0,0.0,0.0,0.0,0.0,0.0,0.0,0.0,0.0,0.0,0.0,0.0,0.0,0.0,0.0,0.0,0.0,0.0,0.0,0.0,0.0,0.0,0.0,0.0,0.0,0.0,0.0,0.0,0.0,0.0,0.0,0.0,0.0,0.0,0.0,0.0,0.0,0.0,0.0,0.0,-3.2677,-3.3858,-3.4876,0.0,0.0,0.0,0.0,0.0,0.0,-3.4154,-3.363,0.0,0.0,0.0,0.0,0.0,0.0,0.0,0.0,0.0,0.0,0.0,0.0,0.0,0.0,0.0,0.0,0.0,0.0,0.0,0.0,0.0,0.0,0.0,0.0,0.0,0.0,0.0,0.0,0.0,0.0,0.0,0.0,0.0,0.0,0.0,0.0,0.0,0.0,0.0,0.0,0.0,0.0,0.0,0.0,0.0,0.0,0.0,0.0,0.0,0.0,0.0,0.0,0.0,0.0,0.0,-3.2039,-3.3968,-3.4808,-3.4447,-3.4903,-3.5239,-3.5348,-3.4281,-3.2993,0.0,0.0,0.0,0.0,0.0,0.0,0.0,0.0,0.0,0.0,0.0,0.0,0.0,0.0,0.0,0.0,0.0,0.0,0.0,0.0,0.0,0.0,0.0,0.0,0.0,0.0,0.0,0.0,0.0,0.0,0.0,0.0,0.0,0.0,0.0,0.0,0.0,0.0,0.0,0.0,0.0,-3.4577,-3.5385,-3.6163,0.0,0.0,0.0,0.0,-3.4966,-3.5549,0.0,0.0,0.0,0.0,0.0,0.0,0.0,0.0,0.0,0.0,0.0,0.0,0.0,0.0,0.0,0.0,0.0,0.0,0.0,0.0,0.0,0.0,0.0,0.0,0.0,0.0,0.0,0.0,0.0,0.0,0.0,0.0,0.0,0.0,0.0,0.0,0.0,0.0,0.0,0.0,0.0,0.0,0.0,0.0,0.0,0.0,0.0,0.0,0.0,0.0,0.0,0.0,0.0,0.0,0.0,0.0,-3.0798,-3.2171,-3.314,-3.3684,-3.3738,-3.4026,-3.4612,-3.4471,-3.3441,0.0,0.0,0.0,0.0,0.0,0.0,0.0,0.0,0.0,0.0,0.0,0.0,0.0,0.0,0.0,0.0,0.0,0.0,0.0,0.0,0.0,0.0,0.0,0.0,0.0,0.0,0.0,0.0,0.0,0.0,0.0,0.0,0.0,0.0,0.0,0.0,0.0,0.0,0.0,0.0,0.0,-3.6596,-3.5639,-3.6537,-3.6851,0.0,0.0,-3.6342,-3.6252,-3.727,0.0,0.0,0.0,0.0,0.0,0.0,0.0,0.0,0.0,0.0,0.0,0.0,0.0,0.0,0.0,0.0,0.0,0.0,0.0,0.0,0.0,0.0,0.0,0.0,0.0,0.0,0.0,0.0,0.0,0.0,0.0,0.0,0.0,0.0,0.0,0.0,0.0,0.0,0.0,0.0,0.0,0.0,0.0,0.0,0.0,0.0,0.0,0.0,0.0,0.0,0.0,0.0,0.0,0.0,0.0,-3.0297,-3.0592,-3.2222,-3.328,-3.3536,-3.3877,-3.4403,-3.5025,-3.3985,-3.2796,0.0,0.0,0.0,0.0,0.0,0.0,0.0,0.0,0.0,0.0,0.0,0.0,0.0,0.0,0.0,0.0,0.0,0.0,0.0,0.0,0.0,0.0,0.0,0.0,0.0,0.0,0.0,0.0,0.0,0.0,0.0,0.0,0.0,0.0,0.0,0.0,0.0,0.0,0.0,0.0,0.0,0.0,-3.6596,-3.7704,0.0,0.0,0.0,-3.7015,-3.7015,0.0,0.0,0.0,0.0,0.0,0.0,0.0,0.0,0.0,0.0,0.0,0.0,0.0,0.0,0.0,0.0,0.0,0.0,0.0,0.0,0.0,0.0,0.0,0.0,0.0,0.0,0.0,0.0,0.0,0.0,0.0,0.0,0.0,0.0,0.0,0.0,0.0,0.0,0.0,0.0,0.0,0.0,0.0,0.0,0.0,0.0,0.0,0.0,0.0,0.0,0.0,0.0,0.0,0.0,0.0,0.0,0.0,-3.033,-3.2123,-3.306,-3.3034,-3.3621,-3.4312,-3.4911,-3.3532,0.0,0.0,0.0,0.0,0.0,0.0,0.0,0.0,0.0,0.0,0.0,0.0,0.0,0.0,0.0,0.0,0.0,0.0,0.0,0.0,0.0,0.0,0.0,0.0,0.0,0.0,0.0,-2.0639,0.0,0.0,0.0,0.0,0.0,0.0,0.0,0.0,0.0,0.0,0.0,0.0,0.0,0.0,-3.6641,-3.712,-3.8317,-3.899,0.0,0.0,-3.7404,-3.7404,-3.7554,-3.6975,0.0,0.0,0.0,0.0,0.0,0.0,0.0,0.0,0.0,0.0,0.0,0.0,0.0,0.0,0.0,0.0,0.0,0.0,0.0,0.0,0.0,0.0,0.0,0.0,0.0,0.0,0.0,0.0,0.0,0.0,0.0,0.0,0.0,0.0,0.0,0.0,0.0,0.0,0.0,0.0,0.0,0.0,0.0,0.0,0.0,0.0,0.0,0.0,0.0,0.0,0.0,0.0,0.0,0.0,0.0,-2.9732,-3.0964,-3.167,-3.1672,-3.2287,-3.2946,-3.3591,-3.3531,-3.2479,0.0,0.0,0.0,0.0,0.0,0.0,0.0,0.0,0.0,0.0,0.0,0.0,0.0,0.0,0.0,0.0,0.0,0.0,0.0,0.0,0.0,0.0,0.0,0.0,0.0,0.0,0.0,0.0,0.0,0.0,0.0,0.0,0.0,0.0,0.0,0.0,0.0,0.0,0.0,0.0,0.0,-3.6507,-3.6552,-3.7644,-3.8437,0.0,0.0,-3.7404,-3.7404,-3.7913,-3.7883,-3.6544,0.0,0.0,0.0,0.0,0.0,0.0,0.0,0.0,0.0,0.0,0.0,0.0,0.0,0.0,0.0,0.0,0.0,0.0,0.0,0.0,0.0,0.0,0.0,0.0,0.0,0.0,0.0,0.0,0.0,0.0,0.0,0.0,0.0,0.0,0.0,0.0,0.0,0.0,0.0,0.0,0.0,0.0,0.0,0.0,0.0,0.0,0.0,0.0,0.0,0.0,0.0,0.0,0.0,-2.9594,-2.9594,-3.0866,-3.1734,-3.2123,-3.2377,-3.2841,-3.3484,-3.2623,-3.1214,0.0,0.0,0.0,0.0,0.0,0.0,0.0,0.0,0.0,0.0,0.0,0.0,0.0,0.0,0.0,0.0,0.0,0.0,0.0,0.0,0.0,0.0,0.0,0.0,0.0,0.0,0.0,0.0,-2.1179,-2.1317,-2.1644,0.0,0.0,0.0,0.0,0.0,0.0,0.0,0.0,0.0,0.0,-3.6492,-3.6492,-3.7225,0.0,0.0,-3.7823,-3.7554,-3.7943,-3.7883,-3.736,-3.6088,-3.4452,0.0,0.0,0.0,0.0,0.0,0.0,0.0,0.0,0.0,0.0,0.0,0.0,0.0,0.0,0.0,0.0,0.0,0.0,0.0,0.0,0.0,0.0,0.0,0.0,0.0,0.0,0.0,0.0,0.0,0.0,0.0,0.0,0.0,0.0,0.0,0.0,0.0,0.0,0.0,0.0,0.0,0.0,0.0,0.0,0.0,0.0,0.0,0.0,0.0,0.0,0.0,0.0,-3.0163,-3.0163,-3.1255,-3.2048,-3.2512,-3.2317,-3.2303,-3.2539,-3.1329,-2.9774,0.0,0.0,0.0,0.0,0.0,0.0,0.0,0.0,0.0,0.0,0.0,0.0,0.0,0.0,0.0,0.0,0.0,0.0,0.0,0.0,0.0,0.0,0.0,0.0,0.0,0.0,0.0,0.0,-2.1832,-2.1945,-2.251,0.0,0.0,0.0,0.0,0.0,0.0,0.0,0.0,0.0,0.0,-3.6252,-3.6462,-3.6866,-3.7375,-3.7988,-3.7389,-3.706,-3.7719,-3.7198,-3.631,-3.523,0.0,0.0,0.0,0.0,0.0,0.0,0.0,0.0,0.0,0.0,0.0,0.0,0.0,0.0,0.0,0.0,0.0,0.0,0.0,0.0,0.0,0.0,0.0,0.0,0.0,0.0,0.0,0.0,0.0,0.0,-2.8026,0.0,0.0,0.0,0.0,0.0,0.0,0.0,0.0,0.0,0.0,0.0,0.0,0.0,0.0,0.0,0.0,0.0,0.0,0.0,0.0,0.0,0.0,-3.1407,-3.1495,-3.2049,-3.2408,-3.2422,-3.1825,-3.1132,-3.0478,-2.9797,-2.8401,-2.6323,0.0,0.0,0.0,0.0,0.0,0.0,0.0,0.0,0.0,0.0,0.0,0.0,0.0,0.0,0.0,0.0,0.0,0.0,0.0,0.0,0.0,0.0,0.0,0.0,0.0,0.0,-2.3163,-2.2623,-2.2523,0.0,0.0,0.0,0.0,0.0,0.0,0.0,0.0,0.0,0.0,-3.4666,-3.5759,-3.6387,-3.6492,-3.6716,-3.736,-3.6387,-3.5804,-3.641,-3.5663,-3.4735,0.0,0.0,0.0,0.0,0.0,0.0,0.0,0.0,0.0,0.0,0.0,0.0,0.0,0.0,0.0,0.0,0.0,0.0,0.0,0.0,0.0,0.0,0.0,0.0,0.0,0.0,0.0,-3.1233,-2.978,0.0,0.0,0.0,0.0,0.0,0.0,0.0,0.0,0.0,0.0,0.0,-3.172,-3.2319,0.0,0.0,0.0,0.0,0.0,0.0,0.0,0.0,0.0,0.0,0.0,0.0,-3.1467,-3.1497,-3.1573,-3.1433,-3.1099,-2.9892,-2.899,-2.8341,-2.7594,-2.6425,-2.4792,0.0,0.0,0.0,0.0,0.0,0.0,0.0,0.0,0.0,0.0,0.0,0.0,0.0,0.0,0.0,0.0,0.0,0.0,0.0,0.0,0.0,0.0,0.0,0.0,0.0,-2.4858,0.0,0.0,0.0,0.0,0.0,0.0,0.0,0.0,0.0,0.0,0.0,-3.2932,-3.402,-3.4936,-3.5579,-3.5804,-3.5833,-3.5993,0.0,0.0,0.0,0.0,0.0,0.0,0.0,0.0,0.0,0.0,0.0,0.0,0.0,0.0,-3.3307,-3.1486,-3.0708,-3.0105,-2.9365,0.0,0.0,0.0,0.0,0.0,0.0,0.0,0.0,0.0,0.0,0.0,0.0,0.0,0.0,-3.1474,0.0,-2.927,0.0,0.0,0.0,0.0,0.0,0.0,0.0,0.0,-3.0637,-3.1334,-3.2074,-3.2394,-3.25,0.0,-3.2272,-3.1769,0.0,0.0,0.0,0.0,0.0,0.0,0.0,0.0,-3.1151,-3.1008,-3.085,-3.0486,-2.9936,-2.8778,-2.7704,-2.6567,-2.5601,-2.4558,-2.3427,-2.2196,-2.1782,0.0,0.0,0.0,0.0,0.0,0.0,0.0,0.0,0.0,0.0,0.0,0.0,0.0,0.0,0.0,0.0,0.0,0.0,0.0,0.0,0.0,0.0,0.0,-2.5109,0.0,0.0,0.0,0.0,0.0,0.0,0.0,0.0,0.0,-3.0847,-3.1891,-3.2858,-3.3688,-3.4214,-3.4563,-3.4729,0.0,0.0,0.0,0.0,0.0,0.0,0.0,-3.2907,-3.2704,-3.2312,-3.216,-3.2523,-3.2835,-3.2955,-3.2566,0.0,0.0,-3.2252,-3.1574,-3.1009,-3.047,-3.1008,-3.1435,-3.1059,-3.1938,-3.2705,0.0,0.0,0.0,0.0,0.0,0.0,0.0,0.0,-3.139,-3.1307,0.0,-3.0259,0.0,0.0,0.0,0.0,0.0,-2.8398,0.0,0.0,-2.963,-3.0305,-3.1145,-3.1246,-3.1676,-3.2547,-3.3156,-3.2811,-3.1474,-2.9745,0.0,0.0,0.0,0.0,0.0,0.0,-3.0574,-3.0044,-2.9979,-2.9661,-2.9045,-2.8429,-2.7121,-2.517,-2.3786,-2.2899,-2.241,-2.2727,-2.2836,-2.2372,-2.2786,0.0,0.0,0.0,0.0,0.0,0.0,0.0,0.0,0.0,0.0,0.0,0.0,0.0,0.0,0.0,0.0,0.0,0.0,0.0,0.0,-2.4845,0.0,0.0,0.0,0.0,0.0,0.0,0.0,0.0,0.0,0.0,-3.0405,-3.1172,-3.1818,-3.2423,0.0,0.0,0.0,0.0,-3.2607,-3.2662,-3.255,-3.255,-3.2519,-3.2165,-3.1751,-3.1312,0.0,0.0,-3.2164,-3.2641,-3.2654,-3.1599,-3.1888,-3.2704,-3.4198,-3.3106,-3.2277,-3.2679,-3.1599,-3.0708,-3.0687,-3.1423,-3.1869,-3.73,0.0,0.0,0.0,0.0,-3.4473,-3.3858,-3.3486,-3.3005,-3.2121,-3.1087,-3.0535,0.0,0.0,0.0,0.0,0.0,0.0,-2.9151,-2.9566,-3.0118,-3.0527,-3.0749,-3.1197,-3.1509,-3.1719,-3.1513,-3.1242,-3.0804,-2.9529,-2.9381,-3.0335,0.0,0.0,0.0,0.0,-3.0574,-3.0021,-2.9794,-2.8973,-2.7678,-2.6422,-2.5099,-2.3739,-2.2942,-2.2661,-2.2827,-2.2297,-2.2259,-2.2862,-2.2297,0.0,0.0,0.0,0.0,0.0,0.0,0.0,0.0,0.0,0.0,0.0,0.0,0.0,0.0,0.0,0.0,0.0,0.0,0.0,-2.6502,-2.5523,-2.5385,0.0,0.0,0.0,0.0,0.0,0.0,0.0,0.0,0.0,-3.0044,-3.0777,-3.1626,0.0,0.0,-3.2648,-3.2828,-3.2704,-3.2544,-3.2233,-3.1864,0.0,0.0,-3.0753,-3.0534,-3.0777,-3.1221,-3.1625,-3.1625,-3.1763,-3.1763,-3.1424,-3.1512,-3.18,-3.2177,-3.1976,-3.1574,-3.1361,-3.121,-3.1022,-3.0721,-3.1111,-3.1427,-3.7778,-3.7306,-3.6576,-3.6134,-3.5769,-3.4573,-3.3914,-3.3631,-3.3005,-3.2196,-3.1223,-3.0809,-3.0043,-2.9089,-2.8863,0.0,0.0,0.0,-2.9453,-2.9817,-3.0143,-3.0294,-3.0306,-3.062,-3.0758,-3.0733,-3.0432,-3.0294,-3.0269,-2.9603,-2.9589,-3.0209,0.0,0.0,-2.9475,-2.9834,-2.9678,-2.8972,-2.8743,-2.7816,-2.6206,-2.4849,-2.3766,-2.3163,-2.2811,-2.2799,-2.3053,-2.2498,-2.2447,-2.304,-2.2498,-2.2196,0.0,0.0,0.0,0.0,0.0,0.0,0.0,0.0,0.0,0.0,0.0,-2.5749,-2.4895,0.0,0.0,0.0,-2.4971,-2.5737,-2.6854,-2.6251,0.0,0.0,0.0,0.0,0.0,0.0,0.0,-2.9729,-2.9779,-2.9779,-2.9779,-3.0279,-3.0911,-3.1721,-3.1622,-3.1556,-3.1795,0.0,-3.14,-3.1163,-3.0853,-3.0534,-3.031,-3.0005,-2.9993,-3.052,-3.0871,-3.116,-3.1361,-3.1386,-3.1311,-3.1135,-3.1085,-3.1009,-3.0796,-3.0758,-3.0834,-3.0896,-3.0984,-3.0959,-3.067,-3.0871,-3.0922,-3.7336,-3.7198,-3.6157,-3.5798,-3.5567,-3.3603,-3.3014,-3.3365,-3.2008,-3.1637,-3.2001,-3.106,-3.0583,-3.052,-3.003,0.0,-2.9779,-2.9779,-2.9779,-2.9779,-2.9779,-2.9779,-2.9779,-2.9792,-2.9767,-2.9729,-2.9767,-2.9754,-2.9654,-2.9741,-2.9767,-2.9704,-2.9252,-2.8976,-2.8938,-2.8875,-2.8335,-2.7306,-2.7364,-2.6477,-2.4858,-2.3715,-2.3125,-2.3125,-2.2967,-2.2955,-2.3005,-2.2895,-2.2834,-2.2884,-2.2834,-2.2586,-2.2101,0.0,0.0,0.0,0.0,0.0,0.0,0.0,0.0,0.0,0.0,0.0,0.0,0.0,0.0,0.0,-2.4632,0.0,-2.6553,-2.703,0.0,0.0,0.0,-2.8386,-2.8938,-2.8988,-2.9202,-2.9741,0.0,0.0,-2.9779,-2.9792,-2.998,-3.0482,-3.0105,-2.998,-3.0482,-3.0171,-2.9779,-2.9894,-2.9792,-2.9779,-2.9842,-2.9804,-2.9955,-3.0407,-3.0545,-3.0708,-3.1085,-3.1198,-3.1035,-3.062,-3.0557,-3.0419,-2.9892,-2.9867,-3.0093,-3.1035,-3.0859,-3.0545,-3.052,-3.052,-3.0407,-3.6946,-3.627,-3.5159,-3.479,-3.4599,-3.2957,-3.2124,-3.1945,-3.1599,-3.1235,-3.0984,-3.0733,-3.0382,-2.998,-2.9854,-2.9779,-2.9779,-2.9779,-2.9779,-2.9779,-2.9779,-2.9779,-2.9779,-2.9779,-2.9553,-2.9189,-2.9578,-2.9352,-2.8574,-2.9377,-2.9566,-2.9164,-2.944,-2.9377,-2.8925,-2.8511,-2.7959,-2.7293,-2.7293,-2.649,-2.4858,-2.3654,-2.3125,-2.3125,-2.2031,-2.1704,-2.2101,-2.1082,-2.0749,-2.1192,-2.0784,-2.0446,-2.0331,-2.0937,0.0,0.0,0.0,0.0,0.0,0.0,0.0,0.0,0.0,-2.6113,-2.433,0.0,-2.6553,0.0,-2.5749,-2.6691,-2.8185,-2.7708,0.0,0.0,-2.8913,-2.8963,-2.9528,-2.9591,-2.9641,-2.9767,-2.9779,-2.9779,-2.9779,-2.9779,-2.9829,-2.998,-2.9892,-2.9854,-2.9967,-2.9892,-2.9779,-2.9779,-2.9779,-2.9779,-2.9779,-2.9779,-2.9829,-2.9967,-2.9993,-3.0043,-3.0156,-3.0181,-3.0118,-3.0005,-2.9993,-2.993,-2.9804,-2.9779,-2.9854,-3.0118,-3.0068,-2.9993,-2.9993,-2.9993,-2.9942,-3.5357,-3.4398,-3.3381,-3.2935,-3.2949,-3.2109,-3.1634,-3.1386,-3.1386,-3.1097,-3.0608,-3.0357,-3.008,-2.9792,-2.9779,-2.9779,-2.9779,-2.9779,-2.9779,-2.9779,-2.9779,-2.9654,-2.9415,-2.9415,-2.9114,-2.8574,-2.8888,-2.885,-2.8511,-2.885,-2.9001,-2.8938,-2.9013,-2.8875,-2.8574,-2.8511,-2.8197,-2.7645,-2.6691,-2.5737,-2.4845,-2.3331,-2.2616,-2.2762,-2.1502,-2.1031,-2.1539,-2.0624,-2.0325,-2.0805,-2.0571,-2.0262,-2.005,-2.0466,-2.0414,0.0,0.0,0.0,0.0,0.0,0.0,0.0,0.0,0.0,0.0,0.0,-2.6578,-2.6703,-2.6779,-2.7507,-2.9151,-2.8762,-2.8775,-2.9691,-2.9503,-2.944,-2.9767,-2.9779,-2.9779,-2.9779,-2.9779,-2.9779,-2.9779,-2.9779,-2.9779,-2.9779,-2.9779,-2.9779,-2.9779,-2.9779,-2.9779,-2.9779,-2.9779,-2.9779,-2.9779,-2.9779,-2.9779,-2.9767,-2.9566,-2.9402,-2.9402,-2.9189,-2.9038,-2.9038,-2.9038,-2.9126,-2.9352,-2.9402,-2.9478,-2.9729,-2.9779,-2.9779,-2.9779,-2.9779,-2.9754,-3.331,-3.2393,-3.1536,-3.1119,-3.1035,-3.1156,-3.1185,-3.1185,-3.1185,-3.0934,-3.0482,-2.9993,-2.9779,-2.9779,-2.9779,-2.9779,-2.9779,-2.9779,-2.9779,-2.9779,-2.9779,-2.9478,-2.8925,-2.8925,-2.8599,-2.8021,-2.8072,-2.8199,-2.8363,-2.8113,-2.8064,-2.8287,-2.7916,-2.7717,-2.773,-2.8114,-2.8127,-2.7653,-2.5722,-2.466,-2.4505,-2.2711,-2.1997,-2.2268,-2.1107,-2.0597,-2.0919,-2.0544,-2.0479,-2.0874,-2.0906,-2.0709,-2.0183,-2.027,-2.0259,0.0,-1.9539,0.0,0.0,0.0,0.0,0.0,0.0,0.0,0.0,-2.5837,-2.6565,-2.8084,-2.777,-2.8134,-2.9641,-2.9779,-2.9779,-2.9779,-2.9779,-2.9779,-2.9779,-2.9779,-2.9779,-2.9779,-2.9779,-2.9779,-2.9779,-2.9779,-2.9779,-2.9779,-2.9779,-2.9779,-2.9779,-2.9779,-2.9779,-2.9779,-2.9729,-2.9578,-2.949,-2.9515,-2.9503,-2.949,-2.9139,-2.8837,-2.8825,-2.8448,-2.8147,-2.8147,-2.8197,-2.831,-2.875,-2.8837,-2.8988,-2.9402,-2.9478,-2.9541,-2.9729,-2.9779,-2.9616,-3.2321,-3.1462,-3.1241,-3.0771,-3.01,-3.007,-3.0093,-3.0093,-3.0105,-3.0043,-2.9942,-2.9842,-2.9779,-2.9779,-2.9779,-2.9779,-2.9779,-2.9779,-2.9779,-2.9779,-2.9779,-2.9478,-2.8938,-2.8925,-2.8411,-2.7507,-2.7896,-2.7236,-2.5769,-2.649,-2.6285,-2.5228,-2.5539,-2.5712,-2.5701,0.0,0.0,0.0,-2.4783,-2.3928,-2.312,-2.1946,-2.135,-2.1429,-2.0194,0.0,-1.9624,-1.9233,-1.9013,-1.9103,-1.9444,0.0,0.0,0.0,0.0,0.0,0.0,0.0,0.0,0.0,0.0,0.0,-2.3189,-2.4354,-2.6164,-2.7105,-2.7959,-2.8687,-2.8687,-2.8938,-2.9704,-2.9779,-2.9779,-2.9779,-2.9779,-2.9779,-2.9779,-2.9779,-2.9779,-2.9779,-2.9779,-2.9779,-2.9779,-2.9779,-2.9779,-2.9754,-2.9779,-2.9779,-2.9754,-2.9754,-2.9779,-2.9754,-2.9415,-2.895,-2.8486,-2.8473,-2.8536,-2.8386,-2.836,-2.8273,-2.8247,-2.8172,-2.8084,-2.8059,-2.8109,-2.8097,-2.8247,-2.826,-2.831,-2.8411,-2.8448,-2.8699,-2.9578,-2.9779,-2.9767,-3.1328,0.0,-3.0482,-3.0203,0.0,-2.949,-2.9365,-2.9365,-2.9365,-2.9214,-2.8963,-2.8963,-2.8963,-2.8963,-2.8963,-2.8963,-2.8963,-2.8963,-2.8963,-2.8963,-2.895,-2.8662,-2.8109,-2.8122,-2.7454,-2.6245,-2.6418,-2.5949,-2.473,-2.495,-2.4768,-2.4329,-2.4352,-2.4352,-2.4352,-2.4104,-2.3943,-2.3966,-2.3398,-2.28,-2.2058,-2.1103,-2.0571,-2.0571,0.0,0.0,0.0,0.0,0.0,0.0,0.0,0.0,0.0,0.0,0.0,-1.8752,-1.9453,-1.9855,-1.9674,-2.1063,-2.2038,-2.2038,-2.3132,-2.4258,-2.531,-2.6594,-2.7519,-2.8059,-2.836,-2.875,-2.9302,-2.9628,-2.9779,-2.9779,-2.9779,-2.9779,-2.9779,-2.9779,-2.9779,-2.9779,-2.9779,-2.9779,-2.9779,-2.9515,-2.9377,-2.9365,-2.9365,-2.9201,-2.9076,-2.9453,-2.9716,-2.9415,-2.9151,-2.8737,-2.8235,-2.8109,-2.8097,-2.8097,-2.7883,-2.772,-2.7695,-2.7469,-2.7293,-2.7293,-2.7293,-2.7356,-2.7645,-2.7708,-2.7783,-2.8034,-2.8109,-2.8247,-2.8875,-2.9176,-2.9264,-3.0482,-2.9779,-2.9691,-2.9654,-2.9591,-2.9026,-2.8725,-2.8649,0.0,0.0,0.0,-2.8109,-2.8109,-2.8109,-2.8109,-2.8109,-2.8109,-2.8109,-2.8109,-2.8109,-2.8109,-2.7808,-2.7293,-2.7126,-2.6318,-2.5016,-2.4791,-2.4399,-2.386,-2.3408,-2.3345,-2.36,-2.3196,-2.301,-2.2999,-2.2999,-2.2736,-2.2259,-2.1989,-2.1603,-2.1005,-2.0234,-1.982,-1.9831,-1.9372,-1.9209,-1.9277,-1.9209,-1.9365,-1.9775,-1.9805,-1.9766,-1.9697,-1.9687,-1.9492,-1.9121,-1.9453,-1.9717,-1.9805,-2.1004,-2.1776,-2.1859,-2.3102,-2.3931,-2.4073,-2.5341,-2.6263,-2.6719,-2.7249,-2.7779,-2.8322,-2.8876,-2.9209,-2.9209,-2.9209,-2.9209,-2.9209,-2.9209,-2.9197,-2.9443,-2.9443,-2.9484,-2.9282,-2.8909,-2.8486,-2.826,-2.8071,-2.8087,-2.7866,-2.8637,-2.9202,-2.8699,-2.8511,-2.8312,-2.7715,-2.7443,-2.7505,-2.7017,-2.6783,-2.6692,-2.6772,-2.6379,-2.605,-2.6263,-2.6094,-2.6235,-2.6748,-2.6847,-2.7139,-2.772,-2.7821,-2.7773,-2.7752,-2.8002,-2.8301,-2.9921,-2.9754,-2.9252,-2.9051,-2.9001,-2.8448,-2.7959,-2.757,-2.8021,-2.8172,-2.8109,-2.8109,-2.8109,-2.8109,-2.8109,-2.8109,-2.8109,-2.8109,-2.8109,0.0,-2.8109,-2.7821,-2.7281,-2.6432,-2.5637,-2.4957,-2.412,-2.3254,-2.2413,-2.2285,-2.1852,-2.1245,-2.1031,-2.1011,-2.1011,-2.1011,-2.0611,-1.9823,-2.0886,-2.0896,-1.9623,-1.9469,-1.9407,-1.9397,-1.8958,-1.8906,-1.9268,-1.8926,-1.8936,-1.9346,-1.9375,-1.9209,-1.8848,-1.8776,-1.8623,-1.8252,-1.8584,-1.8984,-1.9365,-2.0259,-2.0957,-2.1303,-2.1958,-2.266,-2.352,-2.4232,-2.4637,-2.4716,-2.5215,-2.5664,-2.6166,-2.6726,-2.7082,-2.7035,-2.6964,-2.6976,-2.7035,-2.7058,-2.7464,-2.8267,-2.8347,-2.8167,-2.7885,-2.7705,-2.7121,-2.6086,-2.5989,-2.5758,-2.603,-2.7146,-2.8024,-2.767,-2.7507,-2.69,-2.5912,-2.5457,-2.523,-2.4242,-2.4242,-2.4571,-2.5254,-2.4706,-2.4469,-2.5075,-2.4624,-2.4515,-2.5135,-2.5337,-2.5717,-2.6441,-2.6606,-2.654,-2.6227,-2.6274,-2.6796,-2.8875,-2.885,-2.8599,-2.8486,-2.8448,-2.7896,-2.7344,-2.6866,-2.7092,-2.7205,-2.7205,-2.7218,-2.7218,-2.7218,-2.7205,-2.6921,-2.6395,-2.6383,-2.6082,-2.5621,-2.5609,-2.5502,-2.5205,-2.4746,-2.4107,-2.3379,-2.2925,-2.2178,-2.1308,-2.1221,-2.1011,-2.0644,-2.0576,-2.0576,-2.0576,-2.0576,-2.0146,-1.9326,-2.0132,-1.9912,-1.8633,-1.9043,-1.9072,-1.8613,-1.8828,-1.8965,-1.8936,-1.8975,-1.9082,-1.9277,-1.9277,-1.9189,-1.9004,-1.8994,-1.8799,-1.8398,-1.876,-1.8975,-1.8936,-1.9736,-2.04,-2.082,-2.1131,-2.1451,-2.1897,-2.3132,-2.385,-2.3873,-2.431,-2.4791,-2.5284,-2.5633,-2.5869,-2.6127,-2.615,-2.6161,-2.6113,-2.6337,-2.6719,-2.7128,-2.7197,-2.7082,-2.6597,-2.6286,-2.585,-2.4833,-2.4487,-2.4385,-2.4621,-2.5131,-2.5656,-2.5668,-2.568,-2.5236,-2.4357,-2.4181,-2.3963,-2.3514,-2.3514,-2.3661,-2.412,-2.3672,-2.3734,-2.4036,-2.3734,-2.3734,-2.4181,-2.4181,-2.4409,-2.4624,-2.4838,-2.4741,-2.4626,-2.4784,-2.5483,-2.8109,-2.8097,-2.7971,-2.7858,-2.7708,-2.7281,-2.6854,-2.6533,-2.6533,-2.6521,-2.6521,-2.6521,-2.6321,-2.6002,-2.6102,-2.5594,-2.4779,-2.4647,-2.4264,-2.3514,-2.3514,-2.3514,-2.3441,-2.3305,-2.2776,-2.2027,-2.1811,-2.1298,-2.0644,-2.0576,-2.0576,-2.0576,-2.0576,-2.0576,-2.0576,-2.0576,-2.0146,-1.9375,-1.9697,-1.9287,-1.8096,-1.875,-1.8809,-1.8262,-1.8789,-1.9023,-1.8809,-1.8926,-1.9043,-1.9121,-1.9053,-1.8994,-1.9004,-1.9004,-1.8848,-1.8564,-1.8818,-1.8896,-1.8721,-1.9346,-1.9961,-2.0381,-2.042,-2.0459,-2.0702,-2.1973,-2.2861,-2.2905,-2.3243,-2.3677,-2.4013,-2.4277,-2.462,-2.488,-2.4923,-2.4773,-2.4967,-2.5284,-2.5574,-2.5727,-2.5809,-2.5599,-2.5236,-2.4758,-2.4194,-2.3471,-2.3079,-2.3036,-2.3362,-2.3068,-2.3057,-2.3415,-2.3785,-2.3854,-2.335,-2.3147,-2.3073,-2.2936,-2.2776,-2.285,-2.2999,-2.2999,-2.2999,-2.2999,-2.2925,-2.285,-2.3073,-2.3147,-2.3294,-2.3588,-2.3632,-2.3374,-2.295,-2.3141,-2.384,-2.8084,-2.8034,-2.7557,-2.7067,-2.6666,-2.6647,-2.6584,-2.6508,-2.6521,-2.6521,-2.6352,-2.6452,-2.566,-2.4618,-2.4955,-2.4624,-2.3672,-2.3661,-2.3599,-2.3441,-2.3514,-2.3514,-2.3283,-2.2531,-2.2103,-2.1876,-2.1145,-2.076,-2.0644,-2.0576,-2.0576,-2.0576,-2.0576,-2.0576,-2.0576,-2.0576,-2.0146,-1.9316,-1.9697,-1.9297,-1.8125,-1.8457,-1.8592,-1.8523,-1.8643,-1.8867,-1.9111,-1.8525,-1.8311,-1.8623,-1.835,-1.8135,-1.8154,-1.8135,-1.8115,-1.8086,-1.8125,-1.8252,-1.8623,-1.9072,-1.9531,-1.9912,-1.998,-2.0137,-2.0498,-2.076,-2.0857,-2.1071,-2.1263,-2.168,-2.162,-2.1998,-2.2381,-2.2543,-2.2501,-2.2254,-2.2429,-2.2294,-2.2705,-2.371,-2.3896,-2.3621,-2.3345,-2.3175,-2.259,-2.1511,-2.1312,-2.1252,-2.1332,-2.1312,-2.1165,-2.1456,-2.2338,-2.3001,-2.2403,-2.2103,-2.1886,-2.1155,-2.0944,-2.1385,-2.1821,-2.1573,-2.1078,-2.1952,-2.1552,-2.139,-2.1886,-2.2178,-2.2456,-2.2892,-2.2871,-2.2512,-2.1493,-2.1164,-2.1797,-2.7143,-2.7118,-2.6892,-2.6678,-2.6546,-2.6521,-2.6264,-2.5963,-2.595,-2.5319,-2.4389,-2.4566,-2.4715,-2.4695,-2.4921,-2.412,-2.2702,-2.2627,-2.2339,-2.179,-2.1466,-2.1551,-2.1683,-2.089,-2.0622,-2.1094,-2.0523,-2.0312,-2.0527,-2.0566,-2.0576,-2.0576,-2.0576,-2.0576,-2.0576,-2.0576,-2.0146,-1.9326,-1.9453,-1.9043,-1.8193,-1.8418,-1.8446,-1.8291,-1.8271,-1.834,-1.8486,-1.8184,-1.8096,-1.8242,-1.8105,-1.8008,-1.8008,-1.7783,-1.7754,-1.7978,-1.8008,-1.8193,-1.8603,-1.8809,-1.9092,-1.9512,-1.9541,-1.9727,-2.0117,-1.9951,-1.999,-2.0498,-2.0732,-2.0928,-2.1172,-2.1162,-2.1211,-2.1435,-2.1504,-2.1494,-2.1504,-2.1728,-2.2122,-2.2503,-2.2584,-2.2514,-2.2322,-2.208,-2.152,-2.0752,-2.0576,-2.0576,-2.0576,-2.0576,-2.0576,-2.0644,-2.1308,-2.1527,-2.1231,-2.1155,-2.1011,-2.0712,-2.0576,-2.0867,-2.0894,-2.0675,-2.0463,-2.1074,-2.0648,-2.0485,-2.1048,-2.0913,-2.1019,-2.1551,-2.1728,-2.1267,-2.0394,-2.0222,-2.0577,-2.6521,-2.6508,-2.6302,-2.6138,-2.6013,-2.6,-2.5774,-2.5435,-2.5523,-2.4793,-2.3567,-2.3771,-2.4129,-2.4482,-2.4198,-2.3099,-2.1735,-2.1583,-2.1221,-2.0585,-2.0117,-2.0088,-2.0283,-1.9648,-1.9609,-2.0078,-1.9893,-1.9961,-2.0361,-2.0527,-2.0576,-2.0576,-2.0576,-2.0498,-2.04,-2.0391,-1.9971,-1.9189,-1.9111,-1.875,-1.8154,-1.8301,-1.832,-1.8037,-1.8008,-1.8008,-1.8008,-1.8008,-1.8008,-1.8008,-1.79,-1.79,-1.7988,-1.75,-1.7393,-1.7793,-1.7949,-1.8135,-1.8437,-1.8397,-1.8652,-1.9043,-1.9102,-1.9346,-1.9736,-1.9629,-1.9805,-2.0439,-2.0576,-2.0732,-2.0937,-2.0752,-2.0732,-2.1016,-2.1045,-2.1055,-2.1074,-2.1357,-2.1494,-2.1514,-2.1597,-2.1523,-2.1475,-2.1291,-2.0968,-2.0713,-2.0576,-2.0576,-2.0576,-2.0576,-2.0576,-2.0576,-2.0644,-2.0644,-2.0576,-2.0644,-2.0576,-2.0576,-2.0566,-2.0518,-2.0439,-2.0078,-1.9814,-2.0292,-1.9997,-1.999,-2.0358,-2.0154,-1.9795,-1.998,-2.0174,-2.0131,-1.9413,-1.9521,-1.9521,-2.6521,-2.6433,-2.5862,-2.5372,-2.4921,-2.4946,-2.4908,-2.4883,-2.5269,-2.5432,-2.5054,-2.4795,-2.4316,-2.3402,-2.2161,-2.1257,-2.074,-2.0653,-2.0643,-2.0439,-2.0059,-1.9902,-1.9912,-1.9492,-1.9307,-1.9443,-1.9365,-1.9541,-1.9971,-2.0371,-2.0576,-2.0576,-2.0547,-2.0342,-2.0029,-1.9951,-1.9531,-1.8809,-1.864,-1.8397,-1.7998,-1.7969,-1.791,-1.794,-1.8008,-1.7998,-1.7988,-1.8008,-1.8008,-1.8008,-1.7676,-1.7617,-1.7891,-1.7236,-1.7002,-1.7383,-1.7783,-1.8018,-1.8057,-1.8066,-1.8242,-1.8574,-1.8672,-1.9004,-1.9687,-1.9736,-1.9941,-2.0498,-2.0508,-2.0547,-2.0635,-2.0615,-2.0586,-2.0625,-2.0625,-2.0635,-2.0625,-2.0713,-2.0644,-2.0693,-2.0781,-2.082,-2.0713,-2.0605,-2.0654,-2.0596,-2.0576,-2.0576,-2.0576,-2.0576,-2.0576,-2.0576,-2.0576,-2.0576,-2.0576,-2.0576,-2.0576,-2.0576,-2.0537,-2.0439,-2.0146,-1.9883,-1.9687,-1.9561,-1.9629,-1.9727,-1.9873,-1.9766,-1.9463,-1.9424,-1.9453,-1.9209,-1.8857,-1.9033,-1.9023,-2.59,-2.585,-2.5335,-2.4983,-2.4833,-2.4833,-2.4619,-2.4267,-2.3867,-2.3215,-2.2367,-2.1643,-2.0999,-2.0359,-1.9869,-1.9839,-2.0088,-1.9873,-1.9746,-1.9697,-1.9297,-1.9238,-1.9424,-1.8818,-1.8789,-1.9189,-1.9014,-1.9238,-1.9912,-2.0352,-2.0576,-2.0518,-2.0273,-2.0059,-1.9893,-1.9648,-1.9219,-1.863,-1.8057,-1.7487,-1.7107,-1.6507,-1.6437,-1.707,-1.7725,-1.7881,-1.7617,-1.7861,-1.8008,-1.8008,-1.7852,-1.7725,-1.7598,-1.7324,-1.708,-1.7041,-1.7617,-1.8008,-1.8008,-1.8008,-1.8066,-1.8203,-1.8232,-1.8477,-1.8955,-1.9111,-1.9385,-1.9971,-2.0146,-2.0244,-2.0508,-2.0576,-2.0576,-2.0576,-2.0576,-2.0576,-2.0576,-2.0576,-2.0576,-2.0615,-2.0791,-2.0889,-2.0684,-2.081,-2.0869,-2.0625,-2.0576,-2.0576,-2.0576,-2.0576,-2.0576,-2.0576,-2.0576,-2.0576,-2.0576,-2.0576,-2.0576,-2.0576,-2.0527,-2.0322,-2.0068,-1.9678,-1.9434,-1.9228,-1.9297,-1.9316,-1.9404,-1.9482,-1.917,-1.8916,-1.8926,-1.8838,-1.8535,-1.8711,-1.8613,-2.5234,-2.5034,-2.4695,-2.4443,-2.4217,-2.3951,-2.3677,-2.3243,-2.2591,-2.1728,-2.0828,-2.0068,-1.9586,-1.9264,-1.8842,-1.8926,-1.9463,-1.9346,-1.9355,-1.9443,-1.9043,-1.9072,-1.9316,-1.876,-1.8721,-1.9209,-1.9141,-1.9365,-1.9902,-2.0352,-2.0391,-2.006,-1.9774,-1.9335,-1.8928,-1.849,-1.8081,-1.7523,-1.6902,-1.6404,-1.6105,-1.5517,-1.5379,-1.593,-1.6711,-1.7173,-1.7102,-1.7154,-1.7079,-1.706,-1.6847,-1.657,-1.6151,-1.6402,-1.6487,-1.6504,-1.7111,-1.7725,-1.794,-1.8008,-1.8008,-1.8008,-1.8018,-1.8184,-1.8504,-1.8562,-1.9004,-1.9531,-1.9863,-2.0059,-2.0293,-2.0478,-2.0566,-2.0576,-2.0576,-2.0576,-2.0576,-2.0576,-2.0576,-2.0605,-2.0791,-2.082,-2.0674,-2.084,-2.082,-2.0586,-2.0576,-2.0576,-2.0576,-2.0576,-2.0576,-2.0576,-2.0576,-2.0576,-2.0576,-2.0576,-2.0557,-2.0557,-2.0547,-2.0312,-1.9893,-1.9492,-1.916,-1.8955,-1.8867,-1.8867,-1.8926,-1.9043,-1.8877,-1.8564,-1.8506,-1.8477,-1.8369,-1.8379,-1.8301,-2.4494,-2.4092,-2.4004,-2.3715,-2.3192,-2.248,-2.1999,-2.202,-2.1552,-2.1207,-2.0919,-2.0754,-2.0261,-2.0274,-1.9043,-1.8633,-1.874,-1.9004,-1.9355,-1.9648,-1.9355,-1.9414,-1.9756,-1.9355,-1.916,-1.9307,-1.9687,-1.9788,-1.9781,-2.0178,-2.0001,-1.9116,-1.8885,-1.8241,-1.6773,-1.6606,-1.618,-1.5846,-1.5466,-1.5188,-1.5163,-1.5021,-1.4812,-1.4629,-1.4998,-1.5579,-1.6392,-1.5781,-1.5446,-1.53,-1.4765,-1.3966,-1.3963,-1.4496,-1.5129,-1.5744,-1.6323,-1.7042,-1.7716,-1.7794,-1.7657,-1.7725,-1.7862,-1.7958,-1.8247,-1.8533,-1.8818,-1.9219,-1.9668,-1.9941,-2.001,-2.0332,-2.0566,-2.0576,-2.0576,-2.0576,-2.0576,-2.0576,-2.0576,-2.0576,-2.0635,-2.0586,-2.0576,-2.0625,-2.0615,-2.0596,-2.0576,-2.0576,-2.0576,-2.0576,-2.0576,-2.0576,-2.0576,-2.0576,-2.0576,-2.0566,-2.0557,-2.0537,-2.0527,-2.0371,-1.9746,-1.9268,-1.8896,-1.8672,-1.8545,-1.8535,-1.8545,-1.8633,-1.8516,-1.8271,-1.8223,-1.8203,-1.8193,-1.8184,-1.8135,-2.3791,-2.3941,-2.3565,-2.3314,-2.3017,-2.2261,-2.1889,-2.1765,-2.0564,-1.9974,-1.9807,-1.9213,-1.8883,-1.8794,-1.838,-1.8203,-1.8223,-1.8369,-1.8633,-1.8975,-1.8916,-1.9102,-1.9414,-1.9365,-1.9277,-1.9355,-1.9717,-1.9525,-1.9068,-1.9316,-1.8957,-1.8026,-1.7556,-1.7212,-1.6607,-1.6103,-1.5708,-1.5528,-1.4623,-1.4171,-1.4099,-1.3528,-1.3469,-1.3825,-1.3469,-1.3665,-1.4522,-1.495,-1.5163,-1.5163,-1.4948,-1.4552,-1.404,-1.4123,-1.438,-1.4647,-1.5248,-1.572,-1.6009,-1.6088,-1.6158,-1.6228,-1.6645,-1.7047,-1.7344,-1.8027,-1.8531,-1.8835,-1.9463,-1.9912,-1.998,-2.0303,-2.0518,-2.0566,-2.0576,-2.0576,-2.0576,-2.0576,-2.0576,-2.0576,-2.0576,-2.0576,-2.0576,-2.0576,-2.0576,-2.0576,-2.0576,-2.0576,-2.0576,-2.0576,-2.0576,-2.0576,-2.0576,-2.0469,-2.0361,-2.0283,-2.0244,-2.0264,-2.0303,-2.0107,-1.9521,-1.9121,-1.874,-1.8428,-1.8301,-1.8242,-1.8252,-1.8213,-1.8154,-1.8105,-1.8096,-1.8066,-1.8018,-1.8008,-1.8008,-2.3351,-2.3627,-2.3288,-2.2884,-2.2531,-2.1614,-2.1054,-2.0737,-1.924,-1.8701,-1.87,-1.8279,-1.8008,-1.8008,-1.8008,-1.8008,-1.8008,-1.8008,-1.8242,-1.8623,-1.8838,-1.9111,-1.9512,-1.9697,-1.9766,-1.972,-1.964,-1.9217,-1.8596,-1.8338,-1.7827,-1.679,-1.6452,-1.6116,-1.5748,-1.5194,-1.482,-1.4683,-1.3865,-1.3343,-1.3248,-1.2647,-1.2592,-1.3018,-1.2592,-1.2659,-1.3237,-1.3803,-1.4091,-1.4068,-1.4055,-1.3762,-1.3316,-1.3286,-1.346,-1.3937,-1.4377,-1.4807,-1.5092,-1.5305,-1.5163,-1.5305,-1.572,-1.6079,-1.6263,-1.6988,-1.737,-1.7915,-1.8408,-1.9065,-1.9409,-1.9814,-2.0117,-2.0322,-2.0478,-2.0557,-2.0576,-2.0576,-2.0576,-2.0576,-2.0576,-2.0576,-2.0576,-2.0576,-2.0576,-2.0576,-2.0576,-2.0576,-2.0576,-2.0576,-2.0508,-2.041,-2.0283,-2.0176,-2.0059,-1.999,-1.9932,-1.9961,-2.001,-1.9658,-1.918,-1.8984,-1.8691,-1.8311,-1.8105,-1.8115,-1.8115,-1.8086,-1.8047,-1.8008,-1.8008,-1.8008,-1.8008,-1.8008,-1.8008,-2.3078,-2.3125,-2.3125,-2.2641,-2.1818,-2.0653,-1.9905,-1.9259,-1.8081,-1.7829,-1.8027,-1.8008,-1.8008,-1.8018,-1.8076,-1.8086,-1.8027,-1.8193,-1.8291,-1.8652,-1.9053,-1.9541,-1.9941,-2.0264,-2.04,-2.0382,-1.969,-1.9079,-1.8567,-1.7874,-1.6683,-1.5696,-1.5508,-1.5123,-1.4462,-1.385,-1.373,-1.3716,-1.3196,-1.2919,-1.2864,-1.2567,-1.2318,-1.2385,-1.2305,-1.2372,-1.2445,-1.2592,-1.2445,-1.2345,-1.2332,-1.2239,-1.1999,-1.1942,-1.2515,-1.343,-1.3556,-1.4027,-1.4736,-1.4736,-1.4736,-1.4736,-1.495,-1.5092,-1.518,-1.5417,-1.5947,-1.6526,-1.7009,-1.7542,-1.8294,-1.8772,-1.9199,-1.9628,-2.013,-2.0527,-2.0518,-2.0527,-2.0537,-2.0508,-2.0527,-2.0547,-2.0527,-2.0537,-2.0478,-2.0498,-2.0498,-2.0537,-2.0361,-2.0264,-2.0254,-2.0107,-1.9912,-1.9824,-1.9707,-1.9668,-1.959,-1.9341,-1.9335,-1.902,-1.8835,-1.8669,-1.8584,-1.8213,-1.8008,-1.8008,-1.8008,-1.8008,-1.8008,-1.8008,-1.8008,-1.8008,-1.8008,-1.8008,-1.8008,-2.3125,-2.3125,-2.3125,-2.2628,-2.1803,-2.0814,-1.9986,-1.9212,-1.8265,-1.7842,-1.7998,-1.8008,-1.8008,-1.8037,-1.832,-1.8311,-1.8193,-1.8633,-1.8584,-1.8398,-1.9307,-1.9961,-2.0322,-2.0498,-2.0566,-2.0489,-2.0001,-1.9362,-1.7827,-1.7334,-1.6281,-1.458,-1.4566,-1.4412,-1.4048,-1.3801,-1.3661,-1.3519,-1.33,-1.2973,-1.2862,-1.2755,-1.2518,-1.2318,-1.2305,-1.2305,-1.2305,-1.2305,-1.2305,-1.2285,-1.2024,-1.187,-1.1884,-1.1884,-1.208,-1.2377,-1.2629,-1.2732,-1.3018,-1.3164,-1.3091,-1.3164,-1.384,-1.4099,-1.4099,-1.4816,-1.5234,-1.5689,-1.6057,-1.6521,-1.6888,-1.7316,-1.7558,-1.7614,-1.9142,-2.0256,-2.0081,-2.0371,-2.0459,-2.0166,-2.0022,-2.0052,-2.0188,-2.0101,-1.9926,-1.9965,-2.0081,-2.0139,-1.9592,-1.963,-1.9459,-1.949,-1.9453,-1.9414,-1.9365,-1.9336,-1.9127,-1.8691,-1.85,-1.8203,-1.8232,-1.8358,-1.8183,-1.8018,-1.8008,-1.8008,-1.8008,-1.8008,-1.8008,-1.8008,-1.8008,-1.8008,-1.8008,-1.8008,-1.794,-2.3,-2.2786,-2.2786,-2.2161,-2.1127,-2.0129,-1.9397,-1.8802,-1.7925,-1.7705,-1.7939,-1.8008,-1.8008,-1.8037,-1.8262,-1.8242,-1.8125,-1.8701,-1.8613,-1.8291,-1.9121,-1.9932,-2.042,-2.0566,-2.0401,-1.9835,-1.9432,-1.8221,-1.6764,-1.6198,-1.5228,-1.4419,-1.4088,-1.4088,-1.4082,-1.3935,-1.3828,-1.3781,-1.3547,-1.3293,-1.314,-1.2943,-1.2748,-1.2478,-1.2385,-1.2305,-1.2305,-1.2305,-1.2305,-1.2271,-1.2144,-1.2051,-1.2051,-1.2051,-1.2051,-1.2058,-1.2218,-1.2305,-1.2305,-1.2305,-1.2305,-1.2405,-1.2977,-1.3131,-1.3271,-1.3881,-1.4431,-1.4846,-1.5265,-1.5639,-1.6133,-1.655,-1.6718,-1.6884,-1.802,-1.8907,-1.866,-1.8687,-1.881,-1.8623,-1.8522,-1.8543,-1.8819,-1.8607,-1.8506,-1.8421,-1.8388,-1.8355,-1.8163,-1.8395,-1.8434,-1.8276,-1.808,-1.7951,-1.7975,-1.799,-1.8171,-1.7845,-1.7816,-1.7497,-1.7413,-1.7681,-1.8037,-1.8018,-1.8008,-1.794,-1.7862,-1.793,-1.8008,-1.8008,-1.8008,-1.794,-1.7862,-1.7579,-1.7579,-2.2702,-2.2309,-2.2259,-2.1448,-2.018,-1.9034,-1.8665,-1.8333,-1.7382,-1.7334,-1.7881,-1.8008,-1.8008,-1.8008,-1.8164,-1.8105,-1.8115,-1.8633,-1.8594,-1.8643,-1.916,-1.9778,-2.0187,-2.0245,-1.9844,-1.9116,-1.79,-1.6927,-1.5951,-1.4894,-1.4334,-1.4173,-1.4088,-1.4088,-1.4082,-1.4062,-1.4082,-1.4015,-1.3821,-1.3634,-1.3487,-1.3153,-1.2886,-1.2755,-1.2512,-1.2405,-1.2385,-1.2371,-1.2351,-1.2305,-1.2305,-1.2278,-1.2285,-1.2298,-1.2291,-1.2271,-1.2285,-1.2305,-1.2305,-1.2305,-1.2338,-1.2405,-1.2681,-1.2714,-1.2662,-1.3058,-1.3523,-1.3976,-1.43,-1.4802,-1.5389,-1.6094,-1.6103,-1.596,-1.6385,-1.648,-1.6501,-1.6418,-1.6488,-1.6738,-1.6572,-1.6363,-1.6363,-1.6338,-1.6388,-1.7182,-1.7119,-1.7142,-1.6919,-1.6976,-1.6772,-1.6375,-1.6246,-1.6177,-1.6315,-1.6517,-1.679,-1.6824,-1.7009,-1.6869,-1.6439,-1.6769,-1.7608,-1.8008,-1.8008,-1.7862,-1.7569,-1.7647,-1.7716,-1.7364,-1.6941,-1.7226,-1.751,-1.7079,-1.6862,-2.2422,-2.2272,-2.1832,-2.1117,-2.0157,-1.9306,-1.8807,-1.8373,-1.7581,-1.75,-1.792,-1.7998,-1.8008,-1.8018,-1.8291,-1.8506,-1.8486,-1.8877,-1.9238,-1.9551,-1.9639,-1.9507,-1.9437,-1.9404,-1.9186,-1.863,-1.7827,-1.6764,-1.5786,-1.5213,-1.4901,-1.4173,-1.4088,-1.4088,-1.4088,-1.4088,-1.4088,-1.4075,-1.4008,-1.3861,-1.3605,-1.3507,-1.3186,-1.2909,-1.2755,-1.2735,-1.2652,-1.2728,-1.2545,-1.2371,-1.2305,-1.2305,-1.2305,-1.2305,-1.2305,-1.2305,-1.2305,-1.2305,-1.2305,-1.2318,-1.2398,-1.2579,-1.2692,-1.2802,-1.2679,-1.2779,-1.3,-1.3175,-1.3324,-1.385,-1.4321,-1.4536,-1.4614,-1.4431,-1.4273,-1.4159,-1.4281,-1.5435,-1.5961,-1.5988,-1.5898,-1.6046,-1.6213,-1.5823,-1.5782,-1.5931,-1.5947,-1.5972,-1.5815,-1.5569,-1.521,-1.4824,-1.4856,-1.4897,-1.5358,-1.5658,-1.5869,-1.6088,-1.6228,-1.6298,-1.5869,-1.6079,-1.701,-1.7647,-1.8008,-1.7647,-1.7001,-1.6853,-1.6784,-1.6367,-1.5948,-1.6158,-1.6298,-1.6158,-1.5939,-2.1782,-2.1518,-2.123,-2.0477,-1.9495,-1.8953,-1.8398,-1.7926,-1.7541,-1.751,-1.7734,-1.791,-1.8008,-1.8018,-1.8242,-1.833,-1.8437,-1.8789,-1.9209,-1.9492,-1.9609,-1.9533,-1.9158,-1.8381,-1.7775,-1.7446,-1.6846,-1.5951,-1.522,-1.4977,-1.4566,-1.4173,-1.4088,-1.4088,-1.4088,-1.4088,-1.4088,-1.4088,-1.4088,-1.4001,-1.3868,-1.3701,-1.346,-1.3013,-1.2923,-1.2876,-1.2953,-1.2652,-1.2552,-1.2478,-1.2385,-1.2311,-1.2305,-1.2305,-1.2305,-1.2305,-1.2305,-1.2305,-1.2305,-1.2311,-1.2365,-1.2545,-1.2779,-1.2839,-1.2899,-1.2973,-1.308,-1.3066,-1.324,-1.3534,-1.3814,-1.3955,-1.3821,-1.3527,-1.3287,-1.3166,-1.3246,-1.391,-1.4494,-1.4387,-1.4186,-1.4163,-1.4245,-1.4533,-1.4347,-1.4044,-1.4037,-1.4052,-1.3955,-1.3726,-1.377,-1.3609,-1.3637,-1.3905,-1.441,-1.4807,-1.5163,-1.5376,-1.5517,-1.5517,-1.5305,-1.5799,-1.6437,-1.6793,-1.6941,-1.6576,-1.6009,-1.593,-1.586,-1.5658,-1.5446,-1.5234,-1.5234,-1.5376,-1.5092,-2.1091,-2.0706,-2.0577,-1.992,-1.8875,-1.8418,-1.7937,-1.7459,-1.7216,-1.7217,-1.7441,-1.7773,-1.79,-1.7998,-1.8018,-1.8018,-1.8164,-1.8584,-1.9072,-1.915,-1.9316,-1.93,-1.8938,-1.7743,-1.6557,-1.5688,-1.5516,-1.4887,-1.4412,-1.4088,-1.425,-1.4088,-1.4088,-1.4088,-1.4088,-1.4088,-1.4088,-1.4088,-1.4088,-1.4082,-1.4035,-1.3848,-1.3607,-1.3407,-1.312,-1.308,-1.3153,-1.2919,-1.2659,-1.2856,-1.2525,-1.2398,-1.2358,-1.2311,-1.2305,-1.2305,-1.2305,-1.2305,-1.2305,-1.2311,-1.2331,-1.2371,-1.2799,-1.2973,-1.2919,-1.3066,-1.3166,-1.324,-1.332,-1.3614,-1.3968,-1.3975,-1.3895,-1.3701,-1.3427,-1.3106,-1.2832,-1.2525,-1.2702,-1.2784,-1.3007,-1.31,-1.2917,-1.2896,-1.2553,-1.2305,-1.2305,-1.2305,-1.2305,-1.2378,-1.2686,-1.2833,-1.2959,-1.3018,-1.3448,-1.3738,-1.4099,-1.4307,-1.4522,-1.4522,-1.445,-1.4522,-1.4871,-1.5446,-1.5517,-1.5234,-1.5092,-1.495,-1.495,-1.495,-1.4593,-1.4091,-1.4307,-1.4657,-1.4235,-2.0752,-2.068,-2.0137,-1.977,-1.9448,-1.8282,-1.7856,-1.7901,-1.6799,-1.6782,-1.7334,-1.7461,-1.7686,-1.792,-1.7998,-1.8008,-1.8164,-1.8662,-1.8945,-1.8867,-1.9043,-1.9033,-1.8183,-1.7218,-1.6166,-1.5279,-1.4745,-1.4328,-1.4166,-1.4088,-1.4088,-1.4088,-1.4088,-1.4088,-1.4088,-1.4088,-1.4088,-1.4088,-1.4088,-1.4088,-1.4062,-1.4015,-1.3941,-1.3821,-1.354,-1.3487,-1.3514,-1.346,-1.3333,-1.3133,-1.2916,-1.2761,-1.2572,-1.2412,-1.2318,-1.2305,-1.2305,-1.2305,-1.2305,-1.2305,-1.2438,-1.2619,-1.2792,-1.2852,-1.2889,-1.2943,-1.3006,-1.3026,-1.316,-1.3414,-1.3681,-1.3794,-1.3848,-1.3788,-1.3534,-1.316,-1.2986,-1.2659,-1.2331,-1.2418,-1.2351,-1.2305,-1.2305,-1.2305,-1.2305,-1.2305,-1.2305,-1.2305,-1.2305,-1.2305,-1.2385,-1.2459,-1.2378,-1.2445,-1.2512,-1.2666,-1.2879,-1.3025,-1.3164,-1.3164,-1.3025,-1.2806,-1.3091,-1.4019,-1.4522,-1.4593,-1.4378,-1.4027,-1.3738,-1.3593,-1.323,-1.2945,-1.3237,-1.3593,-1.331,-2.0225,-2.0188,-1.9911,-1.9371,-1.8655,-1.8191,-1.7483,-1.6821,-1.6496,-1.6641,-1.6943,-1.707,-1.7422,-1.7812,-1.7754,-1.7793,-1.8154,-1.8613,-1.8691,-1.8486,-1.866,-1.873,-1.7889,-1.6935,-1.6358,-1.5648,-1.4814,-1.4088,-1.4088,-1.4088,-1.4088,-1.4088,-1.4088,-1.4088,-1.4088,-1.4088,-1.4088,-1.4088,-1.4088,-1.4088,-1.4088,-1.4088,-1.4088,-1.4008,-1.3841,-1.3734,-1.3774,-1.3327,-1.3206,-1.31,-1.2766,-1.2572,-1.2492,-1.2418,-1.2311,-1.2305,-1.2305,-1.2305,-1.2305,-1.2311,-1.2371,-1.2492,-1.2652,-1.2832,-1.2939,-1.3013,-1.2973,-1.3019,-1.308,-1.3327,-1.3539,-1.3754,-1.3788,-1.3607,-1.3373,-1.3113,-1.2792,-1.2492,-1.2378,-1.2318,-1.2305,-1.2305,-1.2305,-1.2305,-1.2305,-1.2305,-1.2305,-1.2305,-1.2305,-1.2305,-1.2305,-1.2305,-1.2305,-1.2305,-1.2298,-1.2305,-1.2305,-1.2305,-1.2305,-1.2305,-1.2305,-1.2378,-1.2592,-1.3157,-1.3448,-1.3738,-1.3382,-1.3025,-1.2659,-1.2445,-1.2519,-1.2592,-1.2452,-1.2305,-1.2305,-1.9798,-1.9798,-1.9643,-1.8874,-1.7909,-1.7867,-1.7094,-1.5948,-1.6174,-1.6465,-1.6611,-1.6728,-1.7178,-1.7666,-1.7715,-1.7725,-1.8037,-1.8389,-1.8301,-1.8184,-1.828,-1.8366,-1.7744,-1.6915,-1.6,-1.563,-1.4807,-1.4082,-1.4088,-1.4088,-1.4088,-1.4088,-1.4088,-1.4088,-1.4088,-1.4088,-1.4088,-1.4088,-1.4088,-1.4088,-1.4088,-1.4088,-1.4088,-1.4082,-1.3854,-1.3854,-1.3955,-1.3547,-1.3333,-1.3267,-1.2986,-1.2599,-1.2498,-1.2425,-1.2365,-1.2318,-1.2305,-1.2305,-1.2305,-1.2305,-1.2351,-1.2492,-1.2632,-1.2886,-1.31,-1.316,-1.318,-1.3206,-1.3213,-1.3333,-1.3607,-1.3841,-1.3748,-1.3514,-1.3333,-1.312,-1.2705,-1.2445,-1.2412,-1.2365,-1.2325,-1.2305,-1.2305,-1.2305,-1.2305,-1.2305,-1.2305,-1.2305,-1.2305,-1.2305,-1.2305,-1.2305,-1.2305,-1.2305,-1.2305,-1.2305,-1.2305,-1.2305,-1.2305,-1.2305,-1.2305,-1.2305,-1.2519,-1.2659,-1.2659,-1.2806,-1.2378,-1.2305,-1.2305,-1.2378,-1.2305,-1.2305,-1.2305,-1.2305,-1.2305,-1.9798,-1.9734,-1.9097,-1.8715,-1.8352,-1.7278,-1.6612,-1.6306,-1.5811,-1.5801,-1.6221,-1.6543,-1.6943,-1.7402,-1.7793,-1.792,-1.8027,-1.8076,-1.8105,-1.8037,-1.7968,-1.7603,-1.6951,-1.6385,-1.5565,-1.5222,-1.4503,-1.4132,-1.4088,-1.4088,-1.4088,-1.4088,-1.4088,-1.4088,-1.4088,-1.4088,-1.4088,-1.4088,-1.4088,-1.4082,-1.4068,-1.4068,-1.4082,-1.4048,-1.4041,-1.4021,-1.4068,-1.3814,-1.3801,-1.3808,-1.3601,-1.3333,-1.3126,-1.2826,-1.2565,-1.2392,-1.2305,-1.2305,-1.2305,-1.2305,-1.2418,-1.2579,-1.2719,-1.2906,-1.314,-1.3227,-1.3213,-1.3206,-1.3213,-1.334,-1.3574,-1.3681,-1.3647,-1.3594,-1.348,-1.322,-1.2832,-1.2692,-1.2632,-1.2458,-1.2432,-1.2351,-1.2305,-1.2305,-1.2305,-1.2305,-1.2305,-1.2305,-1.2305,-1.2305,-1.2305,-1.2305,-1.2305,-1.2305,-1.2305,-1.2305,-1.2305,-1.2305,-1.2305,-1.2305,-1.2305,-1.2305,-1.2305,-1.2378,-1.2305,-1.2305,-1.2305,-1.2305,-1.2305,-1.2305,-1.2305,-1.2305,-1.2305,-1.2305,-1.2305,-1.9798,-1.9747,-1.898,-1.8447,-1.795,-1.6922,-1.6265,-1.5864,-1.5526,-1.5654,-1.5977,-1.5967,-1.6348,-1.7021,-1.7461,-1.7783,-1.7959,-1.8008,-1.8008,-1.7803,-1.7529,-1.706,-1.666,-1.5756,-1.4917,-1.4765,-1.4385,-1.4146,-1.4088,-1.4088,-1.4088,-1.4088,-1.4088,-1.4088,-1.4088,-1.4088,-1.4088,-1.4088,-1.4075,-1.3995,-1.3921,-1.3975,-1.4008,-1.3861,-1.4001,-1.4075,-1.4055,-1.3901,-1.3841,-1.3748,-1.342,-1.3093,-1.2906,-1.2665,-1.2412,-1.2345,-1.2305,-1.2305,-1.2305,-1.2311,-1.2485,-1.2741,-1.2869,-1.2959,-1.3273,-1.3327,-1.332,-1.3447,-1.33,-1.338,-1.3587,-1.3641,-1.3647,-1.3621,-1.3534,-1.3333,-1.3086,-1.306,-1.2939,-1.2732,-1.2518,-1.2412,-1.2325,-1.2305,-1.2305,-1.2305,-1.2305,-1.2305,-1.2305,-1.2305,-1.2305,-1.2305,-1.2305,-1.2305,-1.2305,-1.2305,-1.2305,-1.2305,-1.2305,-1.2305,-1.2305,-1.2305,-1.2305,-1.2305,-1.2305,-1.2305,-1.2305,-1.2305,-1.2305,-1.2305,-1.2305,-1.2305,-1.2305,-1.2305,-1.2305,-1.9798,-1.9695,-1.8821,-1.8124,-1.7512,-1.6641,-1.5921,-1.5468,-1.541,-1.5596,-1.5781,-1.5742,-1.6103,-1.6797,-1.7285,-1.7637,-1.7998,-1.8008,-1.8008,-1.7735,-1.7209,-1.6759,-1.6198,-1.5294,-1.4756,-1.4757,-1.4331,-1.4068,-1.4088,-1.4088,-1.4088,-1.4088,-1.4088,-1.4088,-1.4088,-1.4088,-1.4088,-1.4088,-1.4088,-1.3941,-1.3774,-1.3955,-1.3881,-1.3834,-1.3901,-1.4088,-1.4048,-1.3915,-1.3788,-1.3701,-1.3367,-1.3106,-1.2926,-1.2679,-1.2438,-1.2351,-1.2305,-1.2305,-1.2338,-1.2398,-1.2565,-1.2869,-1.3144,-1.3373,-1.3627,-1.354,-1.348,-1.3741,-1.3621,-1.3614,-1.3674,-1.3714,-1.3647,-1.3554,-1.3414,-1.3293,-1.3193,-1.3113,-1.2986,-1.2835,-1.2559,-1.2438,-1.2358,-1.2318,-1.2305,-1.2305,-1.2305,-1.2305,-1.2305,-1.2305,-1.2305,-1.2305,-1.2305,-1.2305,-1.2305,-1.2305,-1.2305,-1.2305,-1.2305,-1.2305,-1.2305,-1.2305,-1.2305,-1.2305,-1.2305,-1.2305,-1.2305,-1.2305,-1.2305,-1.2305,-1.2305,-1.2305,-1.2305,-1.2305,-1.2305,-1.9798,-1.9683,-1.8274,-1.7677,-1.7468,-1.6073,-1.5468,-1.542,-1.542,-1.5439,-1.5566,-1.583,-1.6387,-1.7109,-1.7295,-1.7568,-1.8008,-1.8008,-1.8008,-1.7781,-1.73,-1.6604,-1.5947,-1.5265,-1.4633,-1.4036,-1.3955,-1.4075,-1.4088,-1.4088,-1.4088,-1.4088,-1.4088,-1.4088,-1.4088,-1.4088,-1.4088,-1.4088,-1.4088,-1.3935,-1.3808,-1.3881,-1.3915,-1.3754,-1.3895,-1.4088,-1.4075,-1.3981,-1.3895,-1.3874,-1.3561,-1.326,-1.3006,-1.2726,-1.2485,-1.2345,-1.2305,-1.2305,-1.2331,-1.2532,-1.2859,-1.3213,-1.3567,-1.3841,-1.3948,-1.4008,-1.4021,-1.3975,-1.3841,-1.3901,-1.3901,-1.3834,-1.3674,-1.3654,-1.3547,-1.344,-1.33,-1.3093,-1.2953,-1.2829,-1.2674,-1.2485,-1.2365,-1.2318,-1.2305,-1.2305,-1.2305,-1.2305,-1.2305,-1.2305,-1.2305,-1.2305,-1.2305,-1.2305,-1.2305,-1.2305,-1.2305,-1.2305,-1.2305,-1.2305,-1.2305,-1.2305,-1.2305,-1.2305,-1.2305,-1.2305,-1.2305,-1.2305,-1.2305,-1.2305,-1.2305,-1.2305,-1.2305,-1.2305,-1.2305,-1.9522,-1.9695,-1.8232,-1.7578,-1.7468,-1.6016,-1.542,-1.542,-1.542,-1.542,-1.542,-1.5625,-1.6152,-1.6787,-1.7021,-1.7373,-1.7939,-1.8008,-1.8008,-1.7791,-1.7318,-1.6616,-1.5978,-1.542,-1.4756,-1.413,-1.4041,-1.4088,-1.4088,-1.4088,-1.4088,-1.4088,-1.4088,-1.4088,-1.4088,-1.4088,-1.4088,-1.4088,-1.4062,-1.3941,-1.3774,-1.3888,-1.3861,-1.344,-1.3667,-1.3694,-1.3601,-1.3734,-1.3687,-1.3581,-1.3454,-1.3227,-1.2973,-1.2665,-1.2458,-1.2325,-1.2311,-1.2305,-1.2365,-1.2599,-1.2953,-1.3454,-1.3834,-1.4088,-1.4068,-1.3941,-1.3961,-1.3955,-1.3948,-1.3935,-1.4028,-1.3841,-1.3681,-1.3761,-1.3714,-1.3567,-1.344,-1.3213,-1.3013,-1.2846,-1.2692,-1.2559,-1.2432,-1.2311,-1.2305,-1.2305,-1.2305,-1.2305,-1.2305,-1.2305,-1.2305,-1.2305,-1.2305,-1.2305,-1.2305,-1.2305,-1.2305,-1.2305,-1.2305,-1.2305,-1.2305,-1.2305,-1.2305,-1.2305,-1.2305,-1.2305,-1.2305,-1.2305,-1.2305,-1.2305,-1.2305,-1.2305,-1.2305,-1.2305,-1.2305,-1.9334,-1.9619,-1.8447,-1.7786,-1.7413,-1.6026,-1.542,-1.542,-1.542,-1.542,-1.542,-1.5449,-1.5811,-1.6396,-1.6719,-1.71,-1.7686,-1.792,-1.7988,-1.7868,-1.7555,-1.7028,-1.6403,-1.5763,-1.5174,-1.4545,-1.4173,-1.4088,-1.4088,-1.4088,-1.4088,-1.4088,-1.4088,-1.4088,-1.4088,-1.4088,-1.4088,-1.4088,-1.4062,-1.3941,-1.3728,-1.3901,-1.3895,-1.3487,-1.3687,-1.3674,-1.3561,-1.3594,-1.3514,-1.3327,-1.3133,-1.2973,-1.2732,-1.2505,-1.2338,-1.2311,-1.2305,-1.2305,-1.2392,-1.2705,-1.314,-1.3707,-1.3928,-1.4068,-1.4028,-1.3895,-1.3968,-1.4035,-1.3908,-1.3861,-1.4068,-1.3841,-1.3794,-1.3868,-1.3561,-1.3407,-1.348,-1.3353,-1.3153,-1.2959,-1.2792,-1.2612,-1.2445,-1.2331,-1.2338,-1.2331,-1.2305,-1.2305,-1.2305,-1.2305,-1.2305,-1.2305,-1.2305,-1.2305,-1.2305,-1.2305,-1.2305,-1.2305,-1.2305,-1.2305,-1.2305,-1.2305,-1.2305,-1.2305,-1.2305,-1.2305,-1.2305,-1.2305,-1.2305,-1.2305,-1.2305,-1.2305,-1.2305,-1.2305,-1.2305,-1.9309,-1.967,-1.898,-1.8232,-1.7468,-1.6026,-1.541,-1.542,-1.542,-1.542,-1.542,-1.542,-1.5664,-1.6133,-1.6494,-1.6953,-1.7451,-1.7803,-1.7969,-1.7879,-1.7881,-1.764,-1.7234,-1.6499,-1.5873,-1.5426,-1.4894,-1.4328,-1.4088,-1.4088,-1.4088,-1.4088,-1.4088,-1.4088,-1.4088,-1.4088,-1.4088,-1.4088,-1.4088,-1.3921,-1.3821,-1.3961,-1.3854,-1.3714,-1.3721,-1.3667,-1.346,-1.3414,-1.33,-1.306,-1.2906,-1.2862,-1.2735,-1.2438,-1.2325,-1.2351,-1.2318,-1.2318,-1.2371,-1.2893,-1.3407,-1.3895,-1.4062,-1.4082,-1.4088,-1.4055,-1.4028,-1.4082,-1.4035,-1.4035,-1.3988,-1.3881,-1.3935,-1.3861,-1.3567,-1.3407,-1.3487,-1.3287,-1.3039,-1.2926,-1.2806,-1.2652,-1.2478,-1.2351,-1.2371,-1.2358,-1.2318,-1.2305,-1.2305,-1.2305,-1.2305,-1.2305,-1.2305,-1.2305,-1.2305,-1.2305,-1.2305,-1.2305,-1.2305,-1.2305,-1.2305,-1.2305,-1.2305,-1.2305,-1.2305,-1.2305,-1.2305,-1.2305,-1.2305,-1.2305,-1.2305,-1.2305,-1.2305,-1.2305,-1.2305,-1.9007,-1.9734,-1.898,-1.8286,-1.7523,-1.6539,-1.5864,-1.5468,-1.542,-1.542,-1.542,-1.542,-1.5654,-1.6016,-1.6269,-1.6709,-1.7324,-1.7461,-1.7656,-1.8008,-1.8128,-1.7953,-1.7641,-1.7338,-1.6686,-1.589,-1.5213,-1.4573,-1.4088,-1.4088,-1.4088,-1.4088,-1.4088,-1.4088,-1.4088,-1.4088,-1.4088,-1.4088,-1.4082,-1.4035,-1.3955,-1.4015,-1.3955,-1.3674,-1.3634,-1.3467,-1.32,-1.3206,-1.3019,-1.2786,-1.2645,-1.2735,-1.2538,-1.2331,-1.2412,-1.2472,-1.2485,-1.2518,-1.2766,-1.3193,-1.3474,-1.3868,-1.4088,-1.4088,-1.4088,-1.4088,-1.4088,-1.4088,-1.4088,-1.4088,-1.4035,-1.4015,-1.4035,-1.3981,-1.3774,-1.3614,-1.3514,-1.3086,-1.2792,-1.2799,-1.2808,-1.2846,-1.2779,-1.2592,-1.2552,-1.2425,-1.2365,-1.2318,-1.2305,-1.2305,-1.2305,-1.2305,-1.2305,-1.2305,-1.2305,-1.2305,-1.2305,-1.2305,-1.2305,-1.2305,-1.2305,-1.2305,-1.2305,-1.2305,-1.2305,-1.2305,-1.2305,-1.2305,-1.2305,-1.2305,-1.2305,-1.2305,-1.2305,-1.2305,-1.2305,-1.8442,-1.9196,-1.8924,-1.8401,-1.7614,-1.6858,-1.6083,-1.5468,-1.542,-1.542,-1.542,-1.542,-1.5547,-1.585,-1.6211,-1.6475,-1.7178,-1.7519,-1.7666,-1.8057,-1.8377,-1.8333,-1.8165,-1.7778,-1.6959,-1.6079,-1.5335,-1.465,-1.4088,-1.4088,-1.4088,-1.4088,-1.4088,-1.4088,-1.4088,-1.4088,-1.4088,-1.4088,-1.4082,-1.4082,-1.4062,-1.4062,-1.4001,-1.3821,-1.3654,-1.3427,-1.314,-1.2926,-1.2759,-1.2585,-1.2505,-1.2572,-1.2445,-1.2398,-1.2532,-1.2685,-1.2806,-1.2899,-1.3227,-1.3353,-1.3654,-1.4021,-1.4075,-1.4088,-1.4088,-1.4088,-1.4088,-1.4088,-1.4088,-1.4088,-1.4088,-1.4088,-1.4068,-1.4015,-1.3941,-1.3774,-1.3427,-1.3006,-1.2739,-1.2739,-1.2786,-1.2926,-1.3026,-1.2913,-1.2772,-1.2592,-1.2412,-1.2365,-1.2311,-1.2305,-1.2305,-1.2305,-1.2305,-1.2305,-1.2305,-1.2305,-1.2305,-1.2305,-1.2305,-1.2305,-1.2305,-1.2305,-1.2305,-1.2305,-1.2305,-1.2305,-1.2305,-1.2305,-1.2305,-1.2305,-1.2305,-1.2305,-1.2305,-1.2305,-1.2305,-1.7714,-1.8242,-1.8781,-1.851,-1.7796,-1.6765,-1.6001,-1.541,-1.542,-1.542,-1.542,-1.542,-1.5459,-1.5605,-1.626,-1.665,-1.6855,-1.7519,-1.7822,-1.8057,-1.8359,-1.8424,-1.8178,-1.7676,-1.7166,-1.6269,-1.5509,-1.4977,-1.425,-1.4088,-1.4088,-1.4088,-1.4088,-1.4088,-1.4088,-1.4088,-1.4088,-1.4088,-1.4162,-1.4142,-1.4108,-1.4128,-1.4102,-1.3995,-1.3874,-1.3721,-1.3474,-1.3227,-1.2966,-1.2726,-1.2485,-1.2634,-1.2538,-1.2458,-1.2752,-1.3006,-1.3146,-1.332,-1.3514,-1.3574,-1.3748,-1.4028,-1.4082,-1.4088,-1.4088,-1.4088,-1.4088,-1.4088,-1.4088,-1.4088,-1.4088,-1.4088,-1.4082,-1.4048,-1.4021,-1.3754,-1.3394,-1.3073,-1.2812,-1.2746,-1.2786,-1.2879,-1.2953,-1.2899,-1.2933,-1.2665,-1.2492,-1.2398,-1.2351,-1.2305,-1.2305,-1.2305,-1.2305,-1.2305,-1.2305,-1.2305,-1.2305,-1.2305,-1.2305,-1.2305,-1.2305,-1.2305,-1.2305,-1.2305,-1.2305,-1.2305,-1.2305,-1.2305,-1.2305,-1.2305,-1.2305,-1.2305,-1.2305,-1.2305,-1.2305,-1.7702,-1.8216,-1.838,-1.8019,-1.7208,-1.6038,-1.5446,-1.5429,-1.542,-1.542,-1.542,-1.542,-1.542,-1.5459,-1.5693,-1.6191,-1.6621,-1.7041,-1.751,-1.7852,-1.8164,-1.8379,-1.8366,-1.8211,-1.7734,-1.6979,-1.621,-1.5228,-1.4419,-1.4173,-1.4088,-1.4088,-1.4088,-1.4088,-1.4088,-1.4088,-1.4088,-1.4128,-1.4235,-1.4202,-1.4188,-1.4235,-1.4202,-1.4115,-1.3928,-1.3781,-1.3601,-1.32,-1.2926,-1.2835,-1.2472,-1.2465,-1.2768,-1.2748,-1.2916,-1.3126,-1.3227,-1.332,-1.3581,-1.3647,-1.3781,-1.4015,-1.4082,-1.4088,-1.4088,-1.4075,-1.4068,-1.4041,-1.4068,-1.4075,-1.4055,-1.4048,-1.4068,-1.4068,-1.4001,-1.3768,-1.342,-1.3133,-1.2872,-1.2685,-1.2732,-1.2846,-1.2906,-1.31,-1.3093,-1.2786,-1.2559,-1.2452,-1.2371,-1.2325,-1.2305,-1.2305,-1.2305,-1.2305,-1.2305,-1.2305,-1.2305,-1.2305,-1.2305,-1.2305,-1.2305,-1.2305,-1.2305,-1.2305,-1.2305,-1.2305,-1.2305,-1.2305,-1.2305,-1.2305,-1.2305,-1.2305,-1.2305,-1.2305,-1.2305,-1.7237,-1.7551,-1.779,-1.7446,-1.6654,-1.5618,-1.5093,-1.4939,-1.5088,-1.5234,-1.541,-1.542,-1.542,-1.5459,-1.5654,-1.5996,-1.6455,-1.6943,-1.7353,-1.7607,-1.7939,-1.8135,-1.8346,-1.8143,-1.7548,-1.7071,-1.6316,-1.5311,-1.4664,-1.4166,-1.4088,-1.4088,-1.4088,-1.4088,-1.4088,-1.4088,-1.4088,-1.4135,-1.4195,-1.4208,-1.4242,-1.4269,-1.4188,-1.4102,-1.3874,-1.3788,-1.3559,-1.32,-1.308,-1.2959,-1.2705,-1.2812,-1.3093,-1.3213,-1.31,-1.3367,-1.3514,-1.3554,-1.3681,-1.3788,-1.3915,-1.4028,-1.4075,-1.4008,-1.3995,-1.3988,-1.3948,-1.3921,-1.4001,-1.4055,-1.4028,-1.4001,-1.4048,-1.4082,-1.3935,-1.3788,-1.3494,-1.3193,-1.2933,-1.2679,-1.2692,-1.2819,-1.2986,-1.32,-1.316,-1.2692,-1.2452,-1.2405,-1.2351,-1.2318,-1.2305,-1.2305,-1.2305,-1.2305,-1.2305,-1.2305,-1.2305,-1.2305,-1.2305,-1.2305,-1.2305,-1.2305,-1.2305,-1.2305,-1.2305,-1.2305,-1.2305,-1.2305,-1.2305,-1.2305,-1.2231,-1.2224,-1.2231,-1.2305,-1.2305,-1.6547,-1.6554,-1.7042,-1.6786,-1.602,-1.5271,-1.4676,-1.4121,-1.4492,-1.4932,-1.5264,-1.5352,-1.5352,-1.5449,-1.5684,-1.5977,-1.6416,-1.6894,-1.7285,-1.7441,-1.7852,-1.8076,-1.7716,-1.6998,-1.7204,-1.6706,-1.6055,-1.5374,-1.513,-1.4657,-1.4088,-1.4088,-1.4088,-1.4088,-1.4088,-1.4088,-1.4088,-1.4102,-1.4122,-1.4122,-1.4128,-1.4115,-1.4115,-1.4095,-1.4035,-1.3968,-1.3761,-1.3526,-1.352,-1.3333,-1.3227,-1.33,-1.354,-1.3721,-1.3581,-1.3574,-1.3721,-1.3774,-1.3808,-1.3908,-1.4001,-1.4068,-1.4055,-1.3908,-1.3848,-1.3874,-1.3841,-1.3801,-1.3861,-1.3955,-1.3955,-1.4015,-1.4068,-1.4088,-1.4008,-1.3901,-1.3734,-1.3353,-1.2926,-1.2712,-1.2728,-1.2746,-1.2645,-1.2812,-1.2919,-1.2492,-1.2345,-1.2331,-1.2325,-1.2311,-1.2305,-1.2305,-1.2305,-1.2305,-1.2305,-1.2305,-1.2305,-1.2305,-1.2231,-1.2305,-1.2305,-1.2305,-1.2305,-1.2305,-1.2305,-1.2305,-1.2305,-1.2305,-1.2231,-1.2224,-1.2224,-1.2144,-1.2077,-1.1929,-1.2157,-1.6534,-1.6491,-1.6154,-1.5646,-1.4998,-1.4382,-1.394,-1.3652,-1.375,-1.4248,-1.4834,-1.4961,-1.5117,-1.5381,-1.5527,-1.585,-1.6484,-1.6689,-1.7256,-1.7588,-1.791,-1.7969,-1.8018,-1.7617,-1.7313,-1.6607,-1.5976,-1.5353,-1.4699,-1.425,-1.4088,-1.4088,-1.4088,-1.4088,-1.4088,-1.4088,-1.4088,-1.4088,-1.4088,-1.4088,-1.4095,-1.4262,-1.4349,-1.4182,-1.4062,-1.4041,-1.3874,-1.3741,-1.3654,-1.3439,-1.33,-1.338,-1.3621,-1.3721,-1.3808,-1.3848,-1.3801,-1.3848,-1.3921,-1.3995,-1.4068,-1.4008,-1.3928,-1.3768,-1.3694,-1.3734,-1.3734,-1.3694,-1.3741,-1.3848,-1.3921,-1.4008,-1.4088,-1.4088,-1.4082,-1.4015,-1.3858,-1.3292,-1.2797,-1.2729,-1.2692,-1.2552,-1.2357,-1.2425,-1.2492,-1.2458,-1.2358,-1.2311,-1.2318,-1.2305,-1.2305,-1.2305,-1.2305,-1.2305,-1.2305,-1.2231,-1.2224,-1.215,-1.207,-1.215,-1.2157,-1.1855,-1.1626,-1.2083,-1.2305,-1.1929,-1.1781,-1.2224,-1.215,-1.1848,-1.1545,-1.1242,-1.0944,-1.0726,-1.1323,-1.6534,-1.638,-1.5555,-1.5005,-1.456,-1.3789,-1.334,-1.3253,-1.3232,-1.3603,-1.4248,-1.46,-1.4922,-1.5195,-1.5312,-1.5586,-1.6201,-1.6357,-1.6758,-1.7266,-1.7754,-1.7861,-1.7949,-1.7989,-1.7542,-1.6867,-1.6229,-1.5479,-1.4314,-1.4088,-1.4088,-1.4088,-1.4088,-1.4088,-1.4088,-1.4088,-1.4088,-1.4088,-1.4088,-1.4088,-1.4088,-1.4215,-1.4275,-1.4108,-1.4082,-1.4041,-1.3928,-1.3801,-1.3781,-1.3734,-1.3607,-1.3681,-1.3841,-1.3888,-1.3861,-1.3854,-1.3841,-1.3848,-1.3935,-1.4015,-1.4075,-1.4008,-1.3968,-1.3874,-1.344,-1.3454,-1.3454,-1.346,-1.3834,-1.3981,-1.3881,-1.3921,-1.4041,-1.4088,-1.3964,-1.3827,-1.2933,-1.1927,-1.1823,-1.2041,-1.2023,-1.2074,-1.2052,-1.2398,-1.2445,-1.2405,-1.2311,-1.2305,-1.2305,-1.2077,-1.2157,-1.2083,-1.2003,-1.2157,-1.2305,-1.215,-1.1996,-1.1922,-1.162,-1.1248,-1.095,-1.0875,-1.0944,-1.1099,-1.1099,-1.0801,-1.0875,-1.1248,-1.1025,-1.0496,-1.0346,-1.0121,-0.982,-0.9593,-1.0045,-1.6534,-1.6337,-1.5299,-1.4744,-1.4525,-1.3515,-1.2978,-1.2949,-1.29,-1.3096,-1.3555,-1.4336,-1.4668,-1.4922,-1.5205,-1.5371,-1.5684,-1.6221,-1.6553,-1.6963,-1.7393,-1.7734,-1.7773,-1.7572,-1.7316,-1.6885,-1.6205,-1.5233,-1.4166,-1.4088,-1.4088,-1.4088,-1.4088,-1.4088,-1.4088,-1.4088,-1.4088,-1.4088,-1.4088,-1.4088,-1.4088,-1.4088,-1.4102,-1.4095,-1.4068,-1.3941,-1.3874,-1.3861,-1.3895,-1.3888,-1.3888,-1.3961,-1.4008,-1.4008,-1.3921,-1.3901,-1.3968,-1.3908,-1.3881,-1.3988,-1.4048,-1.4075,-1.4068,-1.3751,-1.3226,-1.2961,-1.2968,-1.3037,-1.34,-1.3697,-1.3598,-1.3548,-1.3665,-1.3535,-1.3412,-1.3355,-1.2153,-1.0996,-1.1289,-1.1591,-1.175,-1.179,-1.199,-1.233,-1.2365,-1.2318,-1.2305,-1.2305,-1.2231,-1.1848,-1.162,-1.1471,-1.1248,-1.1552,-1.1929,-1.1626,-1.1242,-1.0944,-1.0571,-1.0045,-0.975,-0.997,-0.997,-0.975,-0.9674,-0.975,-0.975,-0.9976,-0.9599,-0.9372,-0.9221,-0.9064,-0.8917,-0.8765,-0.8694,-1.6534,-1.6436,-1.5732,-1.5141,-1.4606,-1.392,-1.3324,-1.2929,-1.2891,-1.2939,-1.3252,-1.3867,-1.4424,-1.4805,-1.5225,-1.5527,-1.5908,-1.6318,-1.6816,-1.7295,-1.7539,-1.7822,-1.7802,-1.7422,-1.7117,-1.6505,-1.5797,-1.5072,-1.425,-1.4088,-1.4088,-1.4088,-1.4088,-1.4088,-1.4088,-1.4088,-1.4088,-1.4088,-1.4088,-1.4088,-1.4088,-1.4088,-1.4088,-1.4088,-1.4082,-1.4048,-1.4035,-1.4055,-1.4048,-1.4041,-1.4035,-1.4075,-1.4088,-1.4088,-1.4021,-1.3988,-1.4055,-1.4028,-1.4008,-1.3853,-1.3822,-1.3802,-1.3562,-1.2945,-1.2449,-1.2092,-1.1922,-1.1407,-1.1879,-1.2702,-1.2683,-1.2566,-1.2589,-1.2014,-1.1714,-1.2056,-1.1721,-1.1508,-1.1588,-1.1921,-1.228,-1.2207,-1.2182,-1.2371,-1.2331,-1.2305,-1.2305,-1.2231,-1.2003,-1.162,-1.1168,-1.0795,-1.0496,-1.064,-1.0864,-1.0346,-0.997,-0.975,-0.9448,-0.8993,-0.8917,-0.9372,-0.9296,-0.8694,-0.8922,-0.9145,-0.9069,-0.8694,-0.8917,-0.8765,-0.8313,-0.8089,-0.7936,-0.7783,-0.7706]},{"header":{"parameterUnit":"m.s-1","parameterCategory":1,"la1":31.0,"la2":29.5877,"lo1":-88.7671,"lo2":-86.6584,"dy":0.0162,"dx":0.0185,"nx":115,"ny":88,"refTime":"2023-07-11T18:00:00:Z","depth":0,"parameterNumber":3,"parameterNumberName":"V-component_of_WINDS"},"data":[0.0,0.0,0.0,0.0,0.0,0.0,0.0,0.0,0.0,0.0,0.0,0.0,0.0,0.0,0.0,0.0,0.0,0.0,0.0,0.0,0.0,0.0,0.0,0.0,0.0,0.0,0.0,0.0,0.0,0.0,0.0,0.0,0.0,0.0,0.0,0.0,0.0,0.0,0.0,0.0,0.0,0.0,0.0,0.0,0.0,0.0,0.0,0.0,0.0,0.0,0.0,0.0,0.0,0.0,0.0,0.0,0.0,0.0,0.0,0.0,0.0,0.0,0.0,0.0,0.0,0.0,0.0,0.0,0.0,0.0,0.0,0.0,0.0,0.0,0.0,0.0,0.0,0.0,0.0,0.0,0.0,0.0,0.0,0.0,0.0,0.0,0.0,0.0,0.0,0.0,0.0,0.0,0.0,0.0,0.0,0.0,0.0,0.0,0.0,0.0,0.0,0.0,0.0,0.0,0.0,0.0,0.0,0.0,0.0,0.0,0.0,0.0,0.0,0.0,0.0,0.0,0.0,0.0,0.0,0.0,0.0,0.0,0.0,0.0,0.0,0.0,0.0,0.0,0.0,0.0,0.0,0.0,0.0,0.0,0.0,0.0,0.0,0.0,0.0,0.0,0.0,0.0,0.0,0.0,0.0,0.0,0.0,0.0,0.0,0.0,0.0,0.0,0.0,0.0,0.0,0.0,0.0,0.0,0.0,0.0,0.0,0.0,0.0,0.0,0.0,0.0,0.0,0.0,0.0,0.0,0.0,0.0,0.0,0.0,0.0,0.0,0.0,0.0,0.0,0.0,0.0,0.0,0.0,0.0,0.0,0.0,0.0,0.0,0.0,0.0,0.0,0.0,0.0,0.0,0.0,0.0,0.0,0.0,0.0,0.0,0.0,0.0,0.0,0.0,0.0,0.0,0.0,0.0,0.0,0.0,0.0,0.0,0.0,0.0,0.0,0.0,0.0,0.0,0.0,0.0,0.0,0.0,0.0,0.0,0.0,0.0,0.0,0.0,0.0,0.0,0.0,0.0,0.0,0.0,0.0,0.0,0.0,0.0,0.0,0.0,0.0,0.0,0.0,0.0,0.0,0.0,0.0,0.0,0.0,0.0,0.0,0.0,0.0,0.0,0.0,0.0,0.0,0.0,0.0,0.0,0.0,0.0,0.0,0.0,0.0,0.0,0.0,0.0,0.0,0.0,0.0,0.0,0.0,0.0,0.0,0.0,0.0,0.0,0.0,0.0,0.0,0.0,0.0,0.0,0.0,0.0,0.0,0.0,0.0,0.0,0.0,0.0,0.0,0.0,0.0,0.0,0.0,0.0,0.0,0.0,0.0,0.0,0.0,0.0,0.0,0.0,0.0,0.0,0.0,0.0,0.0,0.0,0.0,0.0,0.0,0.0,0.0,0.0,0.0,0.0,0.0,0.0,0.0,0.0,0.0,0.0,0.0,0.0,0.0,0.0,0.0,0.0,0.0,0.0,0.0,0.0,0.0,0.0,0.0,0.0,0.0,0.0,0.0,0.0,0.0,0.0,0.0,0.0,0.0,0.0,0.0,0.0,0.0,0.0,0.0,0.0,0.0,0.0,0.0,0.0,0.0,0.0,0.0,0.0,0.0,0.0,0.0,0.0,0.0,0.0,0.0,0.0,0.0,0.0,0.0,0.0,0.0,0.0,0.0,0.0,0.0,0.0,0.0,0.0,0.0,0.0,0.0,0.0,0.0,0.0,0.0,0.0,0.0,0.0,0.0,0.0,0.0,0.0,0.0,0.0,0.0,0.0,0.0,0.0,0.0,0.0,0.0,0.0,0.0,0.0,0.0,0.0,0.0,0.0,0.0,0.0,0.0,0.0,0.0,0.0,0.0,0.0,0.0,0.0,0.0,0.0,0.0,0.0,0.0,0.0,0.0,0.0,0.0,0.0,0.0,0.0,0.0,0.0,0.0,0.0,0.0,0.0,0.0,0.0,0.0,0.0,0.0,0.0,0.0,0.0,0.0,0.0,0.0,0.0,0.0,0.0,0.0,0.0,0.0,0.0,0.0,0.0,0.0,0.0,0.0,0.0,0.0,0.0,0.0,0.0,0.0,0.0,0.0,0.0,0.0,0.0,0.0,0.0,0.0,0.0,0.0,0.0,0.0,0.0,0.0,0.0,0.0,0.0,0.0,0.0,0.0,0.0,0.0,0.0,0.0,0.0,0.0,0.0,0.0,0.0,0.0,0.0,0.0,0.0,0.0,0.0,0.0,0.0,0.0,0.0,0.0,0.0,0.0,0.0,0.0,0.0,0.0,0.0,0.0,0.0,0.0,0.0,0.0,0.0,0.0,0.0,0.0,0.0,0.0,0.0,0.0,0.0,0.0,0.0,0.0,0.0,0.0,0.0,0.0,0.0,0.0,0.0,0.0,0.0,0.0,0.0,0.0,0.0,0.0,0.0,0.0,0.0,0.0,0.0,0.0,0.0,0.0,0.0,0.0,0.0,0.0,0.0,0.0,0.0,0.0,0.0,0.0,0.0,0.0,0.0,0.0,0.0,0.0,0.0,0.0,0.0,0.0,0.0,0.0,0.0,0.0,0.0,0.0,0.0,0.0,0.0,0.0,0.0,0.0,0.0,0.0,0.0,0.0,0.0,0.0,0.0,0.0,0.0,0.0,0.0,0.0,0.0,0.0,0.0,0.0,0.0,0.0,0.0,0.0,0.0,0.0,0.0,0.0,0.0,0.0,0.0,0.0,0.0,0.0,0.0,0.0,0.0,0.0,0.0,0.0,0.0,0.0,0.0,0.0,0.0,0.0,0.0,0.0,0.0,0.0,0.0,0.0,0.0,0.0,0.0,0.0,0.0,0.0,0.0,0.0,0.0,0.0,0.0,0.0,0.0,0.0,0.0,0.0,0.0,0.0,0.0,0.0,0.0,0.0,0.0,0.0,0.0,0.0,0.0,0.0,0.0,0.0,0.0,0.0,0.0,0.0,0.0,0.0,0.0,0.0,0.0,0.0,0.0,0.0,0.0,0.0,0.0,0.0,0.0,0.0,0.0,0.0,0.0,0.0,0.0,0.0,0.0,0.0,0.0,0.0,0.0,0.0,0.0,0.0,0.0,0.0,0.0,0.0,0.0,0.0,0.0,0.0,0.0,0.0,0.0,0.0,0.0,0.0,0.0,0.0,0.0,0.0,0.0,0.0,0.0,0.0,0.0,0.0,0.0,0.0,0.0,0.0,0.0,0.0,0.0,0.0,0.0,0.0,0.0,0.0,0.0,0.0,0.0,0.0,0.0,0.0,0.0,0.0,0.0,0.0,0.0,0.0,0.0,0.0,0.0,0.0,0.0,0.0,0.0,0.0,0.0,0.0,0.0,0.0,0.0,0.0,0.0,0.0,0.0,0.0,0.0,0.0,0.0,0.0,0.0,0.0,0.0,0.0,0.0,0.0,0.0,0.0,0.0,0.0,0.0,0.0,0.0,0.0,0.0,0.0,0.0,0.0,0.0,0.0,0.0,0.0,0.0,0.0,0.0,0.0,0.0,0.0,0.0,0.0,0.0,0.0,0.0,0.0,0.0,0.0,0.0,0.0,0.0,0.0,0.0,0.0,0.0,0.0,0.0,0.0,0.0,0.0,0.0,0.0,0.0,0.0,0.0,0.0,0.0,0.0,0.0,0.0,0.0,0.0,0.0,0.0,0.0,0.0,0.0,0.0,0.0,0.0,0.0,0.0,0.0,0.0,0.0,0.0,0.0,0.0,0.0,0.0,0.0,0.0,0.0,0.0,0.0,0.0,0.0,0.0,0.0,0.0,0.0,0.0,0.0,0.0,0.0,0.0,0.0,0.0,0.0,0.0,0.0,0.0,0.0,0.0,0.0,0.0,0.0,0.0,0.0,0.0,0.0,0.0,0.0,0.0,0.0,0.0,0.0,0.0,0.0,0.0,0.0,0.0,0.0,0.0,0.0,0.0,0.0,0.0,0.0,0.0,0.0,0.0,0.0,0.0,0.0,0.0,0.0,0.0,0.0,0.0,0.0,0.0,0.0,0.0,0.0,0.0,0.0,0.0,0.0,0.0,0.0,0.0,0.0,0.0,0.0,0.0,0.0,0.0,0.0,0.0,0.0,0.0,0.0,0.0,0.0,0.0,0.0,0.0,0.0,0.0,0.0,0.0,0.0,0.0,0.0,0.0,0.0,0.0,0.0,0.0,0.0,0.0,0.0,0.0,0.0,0.0,0.0,0.0,0.0,0.0,0.0,0.0,0.0,0.0,0.0,0.0,0.0,0.0,0.0,-2.4687,0.0,0.0,0.0,0.0,0.0,0.0,0.0,0.0,0.0,0.0,0.0,0.0,0.0,0.0,0.0,0.0,0.0,0.0,0.0,0.0,0.0,0.0,0.0,0.0,0.0,0.0,0.0,0.0,0.0,0.0,0.0,0.0,0.0,0.0,0.0,0.0,0.0,0.0,0.0,0.0,0.0,0.0,0.0,0.0,0.0,0.0,0.0,0.0,0.0,0.0,0.0,0.0,0.0,0.0,0.0,0.0,0.0,0.0,0.0,0.0,0.0,0.0,0.0,0.0,0.0,0.0,0.0,0.0,0.0,0.0,0.0,0.0,0.0,0.0,0.0,0.0,0.0,0.0,0.0,0.0,0.0,0.0,0.0,0.0,0.0,0.0,0.0,0.0,0.0,0.0,0.0,0.0,0.0,0.0,0.0,0.0,0.0,0.0,0.0,0.0,0.0,0.0,0.0,0.0,0.0,0.0,0.0,0.0,0.0,0.0,-2.6811,-2.6183,-2.7156,-2.6886,-2.5226,0.0,0.0,0.0,0.0,0.0,0.0,0.0,0.0,0.0,0.0,0.0,0.0,0.0,0.0,0.0,0.0,0.0,0.0,0.0,0.0,0.0,0.0,0.0,0.0,0.0,0.0,0.0,0.0,0.0,0.0,0.0,0.0,0.0,0.0,0.0,0.0,0.0,0.0,0.0,0.0,0.0,0.0,0.0,0.0,0.0,0.0,0.0,0.0,0.0,0.0,0.0,0.0,0.0,0.0,0.0,0.0,0.0,0.0,0.0,0.0,0.0,0.0,0.0,0.0,0.0,0.0,0.0,0.0,0.0,0.0,0.0,0.0,0.0,0.0,0.0,0.0,0.0,0.0,0.0,0.0,0.0,0.0,0.0,0.0,0.0,0.0,0.0,0.0,0.0,0.0,0.0,0.0,0.0,0.0,0.0,0.0,0.0,0.0,0.0,0.0,0.0,0.0,0.0,0.0,0.0,0.0,0.0,0.0,0.0,0.0,0.0,0.0,-2.7563,-2.7218,-2.5583,0.0,0.0,0.0,0.0,0.0,0.0,0.0,0.0,0.0,0.0,0.0,0.0,0.0,0.0,0.0,0.0,0.0,0.0,0.0,0.0,0.0,0.0,0.0,0.0,0.0,0.0,0.0,0.0,0.0,0.0,0.0,0.0,0.0,0.0,0.0,0.0,0.0,0.0,0.0,0.0,0.0,0.0,0.0,0.0,0.0,0.0,0.0,0.0,0.0,0.0,0.0,0.0,0.0,0.0,0.0,0.0,0.0,0.0,0.0,0.0,0.0,0.0,0.0,0.0,0.0,0.0,0.0,0.0,0.0,0.0,0.0,0.0,0.0,0.0,0.0,0.0,0.0,0.0,0.0,0.0,0.0,0.0,0.0,0.0,0.0,0.0,0.0,0.0,0.0,0.0,0.0,0.0,0.0,0.0,0.0,0.0,0.0,0.0,0.0,0.0,0.0,0.0,0.0,0.0,0.0,0.0,0.0,0.0,0.0,0.0,-2.5441,-2.6803,-2.6475,0.0,-2.5297,0.0,0.0,0.0,0.0,0.0,0.0,0.0,0.0,0.0,0.0,0.0,0.0,0.0,0.0,0.0,0.0,0.0,0.0,0.0,0.0,0.0,0.0,0.0,0.0,0.0,0.0,0.0,0.0,0.0,0.0,0.0,0.0,0.0,0.0,0.0,0.0,0.0,0.0,0.0,0.0,0.0,0.0,0.0,0.0,0.0,0.0,0.0,0.0,0.0,0.0,0.0,0.0,0.0,0.0,0.0,0.0,0.0,0.0,0.0,0.0,0.0,0.0,0.0,0.0,0.0,0.0,0.0,0.0,0.0,0.0,0.0,0.0,0.0,0.0,0.0,0.0,0.0,0.0,0.0,0.0,0.0,0.0,0.0,0.0,0.0,0.0,0.0,0.0,0.0,0.0,0.0,0.0,0.0,0.0,0.0,0.0,0.0,0.0,0.0,0.0,0.0,0.0,0.0,0.0,0.0,0.0,0.0,0.0,0.0,0.0,-2.5063,-2.6366,-2.5805,-2.5439,0.0,0.0,0.0,0.0,0.0,0.0,0.0,0.0,0.0,0.0,0.0,0.0,0.0,0.0,0.0,0.0,0.0,0.0,0.0,0.0,0.0,0.0,0.0,0.0,0.0,0.0,0.0,0.0,0.0,0.0,0.0,0.0,0.0,0.0,0.0,0.0,0.0,0.0,0.0,0.0,0.0,0.0,0.0,0.0,0.0,0.0,0.0,0.0,0.0,0.0,0.0,0.0,0.0,0.0,0.0,0.0,0.0,0.0,0.0,0.0,0.0,0.0,0.0,0.0,0.0,0.0,0.0,0.0,0.0,0.0,0.0,0.0,0.0,0.0,0.0,0.0,0.0,0.0,0.0,0.0,0.0,0.0,0.0,0.0,0.0,0.0,0.0,0.0,0.0,0.0,0.0,0.0,0.0,0.0,0.0,0.0,0.0,0.0,0.0,0.0,0.0,0.0,0.0,0.0,0.0,0.0,0.0,0.0,0.0,0.0,-2.4463,-2.504,-2.6056,-2.5689,-2.5327,-2.5003,0.0,0.0,0.0,0.0,0.0,0.0,0.0,0.0,0.0,0.0,0.0,0.0,0.0,0.0,0.0,0.0,0.0,0.0,0.0,0.0,0.0,0.0,0.0,0.0,0.0,0.0,0.0,0.0,0.0,0.0,0.0,0.0,0.0,0.0,0.0,0.0,0.0,0.0,0.0,0.0,0.0,0.0,0.0,0.0,0.0,0.0,0.0,0.0,0.0,0.0,0.0,0.0,0.0,0.0,0.0,0.0,0.0,0.0,0.0,0.0,0.0,0.0,0.0,0.0,0.0,0.0,0.0,0.0,0.0,0.0,0.0,0.0,0.0,0.0,0.0,0.0,0.0,0.0,0.0,0.0,0.0,0.0,0.0,0.0,0.0,0.0,0.0,0.0,0.0,0.0,0.0,0.0,0.0,0.0,0.0,0.0,0.0,0.0,0.0,0.0,0.0,0.0,0.0,0.0,0.0,0.0,0.0,0.0,-2.6251,-2.5376,-2.5379,-2.6418,-2.6205,-2.5435,0.0,0.0,0.0,0.0,0.0,0.0,0.0,0.0,0.0,0.0,0.0,0.0,0.0,0.0,0.0,0.0,0.0,0.0,0.0,0.0,0.0,0.0,0.0,0.0,0.0,0.0,0.0,0.0,0.0,0.0,0.0,0.0,0.0,0.0,0.0,0.0,0.0,0.0,0.0,0.0,0.0,0.0,0.0,0.0,0.0,0.0,0.0,0.0,0.0,0.0,0.0,0.0,0.0,0.0,0.0,0.0,0.0,0.0,0.0,0.0,0.0,0.0,0.0,0.0,0.0,0.0,0.0,0.0,0.0,0.0,0.0,0.0,0.0,0.0,0.0,0.0,0.0,0.0,0.0,0.0,0.0,0.0,0.0,0.0,0.0,0.0,0.0,0.0,0.0,0.0,0.0,0.0,0.0,0.0,0.0,0.0,0.0,0.0,0.0,0.0,0.0,0.0,0.0,0.0,0.0,0.0,0.0,0.0,0.0,-2.3843,-2.4484,-2.5382,-2.6408,-2.5001,-2.4335,0.0,0.0,0.0,0.0,0.0,0.0,0.0,0.0,0.0,0.0,0.0,0.0,0.0,0.0,0.0,0.0,0.0,0.0,0.0,0.0,0.0,0.0,0.0,0.0,0.0,0.0,0.0,0.0,0.0,0.0,0.0,0.0,0.0,0.0,0.0,0.0,0.0,0.0,0.0,0.0,0.0,0.0,0.0,0.0,0.0,0.0,0.0,0.0,0.0,0.0,0.0,0.0,0.0,0.0,0.0,0.0,0.0,0.0,0.0,0.0,0.0,0.0,0.0,0.0,0.0,0.0,0.0,0.0,0.0,0.0,0.0,0.0,0.0,0.0,0.0,0.0,0.0,0.0,0.0,0.0,0.0,0.0,0.0,0.0,0.0,0.0,0.0,0.0,0.0,0.0,0.0,0.0,0.0,0.0,0.0,0.0,0.0,0.0,0.0,0.0,0.0,0.0,0.0,0.0,0.0,0.0,0.0,0.0,0.0,-2.3393,0.0,-2.6076,-2.6433,-2.4657,-2.3685,0.0,0.0,0.0,0.0,0.0,0.0,0.0,0.0,0.0,0.0,0.0,0.0,0.0,0.0,0.0,0.0,0.0,0.0,0.0,0.0,0.0,0.0,0.0,0.0,0.0,0.0,0.0,0.0,0.0,0.0,0.0,0.0,0.0,0.0,0.0,0.0,0.0,0.0,0.0,0.0,0.0,0.0,0.0,0.0,0.0,0.0,0.0,0.0,0.0,0.0,0.0,0.0,0.0,0.0,0.0,0.0,0.0,0.0,0.0,0.0,0.0,0.0,0.0,0.0,0.0,0.0,0.0,0.0,0.0,0.0,0.0,0.0,0.0,0.0,0.0,0.0,0.0,0.0,0.0,0.0,0.0,0.0,0.0,0.0,0.0,0.0,0.0,0.0,0.0,0.0,0.0,0.0,0.0,0.0,0.0,0.0,0.0,0.0,0.0,0.0,0.0,0.0,0.0,0.0,0.0,0.0,0.0,0.0,-2.2284,-2.5385,-2.7092,-2.7385,-2.6502,-2.5269,-2.3753,0.0,0.0,0.0,0.0,0.0,0.0,0.0,0.0,0.0,0.0,0.0,0.0,0.0,0.0,0.0,0.0,0.0,0.0,0.0,0.0,0.0,0.0,0.0,0.0,0.0,0.0,0.0,0.0,0.0,0.0,0.0,0.0,0.0,0.0,0.0,0.0,0.0,0.0,0.0,0.0,0.0,0.0,0.0,0.0,0.0,0.0,0.0,0.0,0.0,0.0,0.0,0.0,0.0,0.0,0.0,0.0,0.0,0.0,0.0,0.0,0.0,0.0,0.0,0.0,0.0,0.0,0.0,0.0,0.0,0.0,0.0,0.0,0.0,0.0,0.0,0.0,0.0,0.0,0.0,0.0,0.0,0.0,0.0,0.0,0.0,0.0,0.0,0.0,0.0,0.0,0.0,0.0,0.0,0.0,0.0,0.0,0.0,0.0,0.0,0.0,0.0,0.0,0.0,0.0,0.0,0.0,0.0,0.0,0.0,-2.2935,-2.4828,-2.6034,-2.6481,-2.3905,-2.3077,0.0,0.0,0.0,0.0,0.0,0.0,0.0,0.0,0.0,0.0,0.0,0.0,0.0,0.0,0.0,0.0,0.0,0.0,0.0,0.0,0.0,0.0,0.0,0.0,0.0,0.0,0.0,0.0,0.0,0.0,0.0,0.0,0.0,0.0,0.0,0.0,0.0,0.0,0.0,0.0,0.0,0.0,0.0,0.0,0.0,0.0,0.0,0.0,0.0,0.0,0.0,0.0,0.0,0.0,0.0,0.0,0.0,0.0,0.0,0.0,0.0,0.0,0.0,0.0,0.0,0.0,0.0,0.0,0.0,0.0,0.0,0.0,0.0,0.0,0.0,0.0,0.0,0.0,0.0,0.0,0.0,0.0,0.0,0.0,0.0,0.0,0.0,0.0,0.0,0.0,0.0,0.0,0.0,0.0,0.0,0.0,0.0,0.0,0.0,0.0,0.0,0.0,0.0,0.0,0.0,0.0,0.0,0.0,0.0,-2.1891,-2.4005,-2.5379,-2.5884,-2.3629,-2.2965,-2.3965,0.0,0.0,0.0,0.0,0.0,0.0,0.0,0.0,0.0,0.0,0.0,0.0,0.0,0.0,0.0,0.0,0.0,0.0,0.0,0.0,0.0,0.0,0.0,0.0,0.0,0.0,0.0,0.0,0.0,0.0,0.0,0.0,0.0,0.0,0.0,0.0,0.0,0.0,0.0,0.0,0.0,0.0,0.0,0.0,0.0,0.0,0.0,0.0,0.0,0.0,0.0,0.0,0.0,0.0,0.0,0.0,0.0,0.0,0.0,0.0,0.0,0.0,0.0,0.0,0.0,0.0,0.0,0.0,0.0,0.0,0.0,0.0,0.0,0.0,0.0,0.0,0.0,0.0,0.0,0.0,0.0,0.0,0.0,0.0,0.0,0.0,0.0,0.0,0.0,0.0,0.0,0.0,0.0,0.0,0.0,0.0,0.0,0.0,0.0,0.0,0.0,0.0,0.0,0.0,0.0,0.0,0.0,0.0,-2.1928,-2.4355,-2.5338,-2.4915,-2.4238,-2.3226,0.0,0.0,0.0,0.0,0.0,0.0,0.0,0.0,0.0,0.0,0.0,0.0,0.0,0.0,0.0,0.0,0.0,0.0,0.0,0.0,0.0,0.0,0.0,0.0,0.0,0.0,0.0,0.0,0.0,0.0,0.0,0.0,0.0,0.0,0.0,0.0,0.0,0.0,0.0,0.0,0.0,0.0,0.0,0.0,0.0,0.0,0.0,0.0,0.0,0.0,0.0,0.0,0.0,0.0,0.0,0.0,0.0,0.0,0.0,0.0,0.0,0.0,0.0,0.0,0.0,0.0,0.0,0.0,0.0,0.0,0.0,0.0,0.0,0.0,0.0,0.0,0.0,0.0,0.0,0.0,0.0,0.0,0.0,0.0,0.0,0.0,0.0,0.0,0.0,0.0,0.0,0.0,0.0,0.0,0.0,0.0,0.0,0.0,0.0,0.0,0.0,0.0,0.0,0.0,0.0,0.0,0.0,0.0,0.0,-2.232,-2.3033,-2.422,-2.6024,-2.3951,-2.3306,0.0,0.0,0.0,0.0,0.0,0.0,0.0,0.0,0.0,0.0,0.0,0.0,0.0,0.0,0.0,0.0,0.0,0.0,0.0,0.0,0.0,0.0,0.0,0.0,0.0,0.0,0.0,0.0,0.0,0.0,0.0,0.0,0.0,0.0,0.0,0.0,0.0,0.0,0.0,0.0,0.0,0.0,0.0,0.0,0.0,0.0,0.0,0.0,0.0,0.0,0.0,0.0,0.0,0.0,0.0,0.0,0.0,0.0,0.0,0.0,0.0,0.0,0.0,0.0,0.0,0.0,0.0,0.0,0.0,0.0,0.0,0.0,0.0,0.0,0.0,0.0,0.0,0.0,0.0,0.0,0.0,0.0,0.0,0.0,0.0,0.0,0.0,0.0,0.0,0.0,0.0,0.0,0.0,0.0,0.0,0.0,0.0,0.0,0.0,0.0,0.0,0.0,0.0,0.0,0.0,0.0,0.0,0.0,-2.1174,-2.1977,-2.231,-2.3446,-2.5585,-2.4117,-2.3621,0.0,0.0,0.0,0.0,0.0,0.0,0.0,0.0,0.0,0.0,0.0,0.0,0.0,0.0,0.0,0.0,0.0,0.0,0.0,0.0,0.0,0.0,0.0,0.0,0.0,0.0,0.0,0.0,0.0,0.0,0.0,0.0,0.0,0.0,0.0,0.0,0.0,0.0,0.0,0.0,0.0,0.0,0.0,0.0,0.0,0.0,0.0,0.0,0.0,0.0,0.0,0.0,0.0,0.0,0.0,0.0,0.0,0.0,0.0,0.0,0.0,0.0,0.0,0.0,0.0,0.0,0.0,0.0,0.0,0.0,0.0,0.0,0.0,0.0,0.0,0.0,0.0,0.0,0.0,0.0,0.0,0.0,0.0,0.0,0.0,0.0,0.0,0.0,0.0,0.0,0.0,0.0,0.0,0.0,0.0,0.0,0.0,0.0,0.0,0.0,0.0,0.0,0.0,0.0,0.0,0.0,0.0,0.0,-2.1192,-2.123,-2.2031,-2.3032,-2.4177,-2.4574,-2.4015,0.0,0.0,0.0,0.0,0.0,0.0,0.0,0.0,0.0,0.0,0.0,0.0,0.0,0.0,0.0,0.0,0.0,0.0,0.0,0.0,0.0,0.0,0.0,0.0,0.0,0.0,0.0,0.0,0.0,0.0,0.0,0.0,0.0,0.0,0.0,0.0,0.0,0.0,0.0,0.0,0.0,0.0,0.0,0.0,0.0,0.0,0.0,0.0,0.0,0.0,0.0,0.0,0.0,0.0,0.0,0.0,0.0,0.0,0.0,0.0,0.0,0.0,0.0,0.0,0.0,0.0,0.0,0.0,0.0,0.0,0.0,0.0,0.0,0.0,0.0,0.0,0.0,0.0,0.0,0.0,0.0,0.0,0.0,0.0,0.0,0.0,0.0,0.0,0.0,0.0,0.0,0.0,0.0,0.0,0.0,0.0,0.0,0.0,0.0,0.0,0.0,0.0,0.0,0.0,0.0,0.0,0.0,0.0,-2.0908,-2.123,-2.1748,-2.2732,-2.4187,-2.4168,-2.4044,0.0,0.0,0.0,0.0,0.0,0.0,0.0,0.0,0.0,0.0,0.0,0.0,0.0,0.0,0.0,0.0,0.0,0.0,0.0,0.0,0.0,0.0,0.0,0.0,0.0,0.0,0.0,0.0,0.0,0.0,0.0,0.0,0.0,0.0,0.0,0.0,0.0,0.0,0.0,0.0,0.0,0.0,0.0,0.0,0.0,0.0,0.0,0.0,-2.838,0.0,0.0,0.0,0.0,0.0,0.0,0.0,0.0,0.0,0.0,0.0,0.0,0.0,0.0,0.0,0.0,0.0,0.0,0.0,0.0,0.0,0.0,0.0,0.0,0.0,0.0,0.0,0.0,0.0,0.0,0.0,0.0,0.0,0.0,0.0,0.0,0.0,0.0,0.0,0.0,0.0,0.0,0.0,0.0,0.0,0.0,0.0,0.0,0.0,0.0,0.0,0.0,0.0,0.0,0.0,0.0,0.0,0.0,0.0,-2.0469,-2.0908,-2.1357,-2.2331,-2.3748,-2.4246,-2.4442,0.0,0.0,0.0,0.0,0.0,0.0,0.0,0.0,0.0,0.0,0.0,0.0,0.0,0.0,0.0,0.0,0.0,0.0,0.0,0.0,0.0,0.0,0.0,0.0,0.0,0.0,0.0,0.0,0.0,0.0,0.0,0.0,0.0,0.0,0.0,0.0,0.0,0.0,0.0,0.0,0.0,0.0,0.0,0.0,0.0,0.0,0.0,0.0,0.0,0.0,0.0,0.0,0.0,0.0,0.0,0.0,0.0,0.0,0.0,0.0,0.0,0.0,0.0,0.0,0.0,0.0,0.0,0.0,0.0,0.0,0.0,0.0,0.0,0.0,0.0,0.0,0.0,0.0,0.0,0.0,0.0,0.0,0.0,0.0,0.0,0.0,0.0,0.0,0.0,0.0,0.0,0.0,0.0,0.0,0.0,0.0,0.0,0.0,0.0,0.0,0.0,0.0,0.0,0.0,0.0,0.0,0.0,-2.0152,-2.0127,-2.0634,-2.1086,-2.2119,-2.3711,-2.4759,-2.5217,-2.5087,0.0,0.0,0.0,0.0,0.0,0.0,0.0,0.0,0.0,0.0,0.0,0.0,0.0,0.0,0.0,0.0,0.0,0.0,0.0,0.0,0.0,0.0,0.0,0.0,0.0,0.0,0.0,0.0,0.0,0.0,0.0,0.0,0.0,0.0,0.0,0.0,0.0,0.0,-2.3843,-2.5065,0.0,0.0,0.0,0.0,0.0,0.0,0.0,0.0,-2.8759,0.0,0.0,0.0,0.0,0.0,0.0,0.0,0.0,0.0,0.0,0.0,0.0,0.0,0.0,0.0,0.0,0.0,0.0,0.0,0.0,0.0,0.0,0.0,0.0,0.0,0.0,0.0,0.0,0.0,0.0,0.0,0.0,0.0,0.0,0.0,0.0,0.0,0.0,0.0,0.0,0.0,0.0,0.0,0.0,0.0,0.0,0.0,0.0,0.0,0.0,0.0,0.0,0.0,0.0,0.0,0.0,-2.1074,-2.0312,-2.0127,-2.0624,-2.1446,-2.286,-2.4882,-2.5831,-2.6272,-2.6176,0.0,0.0,0.0,0.0,0.0,0.0,0.0,0.0,0.0,0.0,0.0,0.0,0.0,0.0,0.0,0.0,0.0,0.0,0.0,0.0,0.0,0.0,0.0,0.0,0.0,0.0,0.0,0.0,0.0,0.0,0.0,0.0,0.0,0.0,0.0,0.0,0.0,0.0,0.0,-2.6949,-2.7921,0.0,0.0,0.0,0.0,0.0,0.0,0.0,0.0,-3.0037,0.0,0.0,0.0,0.0,0.0,0.0,0.0,0.0,0.0,0.0,0.0,0.0,0.0,0.0,0.0,0.0,0.0,0.0,0.0,0.0,0.0,0.0,0.0,0.0,0.0,0.0,0.0,0.0,0.0,0.0,0.0,0.0,0.0,0.0,0.0,0.0,0.0,0.0,0.0,0.0,0.0,0.0,0.0,0.0,0.0,0.0,0.0,0.0,0.0,0.0,0.0,0.0,0.0,0.0,0.0,-2.0978,-2.0527,-2.0639,-2.1298,-2.205,-2.3339,-2.5137,-2.5814,-2.6299,0.0,0.0,0.0,0.0,0.0,0.0,0.0,0.0,0.0,0.0,0.0,0.0,0.0,0.0,0.0,0.0,0.0,0.0,0.0,0.0,0.0,0.0,0.0,0.0,0.0,0.0,0.0,0.0,0.0,0.0,0.0,0.0,0.0,0.0,0.0,0.0,0.0,0.0,0.0,0.0,-2.7419,-2.8411,-2.9264,0.0,0.0,0.0,0.0,0.0,0.0,-2.93,-3.0281,0.0,0.0,0.0,0.0,0.0,0.0,0.0,0.0,0.0,0.0,0.0,0.0,0.0,0.0,0.0,0.0,0.0,0.0,0.0,0.0,0.0,0.0,0.0,0.0,0.0,0.0,0.0,0.0,0.0,0.0,0.0,0.0,0.0,0.0,0.0,0.0,0.0,0.0,0.0,0.0,0.0,0.0,0.0,0.0,0.0,0.0,0.0,0.0,0.0,0.0,0.0,0.0,0.0,0.0,0.0,-2.1307,-2.1123,-2.1435,-2.2264,-2.3102,-2.4106,-2.5447,-2.6068,-2.6479,0.0,0.0,0.0,0.0,0.0,0.0,0.0,0.0,0.0,0.0,0.0,0.0,0.0,0.0,0.0,0.0,0.0,0.0,0.0,0.0,0.0,0.0,0.0,0.0,0.0,0.0,0.0,0.0,0.0,0.0,0.0,0.0,0.0,0.0,0.0,0.0,0.0,0.0,0.0,0.0,0.0,-2.9013,-2.9691,-3.0344,0.0,0.0,0.0,0.0,-2.934,-2.9829,0.0,0.0,0.0,0.0,0.0,0.0,0.0,0.0,0.0,0.0,0.0,0.0,0.0,0.0,0.0,0.0,0.0,0.0,0.0,0.0,0.0,0.0,0.0,0.0,0.0,0.0,0.0,0.0,0.0,0.0,0.0,0.0,0.0,0.0,0.0,0.0,0.0,0.0,0.0,0.0,0.0,0.0,0.0,0.0,0.0,0.0,0.0,0.0,0.0,0.0,0.0,0.0,0.0,0.0,0.0,0.0,-2.2998,-2.2736,-2.2883,-2.3368,-2.4738,-2.5757,-2.6439,-2.7789,-2.7936,0.0,0.0,0.0,0.0,0.0,0.0,0.0,0.0,0.0,0.0,0.0,0.0,0.0,0.0,0.0,0.0,0.0,0.0,0.0,0.0,0.0,0.0,0.0,0.0,0.0,0.0,0.0,0.0,0.0,0.0,0.0,0.0,0.0,0.0,0.0,0.0,0.0,0.0,0.0,0.0,0.0,-3.0708,-2.9905,-3.0658,-3.0922,0.0,0.0,-3.0495,-3.0419,-3.1273,0.0,0.0,0.0,0.0,0.0,0.0,0.0,0.0,0.0,0.0,0.0,0.0,0.0,0.0,0.0,0.0,0.0,0.0,0.0,0.0,0.0,0.0,0.0,0.0,0.0,0.0,0.0,0.0,0.0,0.0,0.0,0.0,0.0,0.0,0.0,0.0,0.0,0.0,0.0,0.0,0.0,0.0,0.0,0.0,0.0,0.0,0.0,0.0,0.0,0.0,0.0,0.0,0.0,0.0,0.0,-2.3143,-2.3368,-2.3303,-2.3738,-2.4815,-2.576,-2.6518,-2.7119,-2.7644,-2.7519,0.0,0.0,0.0,0.0,0.0,0.0,0.0,0.0,0.0,0.0,0.0,0.0,0.0,0.0,0.0,0.0,0.0,0.0,0.0,0.0,0.0,0.0,0.0,0.0,0.0,0.0,0.0,0.0,0.0,0.0,0.0,0.0,0.0,0.0,0.0,0.0,0.0,0.0,0.0,0.0,0.0,0.0,-3.0708,-3.1637,0.0,0.0,0.0,-3.106,-3.106,0.0,0.0,0.0,0.0,0.0,0.0,0.0,0.0,0.0,0.0,0.0,0.0,0.0,0.0,0.0,0.0,0.0,0.0,0.0,0.0,0.0,0.0,0.0,0.0,0.0,0.0,0.0,0.0,0.0,0.0,0.0,0.0,0.0,0.0,0.0,0.0,0.0,0.0,0.0,0.0,0.0,0.0,0.0,0.0,0.0,0.0,0.0,0.0,0.0,0.0,0.0,0.0,0.0,0.0,0.0,0.0,0.0,-2.3803,-2.4097,-2.48,-2.5925,-2.6505,-2.7049,-2.7645,-2.7519,0.0,0.0,0.0,0.0,0.0,0.0,0.0,0.0,0.0,0.0,0.0,0.0,0.0,0.0,0.0,0.0,0.0,0.0,0.0,0.0,0.0,0.0,0.0,0.0,0.0,0.0,0.0,-2.4597,0.0,0.0,0.0,0.0,0.0,0.0,0.0,0.0,0.0,0.0,0.0,0.0,0.0,0.0,-3.0746,-3.1148,-3.2152,-3.2717,0.0,0.0,-3.1386,-3.1386,-3.1512,-3.144,0.0,0.0,0.0,0.0,0.0,0.0,0.0,0.0,0.0,0.0,0.0,0.0,0.0,0.0,0.0,0.0,0.0,0.0,0.0,0.0,0.0,0.0,0.0,0.0,0.0,0.0,0.0,0.0,0.0,0.0,0.0,0.0,0.0,0.0,0.0,0.0,0.0,0.0,0.0,0.0,0.0,0.0,0.0,0.0,0.0,0.0,0.0,0.0,0.0,0.0,0.0,0.0,0.0,0.0,0.0,-2.4728,-2.5752,-2.6339,-2.6458,-2.6972,-2.7523,-2.8061,-2.8011,-2.7863,0.0,0.0,0.0,0.0,0.0,0.0,0.0,0.0,0.0,0.0,0.0,0.0,0.0,0.0,0.0,0.0,0.0,0.0,0.0,0.0,0.0,0.0,0.0,0.0,0.0,0.0,0.0,0.0,0.0,0.0,0.0,0.0,0.0,0.0,0.0,0.0,0.0,0.0,0.0,0.0,0.0,-3.0633,-3.067,-3.1587,-3.2252,0.0,0.0,-3.1386,-3.1386,-3.1813,-3.1788,-3.08,0.0,0.0,0.0,0.0,0.0,0.0,0.0,0.0,0.0,0.0,0.0,0.0,0.0,0.0,0.0,0.0,0.0,0.0,0.0,0.0,0.0,0.0,0.0,0.0,0.0,0.0,0.0,0.0,0.0,0.0,0.0,0.0,0.0,0.0,0.0,0.0,0.0,0.0,0.0,0.0,0.0,0.0,0.0,0.0,0.0,0.0,0.0,0.0,0.0,0.0,0.0,0.0,0.0,-2.4833,-2.4833,-2.59,-2.6628,-2.6954,-2.7168,-2.7557,-2.8097,-2.8234,-2.7738,0.0,0.0,0.0,0.0,0.0,0.0,0.0,0.0,0.0,0.0,0.0,0.0,0.0,0.0,0.0,0.0,0.0,0.0,0.0,0.0,0.0,0.0,0.0,0.0,0.0,0.0,0.0,0.0,-2.5241,-2.5405,-2.5794,0.0,0.0,0.0,0.0,0.0,0.0,0.0,0.0,0.0,0.0,-3.062,-3.062,-3.1235,0.0,0.0,-3.1738,-3.1512,-3.1838,-3.1788,-3.1348,-3.0281,-3.0885,0.0,0.0,0.0,0.0,0.0,0.0,0.0,0.0,0.0,0.0,0.0,0.0,0.0,0.0,0.0,0.0,0.0,0.0,0.0,0.0,0.0,0.0,0.0,0.0,0.0,0.0,0.0,0.0,0.0,0.0,0.0,0.0,0.0,0.0,0.0,0.0,0.0,0.0,0.0,0.0,0.0,0.0,0.0,0.0,0.0,0.0,0.0,0.0,0.0,0.0,0.0,0.0,-2.531,-2.531,-2.6226,-2.6892,-2.7281,-2.7118,-2.7347,-2.7914,-2.7962,-2.7523,0.0,0.0,0.0,0.0,0.0,0.0,0.0,0.0,0.0,0.0,0.0,0.0,0.0,0.0,0.0,0.0,0.0,0.0,0.0,0.0,0.0,0.0,0.0,0.0,0.0,0.0,0.0,0.0,-2.6019,-2.6153,-2.6826,0.0,0.0,0.0,0.0,0.0,0.0,0.0,0.0,0.0,0.0,-3.0419,-3.0595,-3.0934,-3.1361,-3.1876,-3.1373,-3.1097,-3.165,-3.163,-3.1286,-3.0356,0.0,0.0,0.0,0.0,0.0,0.0,0.0,0.0,0.0,0.0,0.0,0.0,0.0,0.0,0.0,0.0,0.0,0.0,0.0,0.0,0.0,0.0,0.0,0.0,0.0,0.0,0.0,0.0,0.0,0.0,-2.6249,0.0,0.0,0.0,0.0,0.0,0.0,0.0,0.0,0.0,0.0,0.0,0.0,0.0,0.0,0.0,0.0,0.0,0.0,0.0,0.0,0.0,0.0,-2.6471,-2.6427,-2.7012,-2.7314,-2.7326,-2.6823,-2.6943,-2.7564,-2.7065,-2.7188,-2.7982,0.0,0.0,0.0,0.0,0.0,0.0,0.0,0.0,0.0,0.0,0.0,0.0,0.0,0.0,0.0,0.0,0.0,0.0,0.0,0.0,0.0,0.0,0.0,0.0,0.0,0.0,-2.7604,-2.6961,-2.6841,0.0,0.0,0.0,0.0,0.0,0.0,0.0,0.0,0.0,0.0,-2.9089,-3.0005,-3.0532,-3.062,-3.0809,-3.1348,-3.0532,-3.0043,-3.0687,-3.1552,-3.1968,0.0,0.0,0.0,0.0,0.0,0.0,0.0,0.0,0.0,0.0,0.0,0.0,0.0,0.0,0.0,0.0,0.0,0.0,0.0,0.0,0.0,0.0,0.0,0.0,0.0,0.0,0.0,-2.9253,-2.991,0.0,0.0,0.0,0.0,0.0,0.0,0.0,0.0,0.0,0.0,0.0,-3.1171,-3.176,0.0,0.0,0.0,0.0,0.0,0.0,0.0,0.0,0.0,0.0,0.0,0.0,-2.6521,-2.6546,-2.7567,-2.7932,-2.7514,-2.7511,-2.739,-2.725,-2.7594,-2.7968,-2.8395,0.0,0.0,0.0,0.0,0.0,0.0,0.0,0.0,0.0,0.0,0.0,0.0,0.0,0.0,0.0,0.0,0.0,0.0,0.0,0.0,0.0,0.0,0.0,0.0,0.0,-2.9624,0.0,0.0,0.0,0.0,0.0,0.0,0.0,0.0,0.0,0.0,0.0,-2.9008,-2.8673,-2.9315,-2.9854,-3.0043,-3.0068,-3.0605,0.0,0.0,0.0,0.0,0.0,0.0,0.0,0.0,0.0,0.0,0.0,0.0,0.0,0.0,-3.9694,-3.7524,-3.6596,-3.5878,-3.4996,0.0,0.0,0.0,0.0,0.0,0.0,0.0,0.0,0.0,0.0,0.0,0.0,0.0,0.0,-3.1337,0.0,-3.1803,0.0,0.0,0.0,0.0,0.0,0.0,0.0,0.0,-3.2854,-3.3164,-3.3213,-3.3691,-3.3508,0.0,-3.2555,-3.0813,0.0,0.0,0.0,0.0,0.0,0.0,0.0,0.0,-2.7926,-2.7676,-2.8518,-2.8679,-2.8038,-2.8034,-2.7704,-2.7153,-2.7695,-2.8003,-2.7919,-2.6452,-2.5959,0.0,0.0,0.0,0.0,0.0,0.0,0.0,0.0,0.0,0.0,0.0,0.0,0.0,0.0,0.0,0.0,0.0,0.0,0.0,0.0,0.0,0.0,0.0,-2.9924,0.0,0.0,0.0,0.0,0.0,0.0,0.0,0.0,0.0,-2.9659,-3.0263,-3.0775,-3.0333,-3.0537,-3.0849,-3.1133,0.0,0.0,0.0,0.0,0.0,0.0,0.0,-3.3928,-3.3718,-3.5109,-3.6351,-3.676,-3.8275,-3.9275,-3.8811,0.0,0.0,-3.8437,-3.7629,-3.6956,-3.6312,-3.5828,-3.5375,-3.4952,-3.455,-3.4015,0.0,0.0,0.0,0.0,0.0,0.0,0.0,0.0,-3.1117,-3.1997,0.0,-3.2591,0.0,0.0,0.0,0.0,0.0,-3.3844,0.0,0.0,-3.5155,-3.5016,-3.4138,-3.4099,-3.3673,-3.2832,-3.3301,-3.2955,-3.1888,-3.0137,0.0,0.0,0.0,0.0,0.0,0.0,-3.0441,-2.9783,-2.9849,-2.9532,-2.8793,-2.8305,-2.7841,-2.7348,-2.7484,-2.729,-2.6707,-2.7205,-2.7215,-2.6662,-2.7156,0.0,0.0,0.0,0.0,0.0,0.0,0.0,0.0,0.0,0.0,0.0,0.0,0.0,0.0,0.0,0.0,0.0,0.0,0.0,0.0,-2.9609,0.0,0.0,0.0,0.0,0.0,0.0,0.0,0.0,0.0,0.0,-3.1485,-3.1582,-3.2097,-3.2707,0.0,0.0,0.0,0.0,-3.2607,-3.2662,-3.2692,-3.2692,-3.2804,-3.4044,-3.4802,-3.4171,0.0,0.0,-3.8332,-3.8901,-3.8916,-3.7659,-3.8003,-3.8975,-4.0756,-3.9454,-3.8467,-3.8945,-3.7659,-3.6596,-3.641,-3.5673,-3.4932,-3.1298,0.0,0.0,0.0,0.0,-3.1589,-3.2839,-3.5133,-3.5239,-3.5363,-3.5448,-3.5281,0.0,0.0,0.0,0.0,0.0,0.0,-3.4741,-3.5235,-3.5893,-3.606,-3.5844,-3.6206,-3.6247,-3.601,-3.5776,-3.5468,-3.5125,-3.3671,-3.2205,-3.0735,0.0,0.0,0.0,0.0,-3.0441,-2.989,-3.0853,-3.0665,-2.904,-2.9088,-2.862,-2.755,-2.7101,-2.7006,-2.7325,-2.6572,-2.6527,-2.7245,-2.6572,0.0,0.0,0.0,0.0,0.0,0.0,0.0,0.0,0.0,0.0,0.0,0.0,0.0,0.0,0.0,0.0,0.0,0.0,0.0,-3.1584,-3.0417,-3.0253,0.0,0.0,0.0,0.0,0.0,0.0,0.0,0.0,0.0,-3.4259,-3.3734,-3.3182,0.0,0.0,-3.2648,-3.2828,-3.2704,-3.2973,-3.4115,-3.3872,0.0,0.0,-3.5377,-3.5437,-3.5718,-3.688,-3.7689,-3.7689,-3.7853,-3.7853,-3.7449,-3.7554,-3.7898,-3.8347,-3.8108,-3.7629,-3.7375,-3.7195,-3.6971,-3.6611,-3.6588,-3.6473,-3.17,-3.1442,-3.1516,-3.211,-3.3065,-3.3533,-3.4966,-3.7025,-3.7142,-3.7201,-3.721,-3.6716,-3.5804,-3.4666,-3.4397,0.0,0.0,0.0,-3.51,-3.5534,-3.5923,-3.6103,-3.6118,-3.6492,-3.6656,-3.6626,-3.6267,-3.6103,-3.6073,-3.528,-3.4189,-3.2824,0.0,0.0,-3.1747,-3.2133,-3.1825,-3.0934,-3.1782,-3.1302,-2.9361,-2.8966,-2.8449,-2.7604,-2.7186,-2.7171,-2.7595,-2.6811,-2.6752,-2.758,-2.6811,-2.6452,0.0,0.0,0.0,0.0,0.0,0.0,0.0,0.0,0.0,0.0,0.0,-3.0687,-2.9669,0.0,0.0,0.0,-2.9759,-3.0672,-3.2003,-3.1285,0.0,0.0,0.0,0.0,0.0,0.0,0.0,-3.5429,-3.5489,-3.5489,-3.5489,-3.4986,-3.4481,-3.4166,-3.3911,-3.3839,-3.4096,0.0,-3.4117,-3.5069,-3.4873,-3.4971,-3.5962,-3.5759,-3.5744,-3.6372,-3.6791,-3.7135,-3.7375,-3.7404,-3.7315,-3.7105,-3.7045,-3.6956,-3.6701,-3.6656,-3.6746,-3.6821,-3.6926,-3.6896,-3.6552,-3.6791,-3.6851,-3.1468,-3.163,-3.2699,-3.3091,-3.3312,-3.5102,-3.6346,-3.7056,-3.7312,-3.7704,-3.8138,-3.7015,-3.6447,-3.6372,-3.5789,0.0,-3.5489,-3.5489,-3.5489,-3.5489,-3.5489,-3.5489,-3.5489,-3.5504,-3.5474,-3.5429,-3.5474,-3.5459,-3.534,-3.5444,-3.5474,-3.54,-3.4861,-3.4532,-3.4487,-3.4412,-3.3769,-3.2542,-3.2467,-3.1554,-2.9624,-2.8263,-2.756,-2.756,-2.7615,-2.76,-2.766,-2.765,-2.77,-2.776,-2.77,-2.7399,-2.6811,0.0,0.0,0.0,0.0,0.0,0.0,0.0,0.0,0.0,0.0,0.0,0.0,0.0,0.0,0.0,-2.9355,0.0,-3.1644,-3.2213,0.0,0.0,0.0,-3.3829,-3.4487,-3.4547,-3.4801,-3.5444,0.0,0.0,-3.5489,-3.5504,-3.5729,-3.6327,-3.5878,-3.5729,-3.6327,-3.5798,-3.5489,-3.5469,-3.5504,-3.5489,-3.5564,-3.5519,-3.5699,-3.6237,-3.6402,-3.6596,-3.7045,-3.718,-3.6985,-3.6492,-3.6417,-3.6252,-3.5624,-3.5594,-3.5863,-3.6985,-3.6776,-3.6402,-3.6372,-3.6372,-3.6237,-3.1835,-3.2515,-3.3657,-3.4039,-3.4149,-3.4881,-3.5991,-3.7238,-3.7327,-3.7225,-3.6926,-3.6626,-3.6207,-3.5729,-3.5579,-3.5489,-3.5489,-3.5489,-3.5489,-3.5489,-3.5489,-3.5489,-3.5489,-3.5489,-3.522,-3.4786,-3.525,-3.4981,-3.4053,-3.5011,-3.5235,-3.4756,-3.5085,-3.5011,-3.4472,-3.3978,-3.332,-3.2527,-3.2527,-3.1569,-2.9624,-2.8314,-2.756,-2.756,-2.7573,-2.778,-2.8288,-2.8232,-2.8428,-2.8903,-2.8476,-2.8142,-2.7984,-2.7534,0.0,0.0,0.0,0.0,0.0,0.0,0.0,0.0,0.0,-3.112,-2.8996,0.0,-3.1644,0.0,-3.0687,-3.1809,-3.3589,-3.3021,0.0,0.0,-3.4457,-3.4517,-3.519,-3.5265,-3.5325,-3.5474,-3.5489,-3.5489,-3.5489,-3.5489,-3.5549,-3.5729,-3.5624,-3.5579,-3.5714,-3.5624,-3.5489,-3.5489,-3.5489,-3.5489,-3.5489,-3.5489,-3.5549,-3.5714,-3.5744,-3.5804,-3.5938,-3.5968,-3.5893,-3.5759,-3.5744,-3.5669,-3.5519,-3.5489,-3.5579,-3.5893,-3.5833,-3.5744,-3.5744,-3.5744,-3.5684,-3.1836,-3.2785,-3.3821,-3.4255,-3.4269,-3.5505,-3.6552,-3.7404,-3.7404,-3.706,-3.6477,-3.6178,-3.5848,-3.5504,-3.5489,-3.5489,-3.5489,-3.5489,-3.5489,-3.5489,-3.5489,-3.534,-3.5055,-3.5055,-3.4696,-3.4053,-3.4427,-3.4382,-3.3978,-3.4382,-3.4562,-3.4487,-3.4577,-3.4412,-3.4053,-3.3978,-3.3604,-3.2946,-3.1809,-3.0672,-2.9609,-2.8556,-2.8179,-2.8488,-2.8404,-2.8682,-2.9375,-2.9048,-2.9163,-2.9852,-2.9515,-2.9207,-2.8902,-2.8561,-2.8357,0.0,0.0,0.0,0.0,0.0,0.0,0.0,0.0,0.0,0.0,0.0,-3.1674,-3.1824,-3.1913,-3.2781,-3.4741,-3.4277,-3.4292,-3.5385,-3.516,-3.5085,-3.5474,-3.5489,-3.5489,-3.5489,-3.5489,-3.5489,-3.5489,-3.5489,-3.5489,-3.5489,-3.5489,-3.5489,-3.5489,-3.5489,-3.5489,-3.5489,-3.5489,-3.5489,-3.5489,-3.5489,-3.5489,-3.5474,-3.5235,-3.504,-3.504,-3.4786,-3.4607,-3.4607,-3.4607,-3.4711,-3.4981,-3.504,-3.513,-3.5429,-3.5489,-3.5489,-3.5489,-3.5489,-3.5459,-3.1888,-3.282,-3.3671,-3.4109,-3.4317,-3.6319,-3.7165,-3.7165,-3.7165,-3.6866,-3.6327,-3.5744,-3.5489,-3.5489,-3.5489,-3.5489,-3.5489,-3.5489,-3.5489,-3.5489,-3.5489,-3.513,-3.4472,-3.4472,-3.4083,-3.3395,-3.3455,-3.3756,-3.4254,-3.3802,-3.3893,-3.4468,-3.4015,-3.3774,-3.3789,-3.4257,-3.412,-3.3397,-3.1065,-2.9915,-2.9993,-2.92,-2.9059,-2.9685,-2.9591,-2.983,-3.0438,-3.0032,-3.0077,-3.0658,-3.0849,-3.0558,-2.9923,-2.977,-2.9754,0.0,-3.0231,0.0,0.0,0.0,0.0,0.0,0.0,0.0,0.0,-3.0791,-3.1659,-3.3469,-3.3095,-3.3529,-3.5325,-3.5489,-3.5489,-3.5489,-3.5489,-3.5489,-3.5489,-3.5489,-3.5489,-3.5489,-3.5489,-3.5489,-3.5489,-3.5489,-3.5489,-3.5489,-3.5489,-3.5489,-3.5489,-3.5489,-3.5489,-3.5489,-3.5429,-3.525,-3.5145,-3.5175,-3.516,-3.5145,-3.4726,-3.4367,-3.4352,-3.3903,-3.3544,-3.3544,-3.3604,-3.3739,-3.4262,-3.4367,-3.4547,-3.504,-3.513,-3.5205,-3.5429,-3.5489,-3.5295,-3.289,-3.3739,-3.3945,-3.4476,-3.5243,-3.5678,-3.5863,-3.5863,-3.5878,-3.5804,-3.5684,-3.5564,-3.5489,-3.5489,-3.5489,-3.5489,-3.5489,-3.5489,-3.5489,-3.5489,-3.5489,-3.513,-3.4487,-3.4472,-3.3858,-3.2781,-3.3245,-3.3335,-3.2982,-3.3906,-3.441,-3.4565,-3.4991,-3.5228,-3.5212,0.0,0.0,0.0,-3.172,-3.1467,-3.1969,-3.0768,-3.0209,-3.0321,-3.0222,0.0,-3.0363,-3.1233,-3.18,-3.1951,-3.2521,0.0,0.0,0.0,0.0,0.0,0.0,0.0,0.0,0.0,0.0,0.0,-3.3427,-3.2467,-3.1459,-3.2302,-3.332,-3.4188,-3.4188,-3.4487,-3.54,-3.5489,-3.5489,-3.5489,-3.5489,-3.5489,-3.5489,-3.5489,-3.5489,-3.5489,-3.5489,-3.5489,-3.5489,-3.5489,-3.5489,-3.5459,-3.5489,-3.5489,-3.5459,-3.5459,-3.5489,-3.5459,-3.5055,-3.4502,-3.3948,-3.3933,-3.4008,-3.3829,-3.3799,-3.3694,-3.3664,-3.3574,-3.3469,-3.344,-3.3499,-3.3484,-3.3664,-3.3679,-3.3739,-3.3858,-3.3903,-3.4203,-3.525,-3.5489,-3.5474,-3.3891,0.0,-3.4758,-3.5052,0.0,-3.5145,-3.4996,-3.4996,-3.4996,-3.4816,-3.4517,-3.4517,-3.4517,-3.4517,-3.4517,-3.4517,-3.4517,-3.4517,-3.4517,-3.4517,-3.4502,-3.4158,-3.3499,-3.3514,-3.3156,-3.2555,-3.2917,-3.3213,-3.3574,-3.3873,-3.4248,-3.4585,-3.4617,-3.4617,-3.4617,-3.4265,-3.3566,-3.2536,-3.1911,-3.1526,-3.1502,-3.114,-3.0933,-3.0933,0.0,0.0,0.0,0.0,0.0,0.0,0.0,0.0,0.0,0.0,0.0,-3.2317,-3.2698,-3.3208,-3.3905,-3.4372,-3.4592,-3.4592,-3.4295,-3.3388,-3.1677,-3.2118,-3.2796,-3.344,-3.3799,-3.4262,-3.4921,-3.531,-3.5489,-3.5489,-3.5489,-3.5489,-3.5489,-3.5489,-3.5489,-3.5489,-3.5489,-3.5489,-3.5489,-3.5175,-3.5011,-3.4996,-3.4996,-3.4955,-3.4651,-3.51,-3.5415,-3.5055,-3.4741,-3.4247,-3.3649,-3.3499,-3.3484,-3.3484,-3.323,-3.3036,-3.3006,-3.2736,-3.2527,-3.2527,-3.2527,-3.2602,-3.2946,-3.3021,-3.311,-3.341,-3.3499,-3.3664,-3.4412,-3.4771,-3.4876,-3.4758,-3.5489,-3.5385,-3.534,-3.5265,-3.4592,-3.4233,-3.4143,0.0,0.0,0.0,-3.3499,-3.3499,-3.3499,-3.3499,-3.3499,-3.3499,-3.3499,-3.3499,-3.3499,-3.3499,-3.314,-3.2527,-3.2616,-3.2646,-3.2602,-3.2749,-3.3429,-3.4555,-3.406,-3.4127,-3.4662,-3.4228,-3.3953,-3.3937,-3.3937,-3.3549,-3.2692,-3.2144,-3.158,-3.0995,-3.1457,-3.1719,-3.1735,-3.2723,-3.3271,-3.3389,-3.3271,-3.3541,-3.4252,-3.4303,-3.4235,-3.4117,-3.41,-3.3761,-3.3119,-3.3694,-3.415,-3.4303,-3.4614,-3.4849,-3.4982,-3.4738,-3.3862,-3.2092,-3.2002,-3.2288,-3.2849,-3.3501,-3.4152,-3.4819,-3.5501,-3.591,-3.591,-3.591,-3.591,-3.591,-3.591,-3.5894,-3.5718,-3.5718,-3.5608,-3.5522,-3.507,-3.471,-3.4743,-3.482,-3.4531,-3.4106,-3.4585,-3.4801,-3.4203,-3.3978,-3.389,-3.3472,-3.3291,-3.3367,-3.3513,-3.3074,-3.267,-3.2477,-3.2143,-3.1883,-3.186,-3.1796,-3.211,-3.2447,-3.2568,-3.2631,-3.3036,-3.3155,-3.3246,-3.3517,-3.3969,-3.4179,-3.5344,-3.5459,-3.4861,-3.4622,-3.4562,-3.3903,-3.332,-3.2856,-3.3395,-3.3574,-3.3499,-3.3499,-3.3499,-3.3499,-3.3499,-3.3499,-3.3499,-3.3499,-3.3499,0.0,-3.3499,-3.3155,-3.2512,-3.3081,-3.311,-3.2672,-3.3198,-3.3834,-3.4513,-3.448,-3.4802,-3.5358,-3.535,-3.5316,-3.5316,-3.5316,-3.4645,-3.3319,-3.3264,-3.3119,-3.2983,-3.3051,-3.3111,-3.3094,-3.2671,-3.2747,-3.3372,-3.278,-3.2797,-3.3508,-3.3558,-3.3271,-3.2645,-3.2686,-3.2256,-3.1613,-3.2188,-3.2882,-3.3541,-3.4739,-3.5756,-3.6346,-3.5311,-3.4235,-3.3435,-3.3816,-3.4222,-3.4333,-3.4865,-3.5649,-3.6346,-3.6954,-3.7275,-3.7381,-3.7456,-3.7472,-3.7381,-3.7413,-3.7115,-3.6508,-3.6446,-3.6215,-3.5691,-3.546,-3.5344,-3.5414,-3.5122,-3.5291,-3.5018,-3.4434,-3.3546,-3.2976,-3.2781,-3.2777,-3.287,-3.273,-3.3029,-3.352,-3.352,-3.3206,-3.2764,-3.2935,-3.2917,-3.2532,-3.2826,-3.298,-3.2757,-3.2576,-3.2476,-3.2219,-3.2133,-3.234,-3.3269,-3.3629,-3.3839,-3.4412,-3.4382,-3.4083,-3.3948,-3.3903,-3.3245,-3.2587,-3.2018,-3.2287,-3.2422,-3.2422,-3.2437,-3.2437,-3.2437,-3.2422,-3.2658,-3.3035,-3.302,-3.3233,-3.3541,-3.3525,-3.3386,-3.3146,-3.3442,-3.3641,-3.37,-3.3987,-3.4479,-3.5115,-3.5144,-3.5316,-3.5577,-3.5639,-3.5639,-3.5639,-3.5639,-3.4895,-3.3474,-3.3839,-3.347,-3.2273,-3.2983,-3.3034,-3.2239,-3.2611,-3.2848,-3.2797,-3.2865,-3.3051,-3.3389,-3.3389,-3.3237,-3.2916,-3.2899,-3.256,-3.1867,-3.2493,-3.2865,-3.2797,-3.4184,-3.5334,-3.6062,-3.5518,-3.5005,-3.4704,-3.4295,-3.4062,-3.4094,-3.4718,-3.5406,-3.611,-3.6438,-3.6773,-3.7141,-3.7173,-3.7189,-3.7294,-3.7614,-3.7632,-3.7338,-3.7263,-3.6936,-3.6274,-3.5849,-3.5417,-3.5138,-3.4809,-3.4665,-3.5,-3.4274,-3.3588,-3.3603,-3.3619,-3.349,-3.3219,-3.313,-3.3287,-3.3582,-3.3582,-3.3479,-3.3198,-3.3495,-3.3427,-3.3235,-3.3427,-3.3427,-3.313,-3.313,-3.2986,-3.2826,-3.2664,-3.2982,-3.3433,-3.3801,-3.4281,-3.3499,-3.3484,-3.3335,-3.32,-3.3021,-3.2512,-3.2003,-3.1482,-3.1482,-3.1467,-3.1467,-3.1467,-3.1507,-3.1543,-3.1664,-3.2176,-3.2734,-3.2857,-3.3093,-3.3582,-3.3582,-3.3582,-3.3633,-3.3751,-3.4087,-3.4576,-3.4736,-3.5098,-3.5577,-3.5639,-3.5639,-3.5639,-3.5639,-3.5639,-3.5639,-3.5639,-3.4895,-3.3558,-3.4117,-3.3406,-3.1343,-3.2476,-3.2577,-3.163,-3.2544,-3.2949,-3.2577,-3.278,-3.2983,-3.3119,-3.3,-3.2899,-3.2916,-3.2916,-3.2645,-3.2154,-3.2594,-3.273,-3.2425,-3.3508,-3.4573,-3.5301,-3.5368,-3.5436,-3.5498,-3.4657,-3.4053,-3.4118,-3.4785,-3.5435,-3.5938,-3.6161,-3.633,-3.6886,-3.695,-3.7075,-3.7015,-3.7485,-3.7737,-3.7609,-3.7552,-3.7247,-3.6548,-3.6023,-3.5534,-3.4961,-3.4378,-3.4313,-3.4635,-3.4361,-3.4345,-3.4552,-3.4607,-3.4226,-3.3815,-3.3836,-3.3887,-3.4003,-3.4087,-3.4037,-3.3937,-3.3937,-3.3937,-3.3937,-3.3987,-3.4037,-3.3887,-3.3836,-3.3735,-3.3531,-3.3284,-3.3227,-3.3237,-3.4147,-3.4687,-3.3469,-3.341,-3.2841,-3.2258,-3.1779,-3.1616,-3.1541,-3.1452,-3.1467,-3.1467,-3.1405,-3.1524,-3.1546,-3.1651,-3.223,-3.2826,-3.3495,-3.3479,-3.3547,-3.3633,-3.3582,-3.3582,-3.3719,-3.4203,-3.4528,-3.4671,-3.5191,-3.5419,-3.5577,-3.5639,-3.5639,-3.5639,-3.5639,-3.5639,-3.5639,-3.5639,-3.4895,-3.3457,-3.4117,-3.3423,-3.1393,-3.1968,-3.2364,-3.2246,-3.229,-3.2679,-3.3102,-3.2087,-3.1715,-3.2256,-3.1782,-3.141,-3.1444,-3.141,-3.1376,-3.1326,-3.1393,-3.1613,-3.2256,-3.3034,-3.3829,-3.4489,-3.4607,-3.4878,-3.5504,-3.5419,-3.5407,-3.5417,-3.6097,-3.6441,-3.6703,-3.716,-3.7433,-3.7518,-3.7634,-3.778,-3.77,-3.7848,-3.7602,-3.6861,-3.6973,-3.6547,-3.612,-3.5858,-3.563,-3.5449,-3.5295,-3.5195,-3.5328,-3.5295,-3.5224,-3.5185,-3.4562,-3.4101,-3.4333,-3.4528,-3.4688,-3.5207,-3.5379,-3.5068,-3.4752,-3.4861,-3.5253,-3.4624,-3.4828,-3.4905,-3.4688,-3.4479,-3.4252,-3.3939,-3.3433,-3.2756,-3.2782,-3.4034,-3.4883,-3.2347,-3.2317,-3.2048,-3.1794,-3.1497,-3.1467,-3.13,-3.0941,-3.0926,-3.0714,-3.0388,-3.0746,-3.1351,-3.2183,-3.2478,-3.3198,-3.4137,-3.4186,-3.4399,-3.4703,-3.4352,-3.4322,-3.47,-3.4089,-3.432,-3.5107,-3.5015,-3.5182,-3.5554,-3.5622,-3.5639,-3.5639,-3.5639,-3.5639,-3.5639,-3.5639,-3.4895,-3.3474,-3.3694,-3.2983,-3.1512,-3.1901,-3.211,-3.1681,-3.1647,-3.1765,-3.2019,-3.1495,-3.1343,-3.1596,-3.136,-3.119,-3.119,-3.0801,-3.0751,-3.114,-3.119,-3.1512,-3.2222,-3.2577,-3.3068,-3.3795,-3.3846,-3.4167,-3.4844,-3.4556,-3.4624,-3.5504,-3.591,-3.6248,-3.6671,-3.6654,-3.6738,-3.7127,-3.7246,-3.7229,-3.7246,-3.7635,-3.7745,-3.7451,-3.7402,-3.7285,-3.6967,-3.6566,-3.6172,-3.5763,-3.5639,-3.5639,-3.5639,-3.5639,-3.5639,-3.5577,-3.5115,-3.4958,-3.5161,-3.5207,-3.5316,-3.5515,-3.5639,-3.5424,-3.5295,-3.4925,-3.4914,-3.5073,-3.5054,-3.5127,-3.5203,-3.4806,-3.4468,-3.4322,-3.4603,-3.42,-3.3773,-3.433,-3.4415,-3.1467,-3.1452,-3.1345,-3.115,-3.1001,-3.0986,-3.0717,-3.0313,-3.0417,-3.0211,-2.9894,-3.0701,-3.1731,-3.2786,-3.2851,-3.3609,-3.4783,-3.4878,-3.5144,-3.5476,-3.4844,-3.4793,-3.5131,-3.4032,-3.3964,-3.4776,-3.4455,-3.4573,-3.5267,-3.5554,-3.5639,-3.5639,-3.5639,-3.5504,-3.5334,-3.5318,-3.459,-3.3237,-3.3102,-3.2476,-3.1444,-3.1698,-3.1732,-3.1241,-3.119,-3.119,-3.119,-3.119,-3.119,-3.119,-3.1004,-3.1004,-3.1157,-3.0311,-3.0125,-3.0818,-3.1089,-3.141,-3.1935,-3.2026,-3.2307,-3.2983,-3.3085,-3.3508,-3.4184,-3.3998,-3.4303,-3.5402,-3.5639,-3.591,-3.6265,-3.5943,-3.591,-3.64,-3.6451,-3.6468,-3.6502,-3.6992,-3.7229,-3.7263,-3.7033,-3.728,-3.7195,-3.6692,-3.6134,-3.5695,-3.5639,-3.5639,-3.5639,-3.5639,-3.5639,-3.5639,-3.5577,-3.5577,-3.5639,-3.5577,-3.5639,-3.5639,-3.5622,-3.5537,-3.5402,-3.4776,-3.432,-3.4448,-3.4462,-3.4624,-3.4908,-3.4732,-3.4286,-3.4607,-3.4766,-3.452,-3.3288,-3.3812,-3.3812,-3.1467,-3.1362,-3.0821,-3.0238,-2.9699,-2.9729,-2.9684,-2.9654,-3.0248,-3.0443,-3.0528,-3.1736,-3.2861,-3.3422,-3.3323,-3.4184,-3.5386,-3.5414,-3.5397,-3.5402,-3.4742,-3.4472,-3.4489,-3.3761,-3.344,-3.3677,-3.3541,-3.3846,-3.459,-3.5284,-3.5639,-3.5639,-3.5588,-3.5233,-3.4692,-3.4556,-3.3829,-3.2577,-3.2449,-3.2026,-3.1331,-3.128,-3.1336,-3.123,-3.119,-3.1173,-3.1157,-3.119,-3.119,-3.119,-3.0615,-3.0514,-3.0987,-2.9854,-2.9448,-3.0108,-3.0801,-3.1207,-3.1275,-3.1292,-3.1596,-3.2171,-3.2341,-3.2916,-3.41,-3.4184,-3.4539,-3.5504,-3.552,-3.5588,-3.574,-3.5707,-3.5656,-3.5723,-3.5723,-3.574,-3.5723,-3.5876,-3.5757,-3.5842,-3.5994,-3.6062,-3.5876,-3.569,-3.5774,-3.5673,-3.5639,-3.5639,-3.5639,-3.5639,-3.5639,-3.5639,-3.5639,-3.5639,-3.5639,-3.5639,-3.5639,-3.5639,-3.5571,-3.5402,-3.4895,-3.4438,-3.41,-3.388,-3.3998,-3.4167,-3.4421,-3.4235,-3.3711,-3.3643,-3.3694,-3.3271,-3.2662,-3.2966,-3.2949,-3.0866,-3.0806,-3.0193,-2.9774,-2.9594,-2.9594,-2.934,-2.9049,-2.9605,-2.9847,-2.9953,-3.0767,-3.1727,-3.2741,-3.2744,-3.3513,-3.4793,-3.4421,-3.4201,-3.4117,-3.3423,-3.3322,-3.3643,-3.2594,-3.2544,-3.3237,-3.2933,-3.3322,-3.4489,-3.525,-3.5639,-3.5537,-3.5115,-3.4742,-3.4455,-3.4032,-3.3288,-3.2432,-3.2576,-3.2376,-3.1671,-3.1878,-3.1914,-3.1603,-3.1329,-3.097,-3.0514,-3.0937,-3.119,-3.119,-3.092,-3.07,-3.048,-3.0006,-2.9583,-2.9516,-3.0514,-3.119,-3.119,-3.119,-3.1292,-3.1529,-3.1579,-3.2002,-3.2831,-3.3102,-3.3575,-3.459,-3.4895,-3.5064,-3.552,-3.5639,-3.5639,-3.5639,-3.5639,-3.5639,-3.5639,-3.5639,-3.5639,-3.5707,-3.6011,-3.618,-3.5825,-3.6045,-3.6146,-3.5723,-3.5639,-3.5639,-3.5639,-3.5639,-3.5639,-3.5639,-3.5639,-3.5639,-3.5639,-3.5639,-3.5639,-3.5639,-3.5554,-3.5199,-3.4759,-3.4083,-3.366,-3.3305,-3.3423,-3.3457,-3.3609,-3.3744,-3.3203,-3.2763,-3.278,-3.2628,-3.2104,-3.2408,-3.2239,-3.0073,-2.9834,-2.943,-2.9131,-2.8989,-2.9184,-2.8979,-2.8703,-2.9441,-2.9769,-2.9884,-3.0609,-3.1497,-3.2219,-3.2309,-3.278,-3.3711,-3.3508,-3.3525,-3.3677,-3.2983,-3.3034,-3.3457,-3.2493,-3.2425,-3.3271,-3.3152,-3.3541,-3.4472,-3.525,-3.5677,-3.582,-3.5309,-3.5061,-3.4861,-3.4232,-3.3476,-3.2955,-3.2817,-3.2545,-3.2127,-3.235,-3.2243,-3.1777,-3.1595,-3.1302,-3.0694,-3.1268,-3.162,-3.1585,-3.119,-3.0518,-2.9901,-3.0209,-3.0208,-2.9775,-3.0711,-3.1329,-3.123,-3.119,-3.119,-3.119,-3.1207,-3.1495,-3.2212,-3.2313,-3.2916,-3.3829,-3.4404,-3.4742,-3.5148,-3.547,-3.5622,-3.5639,-3.5639,-3.5639,-3.5639,-3.5639,-3.5639,-3.569,-3.6011,-3.6062,-3.5808,-3.6096,-3.6062,-3.5656,-3.5639,-3.5639,-3.5639,-3.5639,-3.5639,-3.5639,-3.5639,-3.5639,-3.5639,-3.5639,-3.5605,-3.5605,-3.5588,-3.5182,-3.4455,-3.3761,-3.3186,-3.2831,-3.2679,-3.2679,-3.278,-3.2983,-3.2696,-3.2154,-3.2053,-3.2002,-3.1816,-3.1833,-3.1698,-2.919,-2.8712,-2.8607,-2.8263,-2.7885,-2.8388,-2.8541,-2.8697,-2.9801,-3.0286,-3.0438,-3.1655,-3.2111,-3.2288,-3.2169,-3.2273,-3.2459,-3.2916,-3.3525,-3.4032,-3.3525,-3.3626,-3.4218,-3.3525,-3.3186,-3.344,-3.41,-3.4447,-3.4609,-3.5304,-3.5898,-3.6333,-3.6277,-3.5993,-3.5969,-3.5011,-3.4306,-3.3599,-3.2979,-3.257,-3.2517,-3.2583,-3.2314,-3.1732,-3.2163,-3.2298,-3.1827,-3.2178,-3.2384,-3.2258,-3.1129,-2.9951,-2.9607,-3.0392,-3.1019,-3.0733,-3.1357,-3.1551,-3.1312,-3.1291,-3.1368,-3.1329,-3.1252,-3.1579,-3.2089,-3.2263,-3.2594,-3.3288,-3.4066,-3.4539,-3.4658,-3.5216,-3.5622,-3.5639,-3.5639,-3.5639,-3.5639,-3.5639,-3.5639,-3.5639,-3.574,-3.5656,-3.5639,-3.5723,-3.5707,-3.5673,-3.5639,-3.5639,-3.5639,-3.5639,-3.5639,-3.5639,-3.5639,-3.5639,-3.5639,-3.5622,-3.5605,-3.5571,-3.5554,-3.5284,-3.4201,-3.3372,-3.273,-3.2341,-3.2121,-3.2104,-3.2121,-3.2273,-3.207,-3.1647,-3.1562,-3.1529,-3.1512,-3.1495,-3.141,-2.8353,-2.8532,-2.8083,-2.7784,-2.7675,-2.8238,-2.8527,-2.8622,-2.9781,-3.0321,-3.05,-3.1199,-3.1582,-3.159,-3.1516,-3.1529,-3.1562,-3.1816,-3.2273,-3.2865,-3.2763,-3.3085,-3.3626,-3.3541,-3.3389,-3.3525,-3.415,-3.4687,-3.5118,-3.5761,-3.6416,-3.6755,-3.6397,-3.6086,-3.6024,-3.473,-3.3879,-3.3683,-3.3234,-3.2983,-3.3014,-3.3273,-3.3128,-3.2769,-3.3128,-3.3196,-3.2809,-3.2616,-3.2517,-3.2517,-3.2057,-3.1207,-3.0282,-3.0287,-3.049,-3.0536,-3.1612,-3.223,-3.2109,-3.2092,-3.2056,-3.2021,-3.1806,-3.1726,-3.1943,-3.219,-3.2422,-3.2788,-3.3711,-3.4489,-3.4607,-3.5165,-3.5537,-3.5622,-3.5639,-3.5639,-3.5639,-3.5639,-3.5639,-3.5639,-3.5639,-3.5639,-3.5639,-3.5639,-3.5639,-3.5639,-3.5639,-3.5639,-3.5639,-3.5639,-3.5639,-3.5639,-3.5639,-3.5453,-3.5267,-3.5131,-3.5064,-3.5098,-3.5165,-3.4827,-3.3812,-3.3119,-3.2459,-3.1918,-3.1698,-3.1596,-3.1613,-3.1546,-3.1444,-3.136,-3.1343,-3.1292,-3.1207,-3.119,-3.119,-2.7829,-2.8158,-2.7754,-2.776,-2.7947,-2.8295,-2.8714,-2.9207,-2.9913,-3.0368,-3.0666,-3.1032,-3.119,-3.119,-3.119,-3.119,-3.119,-3.119,-3.1596,-3.2256,-3.2628,-3.3102,-3.3795,-3.4117,-3.4235,-3.4329,-3.4891,-3.5393,-3.5723,-3.6382,-3.696,-3.7272,-3.6952,-3.6844,-3.6876,-3.5795,-3.5127,-3.5015,-3.4317,-3.3873,-3.3847,-3.3826,-3.368,-3.3476,-3.368,-3.3634,-3.339,-3.3118,-3.2996,-3.2942,-3.2714,-3.2032,-3.1182,-3.111,-3.1141,-3.1487,-3.2103,-3.2681,-3.255,-3.2451,-3.2517,-3.2451,-3.223,-3.2074,-3.2091,-3.2288,-3.2328,-3.232,-3.3208,-3.387,-3.3787,-3.432,-3.4844,-3.5199,-3.547,-3.5605,-3.5639,-3.5639,-3.5639,-3.5639,-3.5639,-3.5639,-3.5639,-3.5639,-3.5639,-3.5639,-3.5639,-3.5639,-3.5639,-3.5639,-3.552,-3.5351,-3.5131,-3.4945,-3.4742,-3.4624,-3.4523,-3.4573,-3.4658,-3.4049,-3.322,-3.2882,-3.2374,-3.1715,-3.136,-3.1376,-3.1376,-3.1326,-3.1258,-3.119,-3.119,-3.119,-3.119,-3.119,-3.119,-2.7625,-2.756,-2.756,-2.7959,-2.8434,-2.8426,-2.9097,-3.0086,-3.0241,-3.0572,-3.1067,-3.119,-3.119,-3.1207,-3.1309,-3.1326,-3.1224,-3.1512,-3.1681,-3.2307,-3.3,-3.3846,-3.4539,-3.5098,-3.5334,-3.548,-3.5891,-3.6264,-3.6441,-3.6851,-3.747,-3.7893,-3.7907,-3.8147,-3.8172,-3.7796,-3.7216,-3.693,-3.5768,-3.5017,-3.4871,-3.4293,-3.3844,-3.3798,-3.3807,-3.3762,-3.3734,-3.368,-3.3734,-3.3688,-3.2985,-3.2519,-3.2525,-3.2588,-3.2602,-3.2828,-3.3135,-3.3045,-3.2713,-3.2713,-3.2713,-3.2713,-3.2616,-3.255,-3.2553,-3.2506,-3.2336,-3.2088,-3.285,-3.3166,-3.3003,-3.3519,-3.4108,-3.4516,-3.522,-3.5554,-3.5537,-3.5554,-3.5571,-3.552,-3.5554,-3.5588,-3.5554,-3.5571,-3.547,-3.5504,-3.5504,-3.5571,-3.5267,-3.5098,-3.5081,-3.4827,-3.4489,-3.4336,-3.4134,-3.4066,-3.3931,-3.3668,-3.3829,-3.3447,-3.2788,-3.25,-3.2188,-3.1546,-3.119,-3.119,-3.119,-3.119,-3.119,-3.119,-3.119,-3.119,-3.119,-3.119,-3.119,-2.756,-2.756,-2.756,-2.7944,-2.8543,-2.8912,-2.9491,-3.0302,-3.07,-3.0903,-3.1173,-3.119,-3.119,-3.1241,-3.1732,-3.1715,-3.1512,-3.2273,-3.2188,-3.1867,-3.344,-3.4573,-3.5199,-3.5504,-3.5622,-3.5667,-3.5898,-3.6224,-3.696,-3.7173,-3.7667,-3.8483,-3.8446,-3.8546,-3.8597,-3.7918,-3.7533,-3.7397,-3.6541,-3.5642,-3.51,-3.4807,-3.4394,-3.3844,-3.3807,-3.3807,-3.3807,-3.3807,-3.3807,-3.3752,-3.3036,-3.2614,-3.2651,-3.2651,-3.2745,-3.2885,-3.3332,-3.3606,-3.3476,-3.3419,-3.3447,-3.3419,-3.3208,-3.3014,-3.3014,-3.2699,-3.2484,-3.2527,-3.3477,-3.4251,-3.4246,-3.4731,-3.5025,-3.4756,-3.5256,-3.544,-3.5135,-3.5284,-3.5436,-3.4928,-3.4854,-3.5084,-3.5321,-3.5169,-3.4864,-3.4931,-3.5135,-3.5237,-3.4806,-3.4695,-3.4746,-3.41,-3.3694,-3.3626,-3.3541,-3.3491,-3.3296,-3.287,-3.2866,-3.3009,-3.2389,-3.1958,-3.1653,-3.1207,-3.119,-3.119,-3.119,-3.119,-3.119,-3.119,-3.119,-3.119,-3.119,-3.119,-3.123,-2.741,-2.7156,-2.7156,-2.7367,-2.7659,-2.7961,-2.8757,-2.9799,-3.013,-3.0666,-3.1072,-3.119,-3.119,-3.1241,-3.163,-3.1596,-3.1393,-3.2391,-3.2239,-3.1681,-3.3119,-3.4523,-3.5368,-3.5622,-3.5694,-3.5968,-3.6165,-3.6746,-3.7433,-3.7703,-3.8168,-3.8564,-3.8707,-3.8707,-3.8689,-3.8285,-3.7991,-3.7863,-3.7221,-3.6523,-3.6101,-3.532,-3.4789,-3.4284,-3.4027,-3.3807,-3.3807,-3.3807,-3.3807,-3.3715,-3.3366,-3.3109,-3.3109,-3.3109,-3.3109,-3.3128,-3.3568,-3.3807,-3.3807,-3.3807,-3.3807,-3.3853,-3.3806,-3.3767,-3.3691,-3.3719,-3.3997,-3.3541,-3.4488,-3.492,-3.4995,-3.5491,-3.5649,-3.5398,-3.5558,-3.5559,-3.5094,-3.5145,-3.5191,-3.5025,-3.4835,-3.4691,-3.5208,-3.4812,-3.4622,-3.4645,-3.495,-3.4703,-3.434,-3.4416,-3.4306,-3.3659,-3.3299,-3.3235,-3.2934,-3.2792,-3.2781,-3.2359,-3.2308,-3.2393,-3.2238,-3.1735,-3.1399,-3.1207,-3.119,-3.123,-3.1252,-3.1213,-3.119,-3.119,-3.119,-3.123,-3.1252,-3.1389,-3.1389,-2.7175,-2.6587,-2.6527,-2.6487,-2.6539,-2.6439,-2.7672,-2.9055,-2.9362,-3.0023,-3.097,-3.119,-3.119,-3.119,-3.1461,-3.136,-3.1376,-3.2273,-3.2205,-3.229,-3.3186,-3.443,-3.5681,-3.5783,-3.5985,-3.6333,-3.6904,-3.736,-3.7808,-3.83,-3.8596,-3.8676,-3.8707,-3.8707,-3.8689,-3.8634,-3.8689,-3.8505,-3.7973,-3.7459,-3.7055,-3.6138,-3.5404,-3.4807,-3.4376,-3.4082,-3.4027,-3.399,-3.3935,-3.3807,-3.3807,-3.3733,-3.3752,-3.3788,-3.377,-3.3715,-3.3752,-3.3807,-3.3807,-3.3807,-3.3899,-3.4082,-3.4605,-3.4697,-3.4321,-3.4924,-3.5228,-3.4377,-3.5173,-3.5515,-3.5605,-3.5936,-3.6167,-3.6059,-3.5954,-3.5954,-3.5794,-3.5208,-3.4959,-3.5489,-3.4941,-3.4694,-3.4694,-3.4641,-3.4553,-3.4274,-3.4524,-3.4381,-3.4121,-3.4049,-3.3824,-3.3388,-3.3125,-3.2985,-3.2546,-3.2071,-3.2083,-3.1977,-3.199,-3.2063,-3.2264,-3.1873,-3.144,-3.119,-3.119,-3.1252,-3.1372,-3.1351,-3.1312,-3.1487,-3.1694,-3.1562,-3.1428,-3.162,-3.1714,-2.6722,-2.6542,-2.6019,-2.6077,-2.6507,-2.6941,-2.7883,-2.9261,-2.9698,-3.0311,-3.1038,-3.1173,-3.119,-3.1207,-3.1681,-3.2053,-3.2019,-3.2696,-3.3322,-3.3863,-3.4015,-3.5011,-3.5985,-3.6113,-3.6274,-3.6563,-3.696,-3.7433,-3.7877,-3.8132,-3.8318,-3.8676,-3.8707,-3.8707,-3.8707,-3.8707,-3.8707,-3.867,-3.8487,-3.8083,-3.7636,-3.711,-3.6229,-3.5229,-3.4807,-3.4752,-3.4761,-3.4734,-3.4468,-3.399,-3.3807,-3.3807,-3.3807,-3.3807,-3.3807,-3.3807,-3.3807,-3.3807,-3.3807,-3.3844,-3.4064,-3.4559,-3.4871,-3.4935,-3.4835,-3.511,-3.5237,-3.5005,-3.5637,-3.6316,-3.6825,-3.7621,-3.7339,-3.6635,-3.6235,-3.6175,-3.6023,-3.5287,-3.4623,-3.4287,-3.4093,-3.4023,-3.4571,-3.4127,-3.4039,-3.3969,-3.4005,-3.4058,-3.3916,-3.3771,-3.357,-3.3294,-3.3173,-3.3069,-3.2749,-3.2282,-3.2179,-3.2092,-3.2021,-3.1986,-3.2179,-3.2074,-3.1657,-3.1351,-3.119,-3.1351,-3.164,-3.1696,-3.1733,-3.195,-3.2162,-3.2056,-3.1986,-3.2056,-3.2144,-2.5959,-2.5644,-2.53,-2.5288,-2.5637,-2.6449,-2.7405,-2.8411,-2.9631,-3.0328,-3.0717,-3.1021,-3.119,-3.1207,-3.1596,-3.1749,-3.1935,-3.2544,-3.3271,-3.3761,-3.3964,-3.4525,-3.5469,-3.6075,-3.6443,-3.6991,-3.7396,-3.7808,-3.815,-3.8267,-3.8446,-3.8676,-3.8707,-3.8707,-3.8707,-3.8707,-3.8707,-3.8707,-3.8707,-3.8469,-3.8102,-3.7643,-3.6982,-3.5752,-3.5265,-3.5137,-3.5587,-3.4761,-3.4486,-3.4284,-3.4027,-3.3825,-3.3807,-3.3807,-3.3807,-3.3807,-3.3807,-3.3807,-3.3807,-3.3825,-3.3972,-3.4468,-3.511,-3.5275,-3.544,-3.5642,-3.5936,-3.5899,-3.6376,-3.7184,-3.7955,-3.834,-3.7973,-3.7165,-3.6505,-3.6174,-3.5666,-3.4867,-3.4353,-3.4101,-3.4037,-3.3983,-3.397,-3.3827,-3.38,-3.3906,-3.3888,-3.3924,-3.39,-3.3762,-3.3659,-3.3472,-3.3334,-3.316,-3.2943,-3.2681,-3.2517,-3.2417,-3.235,-3.235,-3.2451,-3.2213,-3.1914,-3.175,-3.1694,-3.1842,-3.2109,-3.2127,-3.2161,-3.2282,-3.2384,-3.2484,-3.2484,-3.2417,-3.255,-2.5136,-2.4567,-2.4522,-2.4381,-2.4488,-2.5584,-2.6467,-2.7273,-2.8938,-2.982,-3.0209,-3.0784,-3.1004,-3.1173,-3.1207,-3.1207,-3.1461,-3.2188,-3.3034,-3.3169,-3.3457,-3.3939,-3.4699,-3.5588,-3.6541,-3.7643,-3.7925,-3.8281,-3.8546,-3.8707,-3.8627,-3.8707,-3.8707,-3.8707,-3.8707,-3.8707,-3.8707,-3.8707,-3.8707,-3.8689,-3.856,-3.8046,-3.7386,-3.6835,-3.6046,-3.5936,-3.6138,-3.5495,-3.478,-3.5082,-3.4412,-3.4064,-3.3954,-3.3825,-3.3807,-3.3807,-3.3807,-3.3807,-3.3807,-3.3825,-3.388,-3.399,-3.5165,-3.5642,-3.5495,-3.5899,-3.6174,-3.6376,-3.6597,-3.7404,-3.8377,-3.8395,-3.8175,-3.7643,-3.689,-3.6009,-3.5257,-3.4412,-3.4202,-3.4421,-3.4108,-3.3905,-3.387,-3.3816,-3.3799,-3.3807,-3.3807,-3.3807,-3.3807,-3.378,-3.3707,-3.3651,-3.3541,-3.3476,-3.3284,-3.3166,-3.3014,-3.2903,-3.2809,-3.2809,-3.284,-3.2809,-3.2631,-3.2384,-3.235,-3.2484,-3.255,-3.2616,-3.2616,-3.2616,-3.2777,-3.2996,-3.2903,-3.2727,-3.2934,-2.4732,-2.4537,-2.3999,-2.3771,-2.3909,-2.4934,-2.586,-2.6539,-2.7821,-2.8921,-3.0023,-3.0243,-3.0632,-3.1038,-3.1173,-3.119,-3.1461,-3.2324,-3.2814,-3.2679,-3.2983,-3.3641,-3.4197,-3.5302,-3.631,-3.7115,-3.7917,-3.8578,-3.8658,-3.8707,-3.8707,-3.8707,-3.8707,-3.8707,-3.8707,-3.8707,-3.8707,-3.8707,-3.8707,-3.8707,-3.8634,-3.8505,-3.8303,-3.7973,-3.7202,-3.7055,-3.7129,-3.6982,-3.6633,-3.6083,-3.5247,-3.4825,-3.4541,-3.41,-3.3844,-3.3807,-3.3807,-3.3807,-3.3807,-3.3807,-3.4174,-3.4669,-3.5147,-3.5312,-3.5174,-3.532,-3.5734,-3.5789,-3.6156,-3.6853,-3.7588,-3.79,-3.8046,-3.7881,-3.7184,-3.6156,-3.5679,-3.478,-3.388,-3.4119,-3.3935,-3.3807,-3.3807,-3.3807,-3.3807,-3.3807,-3.3807,-3.3807,-3.3807,-3.3807,-3.3798,-3.3771,-3.378,-3.3734,-3.3689,-3.3652,-3.355,-3.3494,-3.3419,-3.3419,-3.3494,-3.3578,-3.3447,-3.3027,-3.2809,-3.2777,-3.2872,-3.3045,-3.3166,-3.3225,-3.3372,-3.3504,-3.339,-3.3225,-3.3361,-2.4103,-2.4059,-2.3729,-2.3921,-2.4533,-2.5386,-2.6043,-2.666,-2.7866,-2.8822,-2.9347,-2.9567,-3.0176,-3.0852,-3.0751,-3.0818,-3.1444,-3.2239,-3.2374,-3.2019,-3.2483,-3.2937,-3.3468,-3.4723,-3.5687,-3.6642,-3.7849,-3.8707,-3.8707,-3.8707,-3.8707,-3.8707,-3.8707,-3.8707,-3.8707,-3.8707,-3.8707,-3.8707,-3.8707,-3.8707,-3.8707,-3.8707,-3.8707,-3.8487,-3.8028,-3.7734,-3.7845,-3.6615,-3.6285,-3.5991,-3.5073,-3.4541,-3.4321,-3.4119,-3.3825,-3.3807,-3.3807,-3.3807,-3.3807,-3.3825,-3.399,-3.4321,-3.4761,-3.5257,-3.555,-3.5752,-3.5642,-3.5771,-3.5936,-3.6615,-3.7452,-3.779,-3.7881,-3.7386,-3.6743,-3.6028,-3.5147,-3.4321,-3.4009,-3.3844,-3.3807,-3.3807,-3.3807,-3.3807,-3.3807,-3.3807,-3.3807,-3.3807,-3.3807,-3.3807,-3.3807,-3.3807,-3.3807,-3.3807,-3.3788,-3.3807,-3.3807,-3.3807,-3.3807,-3.3807,-3.3807,-3.378,-3.368,-3.34,-3.3284,-3.3166,-3.3332,-3.3494,-3.3634,-3.3734,-3.3707,-3.368,-3.3753,-3.3807,-3.3807,-2.3595,-2.3595,-2.3724,-2.4266,-2.5107,-2.5876,-2.6323,-2.6806,-2.7874,-2.8518,-2.8772,-2.8975,-2.9753,-3.0598,-3.0683,-3.07,-3.1241,-3.185,-3.1698,-3.1495,-3.1822,-3.2133,-3.2681,-3.3927,-3.5314,-3.6161,-3.7831,-3.8689,-3.8707,-3.8707,-3.8707,-3.8707,-3.8707,-3.8707,-3.8707,-3.8707,-3.8707,-3.8707,-3.8707,-3.8707,-3.8707,-3.8707,-3.8707,-3.8689,-3.8065,-3.8065,-3.834,-3.7221,-3.6633,-3.645,-3.5679,-3.4614,-3.4339,-3.4137,-3.3972,-3.3844,-3.3807,-3.3807,-3.3807,-3.3807,-3.3935,-3.4321,-3.4706,-3.5404,-3.5991,-3.6156,-3.6211,-3.6285,-3.6303,-3.6633,-3.7386,-3.8028,-3.7771,-3.7129,-3.6633,-3.6046,-3.4908,-3.4192,-3.41,-3.3972,-3.3862,-3.3807,-3.3807,-3.3807,-3.3807,-3.3807,-3.3807,-3.3807,-3.3807,-3.3807,-3.3807,-3.3807,-3.3807,-3.3807,-3.3807,-3.3807,-3.3807,-3.3807,-3.3807,-3.3807,-3.3807,-3.3807,-3.3707,-3.3634,-3.3634,-3.3578,-3.378,-3.3807,-3.3807,-3.378,-3.3807,-3.3807,-3.3807,-3.3807,-3.3807,-2.3595,-2.3623,-2.4116,-2.4389,-2.4688,-2.5616,-2.6076,-2.6222,-2.6842,-2.7368,-2.8095,-2.8653,-2.9347,-3.0142,-3.0818,-3.1038,-3.1224,-3.1309,-3.136,-3.1241,-3.1438,-3.1756,-3.2219,-3.397,-3.5166,-3.608,-3.7781,-3.8566,-3.8707,-3.8707,-3.8707,-3.8707,-3.8707,-3.8707,-3.8707,-3.8707,-3.8707,-3.8707,-3.8707,-3.8689,-3.8652,-3.8652,-3.8689,-3.8597,-3.8579,-3.8524,-3.8652,-3.7955,-3.7918,-3.7936,-3.7367,-3.6633,-3.6064,-3.5238,-3.4523,-3.4045,-3.3807,-3.3807,-3.3807,-3.3807,-3.4119,-3.4559,-3.4945,-3.5459,-3.6101,-3.634,-3.6303,-3.6285,-3.6303,-3.6652,-3.7294,-3.7588,-3.7496,-3.7349,-3.7037,-3.6321,-3.5257,-3.4871,-3.4706,-3.4229,-3.4156,-3.3935,-3.3807,-3.3807,-3.3807,-3.3807,-3.3807,-3.3807,-3.3807,-3.3807,-3.3807,-3.3807,-3.3807,-3.3807,-3.3807,-3.3807,-3.3807,-3.3807,-3.3807,-3.3807,-3.3807,-3.3807,-3.3807,-3.378,-3.3807,-3.3807,-3.3807,-3.3807,-3.3807,-3.3807,-3.3807,-3.3807,-3.3807,-3.3807,-3.3807,-2.3595,-2.3638,-2.4184,-2.4592,-2.4934,-2.5689,-2.6156,-2.6401,-2.6624,-2.7114,-2.7672,-2.7655,-2.8315,-2.9482,-3.0243,-3.0801,-3.1106,-3.119,-3.119,-3.1308,-3.1462,-3.1918,-3.2875,-3.4374,-3.5573,-3.6544,-3.7721,-3.8603,-3.8707,-3.8707,-3.8707,-3.8707,-3.8707,-3.8707,-3.8707,-3.8707,-3.8707,-3.8707,-3.867,-3.845,-3.8248,-3.8395,-3.8487,-3.8083,-3.8469,-3.867,-3.8615,-3.8193,-3.8028,-3.7771,-3.6872,-3.5973,-3.5459,-3.4798,-3.41,-3.3917,-3.3807,-3.3807,-3.3807,-3.3825,-3.4302,-3.477,-3.5119,-3.5605,-3.6468,-3.6615,-3.6597,-3.6945,-3.6541,-3.6762,-3.7331,-3.7477,-3.7496,-3.7422,-3.7184,-3.6633,-3.5954,-3.5881,-3.555,-3.4981,-3.4394,-3.41,-3.3862,-3.3807,-3.3807,-3.3807,-3.3807,-3.3807,-3.3807,-3.3807,-3.3807,-3.3807,-3.3807,-3.3807,-3.3807,-3.3807,-3.3807,-3.3807,-3.3807,-3.3807,-3.3807,-3.3807,-3.3807,-3.3807,-3.3807,-3.3807,-3.3807,-3.3807,-3.3807,-3.3807,-3.3807,-3.3807,-3.3807,-3.3807,-3.3807,-2.3595,-2.3681,-2.4307,-2.4831,-2.5243,-2.5872,-2.6367,-2.6657,-2.6691,-2.7012,-2.7334,-2.7266,-2.7892,-2.9093,-2.9939,-3.0548,-3.1173,-3.119,-3.119,-3.1346,-3.186,-3.2539,-3.3583,-3.4965,-3.6295,-3.6989,-3.8076,-3.8652,-3.8707,-3.8707,-3.8707,-3.8707,-3.8707,-3.8707,-3.8707,-3.8707,-3.8707,-3.8707,-3.8707,-3.8303,-3.7845,-3.834,-3.8138,-3.801,-3.8193,-3.8707,-3.8597,-3.823,-3.7881,-3.7643,-3.6725,-3.6009,-3.5514,-3.4835,-3.4174,-3.3935,-3.3807,-3.3807,-3.3899,-3.4064,-3.4523,-3.5119,-3.5871,-3.6743,-3.7441,-3.7202,-3.7037,-3.7753,-3.7422,-3.7404,-3.7569,-3.7679,-3.7496,-3.7239,-3.6853,-3.6523,-3.6248,-3.6028,-3.5679,-3.5027,-3.4504,-3.4174,-3.3954,-3.3844,-3.3807,-3.3807,-3.3807,-3.3807,-3.3807,-3.3807,-3.3807,-3.3807,-3.3807,-3.3807,-3.3807,-3.3807,-3.3807,-3.3807,-3.3807,-3.3807,-3.3807,-3.3807,-3.3807,-3.3807,-3.3807,-3.3807,-3.3807,-3.3807,-3.3807,-3.3807,-3.3807,-3.3807,-3.3807,-3.3807,-3.3807,-2.3595,-2.3666,-2.4697,-2.5128,-2.5297,-2.6229,-2.6657,-2.6708,-2.6708,-2.6742,-2.6962,-2.7418,-2.8383,-2.9634,-2.9956,-3.0429,-3.119,-3.119,-3.119,-3.1589,-3.2366,-3.3122,-3.4199,-3.5531,-3.6912,-3.754,-3.834,-3.867,-3.8707,-3.8707,-3.8707,-3.8707,-3.8707,-3.8707,-3.8707,-3.8707,-3.8707,-3.8707,-3.8707,-3.8285,-3.7936,-3.8138,-3.823,-3.779,-3.8175,-3.8707,-3.867,-3.8414,-3.8175,-3.812,-3.7257,-3.6431,-3.5734,-3.4963,-3.4302,-3.3917,-3.3807,-3.3807,-3.388,-3.4431,-3.533,-3.6303,-3.7276,-3.8028,-3.8322,-3.8487,-3.8524,-3.8395,-3.8028,-3.8193,-3.8193,-3.801,-3.7569,-3.7514,-3.7221,-3.6927,-3.6541,-3.5973,-3.5587,-3.5009,-3.4587,-3.4302,-3.3972,-3.3844,-3.3807,-3.3807,-3.3807,-3.3807,-3.3807,-3.3807,-3.3807,-3.3807,-3.3807,-3.3807,-3.3807,-3.3807,-3.3807,-3.3807,-3.3807,-3.3807,-3.3807,-3.3807,-3.3807,-3.3807,-3.3807,-3.3807,-3.3807,-3.3807,-3.3807,-3.3807,-3.3807,-3.3807,-3.3807,-3.3807,-3.3807,-2.3266,-2.3681,-2.4752,-2.5221,-2.5297,-2.6264,-2.6708,-2.6708,-2.6708,-2.6708,-2.6708,-2.7063,-2.7977,-2.9076,-2.9482,-3.0091,-3.1072,-3.119,-3.119,-3.1606,-3.24,-3.3509,-3.4658,-3.589,-3.7221,-3.8047,-3.8579,-3.8707,-3.8707,-3.8707,-3.8707,-3.8707,-3.8707,-3.8707,-3.8707,-3.8707,-3.8707,-3.8707,-3.8634,-3.8303,-3.7845,-3.8157,-3.8083,-3.6927,-3.7551,-3.7624,-3.7367,-3.7734,-3.7606,-3.7312,-3.6964,-3.634,-3.5642,-3.4798,-3.4229,-3.3862,-3.3825,-3.3807,-3.3972,-3.4614,-3.5587,-3.6964,-3.801,-3.8707,-3.8652,-3.8303,-3.8358,-3.834,-3.8322,-3.8285,-3.8542,-3.8028,-3.7588,-3.7808,-3.7679,-3.7276,-3.6927,-3.6303,-3.5752,-3.5293,-3.4871,-3.4504,-3.4156,-3.3825,-3.3807,-3.3807,-3.3807,-3.3807,-3.3807,-3.3807,-3.3807,-3.3807,-3.3807,-3.3807,-3.3807,-3.3807,-3.3807,-3.3807,-3.3807,-3.3807,-3.3807,-3.3807,-3.3807,-3.3807,-3.3807,-3.3807,-3.3807,-3.3807,-3.3807,-3.3807,-3.3807,-3.3807,-3.3807,-3.3807,-3.3807,-2.3041,-2.3694,-2.4592,-2.5051,-2.5335,-2.628,-2.6708,-2.6708,-2.6708,-2.6708,-2.6708,-2.6759,-2.7385,-2.8399,-2.8958,-2.9617,-3.0632,-3.1038,-3.1157,-3.1742,-3.2672,-3.3783,-3.4977,-3.6252,-3.7558,-3.8392,-3.8676,-3.8707,-3.8707,-3.8707,-3.8707,-3.8707,-3.8707,-3.8707,-3.8707,-3.8707,-3.8707,-3.8707,-3.8634,-3.8303,-3.7716,-3.8193,-3.8175,-3.7055,-3.7606,-3.7569,-3.7257,-3.7349,-3.7129,-3.6615,-3.6083,-3.5642,-3.4981,-3.4357,-3.3899,-3.3825,-3.3807,-3.3807,-3.4045,-3.4908,-3.6101,-3.7661,-3.8267,-3.8652,-3.8542,-3.8175,-3.8377,-3.856,-3.8212,-3.8083,-3.8652,-3.8028,-3.79,-3.8102,-3.7257,-3.6835,-3.7037,-3.6688,-3.6138,-3.5605,-3.5147,-3.4651,-3.4192,-3.388,-3.3899,-3.388,-3.3807,-3.3807,-3.3807,-3.3807,-3.3807,-3.3807,-3.3807,-3.3807,-3.3807,-3.3807,-3.3807,-3.3807,-3.3807,-3.3807,-3.3807,-3.3807,-3.3807,-3.3807,-3.3807,-3.3807,-3.3807,-3.3807,-3.3807,-3.3807,-3.3807,-3.3807,-3.3807,-3.3807,-3.3807,-2.3011,-2.3651,-2.4184,-2.4752,-2.5297,-2.628,-2.6691,-2.6708,-2.6708,-2.6708,-2.6708,-2.6708,-2.7131,-2.7943,-2.8569,-2.9364,-3.0226,-3.0835,-3.1123,-3.1601,-3.2762,-3.3887,-3.4946,-3.6203,-3.7395,-3.7941,-3.83,-3.8578,-3.8707,-3.8707,-3.8707,-3.8707,-3.8707,-3.8707,-3.8707,-3.8707,-3.8707,-3.8707,-3.8707,-3.8248,-3.7973,-3.8358,-3.8065,-3.7679,-3.7698,-3.7551,-3.6982,-3.6853,-3.6541,-3.5881,-3.5459,-3.51,-3.4752,-3.4174,-3.3862,-3.3935,-3.3844,-3.3844,-3.399,-3.5422,-3.6835,-3.8175,-3.8634,-3.8689,-3.8707,-3.8615,-3.8542,-3.8689,-3.856,-3.856,-3.8432,-3.8138,-3.8285,-3.8083,-3.7276,-3.6835,-3.7055,-3.6505,-3.5826,-3.5514,-3.5183,-3.4761,-3.4284,-3.3935,-3.399,-3.3954,-3.3844,-3.3807,-3.3807,-3.3807,-3.3807,-3.3807,-3.3807,-3.3807,-3.3807,-3.3807,-3.3807,-3.3807,-3.3807,-3.3807,-3.3807,-3.3807,-3.3807,-3.3807,-3.3807,-3.3807,-3.3807,-3.3807,-3.3807,-3.3807,-3.3807,-3.3807,-3.3807,-3.3807,-3.3807,-2.2652,-2.3623,-2.4184,-2.4712,-2.5259,-2.5961,-2.6401,-2.6657,-2.6708,-2.6708,-2.6708,-2.6708,-2.7114,-2.774,-2.818,-2.8941,-3.0006,-3.0243,-3.0581,-3.1348,-3.2537,-3.3412,-3.4436,-3.5548,-3.6826,-3.7664,-3.8132,-3.8465,-3.8707,-3.8707,-3.8707,-3.8707,-3.8707,-3.8707,-3.8707,-3.8707,-3.8707,-3.8707,-3.8689,-3.856,-3.834,-3.8505,-3.834,-3.7569,-3.7459,-3.7,-3.6266,-3.6285,-3.5771,-3.5128,-3.4743,-3.4752,-3.4449,-3.388,-3.41,-3.4266,-3.4302,-3.4394,-3.5073,-3.6248,-3.7019,-3.8102,-3.8707,-3.8707,-3.8707,-3.8707,-3.8707,-3.8707,-3.8707,-3.8707,-3.856,-3.8505,-3.856,-3.8414,-3.7845,-3.7404,-3.7129,-3.5954,-3.5147,-3.5165,-3.4954,-3.5293,-3.511,-3.4596,-3.4486,-3.4137,-3.3972,-3.3844,-3.3807,-3.3807,-3.3807,-3.3807,-3.3807,-3.3807,-3.3807,-3.3807,-3.3807,-3.3807,-3.3807,-3.3807,-3.3807,-3.3807,-3.3807,-3.3807,-3.3807,-3.3807,-3.3807,-3.3807,-3.3807,-3.3807,-3.3807,-3.3807,-3.3807,-3.3807,-3.3807,-2.1979,-2.2978,-2.3579,-2.4089,-2.4694,-2.5591,-2.6245,-2.6657,-2.6708,-2.6708,-2.6708,-2.6708,-2.6928,-2.7452,-2.8078,-2.8535,-2.9753,-3.0345,-3.0598,-3.1275,-3.1992,-3.2736,-3.363,-3.4892,-3.6162,-3.7201,-3.7957,-3.8415,-3.8707,-3.8707,-3.8707,-3.8707,-3.8707,-3.8707,-3.8707,-3.8707,-3.8707,-3.8707,-3.8689,-3.8689,-3.8634,-3.8634,-3.8469,-3.7973,-3.7514,-3.689,-3.6101,-3.5514,-3.5055,-3.4578,-3.4357,-3.4541,-3.4192,-3.4064,-3.4431,-3.4853,-3.5183,-3.544,-3.634,-3.6688,-3.7514,-3.8524,-3.867,-3.8707,-3.8707,-3.8707,-3.8707,-3.8707,-3.8707,-3.8707,-3.8707,-3.8707,-3.8652,-3.8505,-3.8303,-3.7845,-3.689,-3.5734,-3.5,-3.5,-3.5128,-3.5514,-3.5789,-3.5477,-3.5092,-3.4596,-3.41,-3.3972,-3.3825,-3.3807,-3.3807,-3.3807,-3.3807,-3.3807,-3.3807,-3.3807,-3.3807,-3.3807,-3.3807,-3.3807,-3.3807,-3.3807,-3.3807,-3.3807,-3.3807,-3.3807,-3.3807,-3.3807,-3.3807,-3.3807,-3.3807,-3.3807,-3.3807,-3.3807,-3.3807,-2.1111,-2.1739,-2.2383,-2.296,-2.3616,-2.509,-2.6112,-2.6691,-2.6708,-2.6708,-2.6708,-2.6708,-2.6776,-2.7029,-2.8163,-2.8839,-2.9194,-3.0345,-3.0869,-3.1275,-3.1799,-3.2235,-3.3134,-3.4505,-3.5588,-3.6542,-3.7442,-3.8267,-3.8627,-3.8707,-3.8707,-3.8707,-3.8707,-3.8707,-3.8707,-3.8707,-3.8707,-3.8707,-3.8909,-3.8854,-3.8762,-3.8817,-3.8744,-3.845,-3.812,-3.7698,-3.7019,-3.634,-3.5624,-3.4963,-3.4302,-3.4477,-3.4449,-3.4229,-3.5037,-3.5734,-3.6119,-3.6597,-3.7129,-3.7294,-3.7771,-3.8542,-3.8689,-3.8707,-3.8707,-3.8707,-3.8707,-3.8707,-3.8707,-3.8707,-3.8707,-3.8707,-3.8689,-3.8597,-3.8524,-3.779,-3.6798,-3.5917,-3.5202,-3.5018,-3.5128,-3.5385,-3.5587,-3.544,-3.5532,-3.4798,-3.4321,-3.4064,-3.3935,-3.3807,-3.3807,-3.3807,-3.3807,-3.3807,-3.3807,-3.3807,-3.3807,-3.3807,-3.3807,-3.3807,-3.3807,-3.3807,-3.3807,-3.3807,-3.3807,-3.3807,-3.3807,-3.3807,-3.3807,-3.3807,-3.3807,-3.3807,-3.3807,-3.3807,-3.3807,-2.1096,-2.171,-2.1904,-2.2252,-2.2836,-2.4002,-2.533,-2.659,-2.6708,-2.6708,-2.6708,-2.6708,-2.6708,-2.6776,-2.7182,-2.8044,-2.8789,-2.9516,-3.0328,-3.092,-3.1461,-3.1833,-3.2627,-3.3716,-3.4805,-3.6001,-3.7059,-3.8168,-3.8564,-3.8676,-3.8707,-3.8707,-3.8707,-3.8707,-3.8707,-3.8707,-3.8707,-3.8817,-3.9111,-3.9019,-3.8982,-3.9111,-3.9019,-3.8781,-3.8267,-3.7863,-3.7367,-3.6266,-3.5514,-3.5027,-3.4266,-3.4247,-3.4844,-3.4789,-3.5247,-3.6064,-3.634,-3.6597,-3.7312,-3.7496,-3.7863,-3.8505,-3.8689,-3.8707,-3.8707,-3.867,-3.8652,-3.8579,-3.8652,-3.867,-3.8615,-3.8597,-3.8652,-3.8652,-3.8469,-3.7826,-3.6872,-3.6083,-3.5367,-3.4853,-3.4981,-3.5293,-3.5459,-3.5991,-3.5973,-3.5128,-3.4504,-3.4211,-3.399,-3.3862,-3.3807,-3.3807,-3.3807,-3.3807,-3.3807,-3.3807,-3.3807,-3.3807,-3.3807,-3.3807,-3.3807,-3.3807,-3.3807,-3.3807,-3.3807,-3.3807,-3.3807,-3.3807,-3.3807,-3.3807,-3.3807,-3.3807,-3.3807,-3.3807,-3.3807,-2.0543,-2.0917,-2.1201,-2.1835,-2.2713,-2.3484,-2.463,-2.5745,-2.6133,-2.6387,-2.6691,-2.6708,-2.6708,-2.6776,-2.7114,-2.7706,-2.8501,-2.9347,-3.0057,-3.0497,-3.1072,-3.141,-3.21,-3.3242,-3.4439,-3.559,-3.6863,-3.8135,-3.8451,-3.8658,-3.8707,-3.8707,-3.8707,-3.8707,-3.8707,-3.8707,-3.8707,-3.8836,-3.9001,-3.9038,-3.9129,-3.9203,-3.8982,-3.8744,-3.812,-3.7881,-3.7507,-3.6266,-3.5936,-3.5605,-3.4908,-3.5202,-3.5973,-3.6303,-3.5991,-3.6725,-3.7129,-3.7239,-3.7588,-3.7881,-3.823,-3.8542,-3.867,-3.8487,-3.845,-3.8432,-3.8322,-3.8248,-3.8469,-3.8615,-3.8542,-3.8469,-3.8597,-3.8689,-3.8285,-3.7881,-3.7074,-3.6248,-3.5532,-3.4835,-3.4871,-3.522,-3.5679,-3.6266,-3.6156,-3.4871,-3.4211,-3.4082,-3.3935,-3.3844,-3.3807,-3.3807,-3.3807,-3.3807,-3.3807,-3.3807,-3.3807,-3.3807,-3.3807,-3.3807,-3.3807,-3.3807,-3.3807,-3.3807,-3.3807,-3.3807,-3.3807,-3.3807,-3.3807,-3.3807,-3.3834,-3.3815,-3.3834,-3.3807,-3.3807,-1.972,-1.9816,-2.04,-2.1486,-2.2879,-2.3292,-2.3832,-2.4458,-2.5101,-2.5862,-2.6437,-2.659,-2.659,-2.6759,-2.7165,-2.7672,-2.8433,-2.9262,-2.9939,-3.0209,-3.092,-3.1309,-3.1961,-3.336,-3.4132,-3.5223,-3.6487,-3.7814,-3.8165,-3.8433,-3.8707,-3.8707,-3.8707,-3.8707,-3.8707,-3.8707,-3.8707,-3.8744,-3.8799,-3.8799,-3.8817,-3.8781,-3.8781,-3.8726,-3.856,-3.8377,-3.7808,-3.7415,-3.7147,-3.6633,-3.634,-3.6541,-3.7202,-3.7698,-3.7312,-3.7294,-3.7698,-3.7845,-3.7936,-3.8212,-3.8469,-3.8652,-3.8615,-3.8212,-3.8046,-3.812,-3.8028,-3.7918,-3.8083,-3.834,-3.834,-3.8505,-3.8652,-3.8707,-3.8487,-3.8193,-3.7734,-3.6688,-3.5514,-3.4926,-3.4734,-3.5018,-3.4743,-3.5202,-3.5495,-3.4321,-3.3917,-3.388,-3.3862,-3.3825,-3.3807,-3.3807,-3.3807,-3.3807,-3.3807,-3.3807,-3.3807,-3.3807,-3.3834,-3.3807,-3.3807,-3.3807,-3.3807,-3.3807,-3.3807,-3.3807,-3.3807,-3.3807,-3.3834,-3.3815,-3.3815,-3.3823,-3.3868,-3.3921,-3.386,-1.9705,-1.9741,-2.0218,-2.0858,-2.1519,-2.1936,-2.2748,-2.3646,-2.3816,-2.4678,-2.5693,-2.5913,-2.6184,-2.664,-2.6894,-2.7452,-2.8552,-2.8907,-2.9888,-3.0463,-3.1021,-3.1123,-3.1365,-3.2616,-3.3616,-3.4816,-3.6095,-3.7528,-3.8291,-3.8627,-3.8707,-3.8707,-3.8707,-3.8707,-3.8707,-3.8707,-3.8707,-3.8707,-3.8707,-3.8707,-3.8726,-3.9184,-3.9423,-3.8964,-3.8634,-3.8579,-3.812,-3.7753,-3.7514,-3.7177,-3.6541,-3.6762,-3.7422,-3.7698,-3.7936,-3.8046,-3.7918,-3.8046,-3.8248,-3.845,-3.8652,-3.8487,-3.8267,-3.7826,-3.7624,-3.7734,-3.7734,-3.7624,-3.7753,-3.8046,-3.8248,-3.8487,-3.8707,-3.8707,-3.8689,-3.8505,-3.8334,-3.7022,-3.5643,-3.5211,-3.4871,-3.4486,-3.4183,-3.4137,-3.4321,-3.4229,-3.3954,-3.3825,-3.3844,-3.3807,-3.3807,-3.3807,-3.3807,-3.3807,-3.3807,-3.3834,-3.3815,-3.3842,-3.385,-3.3842,-3.386,-3.3947,-3.4005,-3.3887,-3.3807,-3.3921,-3.3972,-3.3815,-3.3842,-3.3928,-3.4012,-3.4093,-3.4189,-3.4279,-3.4087,-1.9705,-1.9782,-2.0364,-2.0748,-2.1086,-2.1645,-2.2312,-2.284,-2.2919,-2.3562,-2.4678,-2.5287,-2.5845,-2.6319,-2.6522,-2.6996,-2.8061,-2.8332,-2.9025,-2.9905,-3.0751,-3.0937,-3.1404,-3.2122,-3.3343,-3.4582,-3.6239,-3.7602,-3.8541,-3.8707,-3.8707,-3.8707,-3.8707,-3.8707,-3.8707,-3.8707,-3.8707,-3.8707,-3.8707,-3.8707,-3.8707,-3.9056,-3.9221,-3.8762,-3.8689,-3.8579,-3.8267,-3.7918,-3.7863,-3.7734,-3.7386,-3.7588,-3.8028,-3.8157,-3.8083,-3.8065,-3.8028,-3.8046,-3.8285,-3.8505,-3.867,-3.8487,-3.8377,-3.812,-3.6927,-3.6964,-3.6964,-3.6982,-3.801,-3.8414,-3.8138,-3.8248,-3.8579,-3.8707,-3.8628,-3.8511,-3.8099,-3.7259,-3.6389,-3.5988,-3.5417,-3.4573,-3.4271,-3.4064,-3.4192,-3.4082,-3.3825,-3.3807,-3.3807,-3.3868,-3.386,-3.3887,-3.3895,-3.386,-3.3807,-3.3842,-3.3876,-3.3902,-3.3986,-3.4111,-3.4208,-3.4232,-3.4189,-3.416,-3.416,-3.4255,-3.4232,-3.4111,-3.4184,-3.433,-3.4375,-3.4442,-3.4529,-3.4593,-3.4464,-1.9705,-1.9818,-2.0581,-2.0959,-2.1134,-2.184,-2.2254,-2.2316,-2.2344,-2.2682,-2.3477,-2.4831,-2.5406,-2.5845,-2.6336,-2.6623,-2.7165,-2.8095,-2.867,-2.9381,-3.0125,-3.0717,-3.1414,-3.2196,-3.3263,-3.4812,-3.6613,-3.7703,-3.8658,-3.8707,-3.8707,-3.8707,-3.8707,-3.8707,-3.8707,-3.8707,-3.8707,-3.8707,-3.8707,-3.8707,-3.8707,-3.8707,-3.8744,-3.8726,-3.8652,-3.8303,-3.812,-3.8083,-3.8175,-3.8157,-3.8157,-3.8358,-3.8487,-3.8487,-3.8248,-3.8193,-3.8377,-3.8212,-3.8138,-3.8432,-3.8597,-3.867,-3.8652,-3.804,-3.6838,-3.6601,-3.6619,-3.7071,-3.8103,-3.8412,-3.8136,-3.8258,-3.8589,-3.8759,-3.8678,-3.8512,-3.7966,-3.7422,-3.6926,-3.6484,-3.5632,-3.4733,-3.4334,-3.4109,-3.3972,-3.3844,-3.3807,-3.3807,-3.3834,-3.3928,-3.3986,-3.4037,-3.4111,-3.403,-3.3921,-3.4005,-3.4093,-3.4189,-3.4307,-3.4464,-3.4569,-3.4486,-3.4486,-3.4569,-3.4591,-3.4569,-3.4569,-3.4505,-3.4612,-3.4674,-3.4714,-3.4735,-3.4793,-3.4832,-3.487,-1.9705,-1.9762,-2.0227,-2.0649,-2.1055,-2.1538,-2.1957,-2.2282,-2.2327,-2.2412,-2.2953,-2.4019,-2.4983,-2.5642,-2.637,-2.6894,-2.7554,-2.8264,-2.9127,-2.9956,-3.0378,-3.0869,-3.1465,-3.2256,-3.3058,-3.48,-3.677,-3.802,-3.8627,-3.8707,-3.8707,-3.8707,-3.8707,-3.8707,-3.8707,-3.8707,-3.8707,-3.8707,-3.8707,-3.8707,-3.8707,-3.8707,-3.8707,-3.8707,-3.8689,-3.8597,-3.856,-3.8615,-3.8597,-3.8579,-3.856,-3.867,-3.8707,-3.8707,-3.8524,-3.8432,-3.8615,-3.8542,-3.8487,-3.8584,-3.8762,-3.8707,-3.8564,-3.8136,-3.7479,-3.7493,-3.7527,-3.7605,-3.8257,-3.8238,-3.8183,-3.8674,-3.9036,-3.8992,-3.892,-3.8529,-3.804,-3.7349,-3.6752,-3.6152,-3.5412,-3.4713,-3.4163,-3.399,-3.388,-3.3807,-3.3807,-3.3834,-3.3895,-3.3986,-3.4117,-3.4237,-3.433,-3.4265,-3.4195,-3.4375,-3.4486,-3.4569,-3.4653,-3.4774,-3.4793,-3.4674,-3.4694,-3.487,-3.4812,-3.4734,-3.4754,-3.487,-3.4793,-3.4832,-3.4963,-3.5035,-3.507,-3.5105,-3.5122]}]]